GEFSMW_prec_meanprecacc_132.txt.gz
Total_Precipitation_Accumulation
0.60 0.75 0.88 1.11 1.31 1.45 1.61 1.61 1.66 1.75 1.77 1.76 1.63 1.42 1.20 1.09 1.04 0.97 0.92 0.81 0.68 0.58 0.50 0.45 0.44 0.40 0.34 0.30 0.28 0.26 0.23 0.20 0.20 0.20 0.15 0.11 0.09 0.07 0.06 0.06 0.06 0.05 0.05
0.52 0.59 0.72 0.92 1.09 1.20 1.31 1.42 1.46 1.56 1.62 1.59 1.55 1.54 1.56 1.40 1.25 1.13 1.01 0.92 0.87 0.80 0.69 0.59 0.54 0.51 0.47 0.41 0.37 0.38 0.36 0.33 0.33 0.35 0.34 0.23 0.14 0.09 0.08 0.09 0.09 0.09 0.09
0.48 0.51 0.58 0.78 0.88 0.97 1.09 1.17 1.27 1.35 1.36 1.49 1.59 1.62 1.63 1.56 1.31 1.08 0.94 0.96 1.01 1.00 0.90 0.79 0.74 0.70 0.68 0.62 0.58 0.58 0.55 0.50 0.49 0.51 0.56 0.45 0.27 0.17 0.11 0.10 0.11 0.12 0.10
0.47 0.51 0.55 0.66 0.72 0.77 0.91 1.01 1.10 1.20 1.22 1.34 1.37 1.31 1.19 1.16 1.09 1.03 1.02 1.07 1.10 1.10 1.06 1.02 0.94 0.85 0.82 0.77 0.81 0.87 0.83 0.76 0.64 0.57 0.55 0.55 0.48 0.43 0.29 0.16 0.14 0.14 0.13
0.41 0.50 0.54 0.56 0.61 0.62 0.67 0.81 0.96 1.02 1.04 1.10 1.16 1.23 1.17 1.11 1.13 1.12 1.04 0.99 0.97 1.02 1.09 1.09 1.05 0.93 0.84 0.82 0.84 0.86 0.89 0.86 0.80 0.74 0.71 0.69 0.62 0.57 0.54 0.36 0.22 0.21 0.20
0.44 0.46 0.42 0.46 0.57 0.53 0.50 0.60 0.73 0.90 0.97 1.00 1.05 1.10 1.08 1.02 1.00 1.04 1.02 1.01 0.95 0.90 0.92 0.98 0.98 0.98 0.95 0.92 0.94 0.97 0.98 0.98 0.96 0.90 0.83 0.79 0.73 0.65 0.67 0.62 0.45 0.37 0.32
0.39 0.40 0.39 0.46 0.50 0.47 0.44 0.47 0.54 0.69 0.82 0.85 0.87 0.93 1.03 1.03 0.94 0.92 0.96 0.95 0.91 0.87 0.89 0.96 1.00 1.00 1.00 1.03 1.05 1.03 0.97 0.96 0.94 0.92 0.88 0.83 0.77 0.73 0.80 0.86 0.75 0.63 0.52
0.30 0.31 0.32 0.34 0.32 0.30 0.34 0.40 0.45 0.49 0.55 0.60 0.67 0.76 0.85 0.92 0.86 0.80 0.80 0.78 0.74 0.76 0.83 0.90 0.95 0.98 0.99 1.01 1.02 1.00 0.96 0.93 0.91 0.89 0.87 0.83 0.77 0.75 0.79 0.88 0.98 0.96 0.79
0.22 0.22 0.23 0.23 0.20 0.21 0.24 0.28 0.31 0.34 0.38 0.40 0.46 0.54 0.61 0.71 0.79 0.77 0.76 0.73 0.72 0.68 0.68 0.73 0.78 0.83 0.86 0.88 0.92 0.92 0.86 0.83 0.80 0.78 0.78 0.77 0.72 0.69 0.72 0.80 0.95 1.14 1.10
0.18 0.19 0.20 0.19 0.15 0.14 0.15 0.16 0.19 0.25 0.28 0.30 0.33 0.38 0.47 0.54 0.63 0.67 0.67 0.65 0.63 0.62 0.60 0.60 0.60 0.63 0.69 0.75 0.81 0.82 0.79 0.77 0.73 0.69 0.69 0.69 0.68 0.70 0.73 0.78 0.85 0.98 1.10
0.16 0.16 0.16 0.14 0.14 0.12 0.12 0.14 0.18 0.22 0.24 0.25 0.28 0.31 0.37 0.43 0.48 0.51 0.53 0.54 0.55 0.56 0.55 0.57 0.56 0.55 0.56 0.61 0.68 0.73 0.75 0.76 0.73 0.70 0.68 0.67 0.67 0.69 0.71 0.75 0.79 0.83 0.91
0.15 0.13 0.11 0.11 0.12 0.13 0.14 0.15 0.19 0.21 0.23 0.24 0.26 0.28 0.32 0.36 0.39 0.43 0.43 0.45 0.48 0.48 0.46 0.45 0.46 0.47 0.47 0.50 0.55 0.61 0.64 0.67 0.69 0.71 0.72 0.72 0.73 0.76 0.78 0.80 0.79 0.78 0.78
0.18 0.16 0.12 0.10 0.11 0.13 0.14 0.14 0.17 0.20 0.21 0.22 0.23 0.23 0.23 0.25 0.28 0.34 0.38 0.40 0.46 0.50 0.50 0.46 0.42 0.41 0.42 0.45 0.48 0.51 0.56 0.58 0.60 0.64 0.70 0.73 0.76 0.81 0.81 0.80 0.78 0.74 0.71
0.20 0.20 0.20 0.15 0.14 0.13 0.11 0.11 0.12 0.15 0.18 0.19 0.20 0.19 0.20 0.21 0.23 0.26 0.30 0.34 0.39 0.45 0.45 0.46 0.44 0.41 0.41 0.44 0.47 0.53 0.58 0.62 0.65 0.66 0.68 0.71 0.72 0.72 0.70 0.68 0.67 0.68 0.68
0.19 0.20 0.21 0.20 0.17 0.14 0.12 0.10 0.10 0.12 0.14 0.16 0.17 0.18 0.19 0.20 0.22 0.24 0.27 0.30 0.34 0.39 0.42 0.44 0.44 0.45 0.45 0.49 0.54 0.57 0.63 0.68 0.72 0.74 0.73 0.69 0.66 0.61 0.59 0.57 0.56 0.55 0.60
0.17 0.18 0.17 0.18 0.16 0.15 0.14 0.13 0.13 0.12 0.14 0.16 0.16 0.16 0.18 0.18 0.21 0.24 0.27 0.28 0.32 0.38 0.43 0.49 0.55 0.57 0.62 0.73 0.74 0.69 0.67 0.69 0.68 0.66 0.63 0.61 0.59 0.57 0.58 0.58 0.55 0.57 0.65
0.11 0.14 0.15 0.16 0.15 0.14 0.13 0.12 0.13 0.13 0.14 0.15 0.16 0.17 0.19 0.21 0.22 0.26 0.30 0.36 0.41 0.49 0.56 0.59 0.69 0.73 0.76 0.77 0.70 0.66 0.61 0.62 0.61 0.56 0.51 0.47 0.43 0.44 0.41 0.47 0.52 0.53 0.56
0.06 0.07 0.10 0.10 0.10 0.09 0.10 0.11 0.10 0.12 0.13 0.16 0.20 0.22 0.23 0.30 0.36 0.36 0.39 0.46 0.52 0.59 0.66 0.66 0.69 0.73 0.74 0.70 0.62 0.58 0.51 0.47 0.45 0.42 0.39 0.35 0.34 0.34 0.38 0.45 0.51 0.43 0.38
0.07 0.07 0.08 0.10 0.10 0.10 0.11 0.12 0.13 0.14 0.15 0.18 0.23 0.26 0.28 0.37 0.46 0.46 0.48 0.52 0.57 0.63 0.65 0.64 0.59 0.55 0.54 0.53 0.47 0.44 0.40 0.38 0.36 0.35 0.35 0.35 0.32 0.35 0.49 0.54 0.51 0.39 0.30
0.10 0.10 0.11 0.12 0.14 0.16 0.17 0.17 0.19 0.24 0.27 0.28 0.32 0.37 0.43 0.50 0.54 0.54 0.53 0.50 0.48 0.50 0.48 0.44 0.40 0.37 0.34 0.34 0.34 0.34 0.30 0.30 0.31 0.34 0.35 0.37 0.35 0.41 0.53 0.48 0.46 0.38 0.31
0.15 0.14 0.15 0.17 0.19 0.19 0.21 0.22 0.25 0.33 0.39 0.42 0.45 0.45 0.49 0.51 0.51 0.49 0.45 0.40 0.34 0.32 0.31 0.30 0.28 0.27 0.27 0.28 0.28 0.29 0.29 0.29 0.33 0.35 0.33 0.33 0.46 0.53 0.51 0.42 0.33 0.35 0.42
0.13 0.15 0.17 0.19 0.22 0.25 0.29 0.30 0.32 0.38 0.40 0.42 0.42 0.40 0.38 0.38 0.39 0.38 0.36 0.31 0.27 0.25 0.24 0.25 0.26 0.27 0.28 0.28 0.30 0.34 0.38 0.41 0.36 0.30 0.28 0.34 0.49 0.48 0.41 0.34 0.35 0.43 0.40
0.12 0.15 0.19 0.22 0.25 0.26 0.29 0.31 0.31 0.30 0.31 0.32 0.32 0.29 0.25 0.24 0.25 0.25 0.25 0.25 0.23 0.21 0.23 0.26 0.27 0.29 0.31 0.33 0.35 0.38 0.45 0.48 0.41 0.37 0.43 0.47 0.43 0.36 0.33 0.33 0.36 0.34 0.30
0.09 0.12 0.13 0.15 0.17 0.17 0.19 0.21 0.20 0.19 0.19 0.19 0.21 0.21 0.19 0.18 0.18 0.19 0.21 0.21 0.21 0.20 0.20 0.24 0.27 0.28 0.28 0.30 0.33 0.37 0.41 0.44 0.44 0.46 0.47 0.41 0.34 0.30 0.29 0.32 0.33 0.31 0.30
0.08 0.09 0.09 0.09 0.11 0.11 0.11 0.11 0.11 0.11 0.13 0.14 0.15 0.16 0.17 0.18 0.18 0.20 0.22 0.24 0.25 0.27 0.26 0.23 0.25 0.27 0.26 0.30 0.41 0.43 0.41 0.46 0.50 0.49 0.36 0.27 0.25 0.26 0.25 0.25 0.26 0.29 0.31
0.08 0.08 0.08 0.09 0.12 0.11 0.10 0.10 0.09 0.09 0.11 0.13 0.14 0.16 0.17 0.17 0.18 0.20 0.21 0.25 0.26 0.28 0.30 0.30 0.29 0.26 0.28 0.35 0.41 0.44 0.48 0.51 0.47 0.38 0.29 0.28 0.27 0.26 0.24 0.24 0.25 0.26 0.29

GEFSMW_prec_meanprecacc_138.txt.gz
Total_Precipitation_Accumulation
0.64 0.79 0.90 1.12 1.31 1.46 1.62 1.63 1.74 1.84 1.91 1.93 1.78 1.53 1.32 1.26 1.20 1.08 1.03 0.92 0.78 0.68 0.59 0.54 0.54 0.51 0.45 0.40 0.37 0.34 0.29 0.26 0.26 0.25 0.19 0.13 0.11 0.09 0.07 0.07 0.06 0.06 0.06
0.55 0.63 0.75 0.94 1.10 1.21 1.32 1.46 1.55 1.66 1.75 1.77 1.72 1.64 1.65 1.52 1.38 1.23 1.11 1.03 0.97 0.89 0.77 0.67 0.62 0.59 0.56 0.50 0.48 0.50 0.47 0.41 0.41 0.41 0.40 0.28 0.16 0.10 0.10 0.11 0.11 0.10 0.10
0.50 0.54 0.61 0.80 0.90 0.99 1.11 1.22 1.36 1.45 1.48 1.65 1.76 1.75 1.75 1.67 1.43 1.18 1.03 1.05 1.12 1.10 0.98 0.87 0.83 0.79 0.76 0.69 0.66 0.68 0.66 0.60 0.57 0.58 0.63 0.51 0.31 0.19 0.12 0.11 0.12 0.13 0.11
0.51 0.55 0.59 0.70 0.76 0.80 0.95 1.07 1.20 1.31 1.34 1.48 1.52 1.45 1.31 1.27 1.19 1.11 1.09 1.13 1.17 1.18 1.14 1.10 1.02 0.94 0.91 0.86 0.89 0.94 0.91 0.85 0.71 0.63 0.60 0.60 0.52 0.46 0.31 0.17 0.15 0.15 0.13
0.47 0.56 0.59 0.62 0.67 0.67 0.73 0.87 1.06 1.15 1.18 1.24 1.29 1.36 1.30 1.23 1.23 1.20 1.10 1.04 1.03 1.09 1.17 1.17 1.13 1.01 0.92 0.89 0.92 0.96 0.99 0.95 0.88 0.81 0.77 0.74 0.66 0.61 0.57 0.38 0.23 0.21 0.20
0.49 0.50 0.48 0.52 0.63 0.60 0.58 0.68 0.83 1.02 1.10 1.13 1.17 1.22 1.20 1.14 1.10 1.12 1.09 1.07 1.02 0.97 0.99 1.08 1.07 1.06 1.03 0.98 0.99 1.04 1.08 1.08 1.06 1.00 0.91 0.86 0.78 0.68 0.71 0.65 0.47 0.39 0.33
0.43 0.45 0.44 0.52 0.57 0.57 0.53 0.54 0.62 0.79 0.93 0.97 0.99 1.04 1.13 1.13 1.04 1.02 1.04 1.04 1.01 0.96 0.96 1.02 1.05 1.07 1.08 1.10 1.10 1.10 1.05 1.04 1.02 1.00 0.95 0.90 0.83 0.79 0.85 0.89 0.78 0.65 0.54
0.37 0.38 0.40 0.42 0.40 0.40 0.44 0.48 0.53 0.59 0.65 0.70 0.78 0.87 0.95 1.02 0.95 0.90 0.90 0.88 0.84 0.85 0.90 0.95 0.99 1.02 1.05 1.07 1.08 1.05 1.01 0.99 0.97 0.96 0.93 0.89 0.83 0.80 0.84 0.93 1.03 1.00 0.81
0.29 0.29 0.29 0.29 0.27 0.27 0.32 0.36 0.39 0.43 0.48 0.50 0.56 0.68 0.73 0.81 0.88 0.88 0.86 0.84 0.81 0.76 0.74 0.78 0.81 0.85 0.89 0.92 0.97 0.97 0.91 0.88 0.86 0.84 0.84 0.82 0.77 0.75 0.78 0.86 1.02 1.21 1.16
0.24 0.25 0.26 0.25 0.21 0.20 0.21 0.23 0.27 0.33 0.38 0.39 0.42 0.50 0.58 0.63 0.70 0.76 0.77 0.72 0.70 0.68 0.65 0.64 0.63 0.65 0.71 0.78 0.85 0.86 0.84 0.83 0.79 0.77 0.78 0.77 0.75 0.77 0.80 0.85 0.93 1.05 1.16
0.21 0.21 0.20 0.18 0.18 0.16 0.16 0.19 0.23 0.28 0.30 0.31 0.33 0.37 0.43 0.49 0.53 0.58 0.61 0.60 0.60 0.60 0.59 0.60 0.59 0.58 0.59 0.63 0.71 0.77 0.78 0.80 0.78 0.75 0.74 0.73 0.73 0.75 0.77 0.82 0.86 0.91 0.98
0.21 0.17 0.14 0.13 0.15 0.16 0.17 0.18 0.22 0.25 0.26 0.27 0.28 0.32 0.36 0.39 0.42 0.47 0.47 0.49 0.52 0.51 0.49 0.48 0.49 0.49 0.50 0.53 0.58 0.64 0.67 0.71 0.73 0.75 0.77 0.78 0.79 0.82 0.84 0.87 0.87 0.85 0.86
0.22 0.20 0.15 0.12 0.13 0.15 0.17 0.17 0.20 0.23 0.24 0.25 0.25 0.25 0.27 0.29 0.31 0.37 0.41 0.44 0.49 0.53 0.54 0.49 0.44 0.42 0.43 0.47 0.50 0.53 0.59 0.63 0.66 0.70 0.76 0.79 0.84 0.89 0.88 0.88 0.86 0.83 0.80
0.22 0.22 0.23 0.18 0.16 0.16 0.14 0.13 0.15 0.19 0.22 0.22 0.23 0.22 0.23 0.26 0.26 0.28 0.32 0.36 0.41 0.46 0.47 0.49 0.47 0.44 0.43 0.46 0.49 0.55 0.61 0.67 0.71 0.72 0.75 0.77 0.79 0.80 0.80 0.77 0.75 0.76 0.76
0.21 0.22 0.23 0.23 0.20 0.17 0.15 0.13 0.13 0.15 0.18 0.19 0.20 0.21 0.23 0.23 0.25 0.26 0.29 0.31 0.34 0.40 0.43 0.47 0.48 0.48 0.49 0.52 0.57 0.60 0.66 0.72 0.77 0.80 0.79 0.75 0.73 0.69 0.68 0.68 0.67 0.66 0.71
0.19 0.20 0.19 0.21 0.19 0.19 0.18 0.16 0.15 0.15 0.17 0.18 0.18 0.19 0.21 0.22 0.23 0.27 0.29 0.30 0.33 0.39 0.44 0.51 0.57 0.60 0.65 0.77 0.79 0.73 0.71 0.73 0.73 0.71 0.68 0.67 0.66 0.65 0.67 0.67 0.66 0.70 0.78
0.12 0.15 0.16 0.18 0.18 0.17 0.16 0.15 0.15 0.15 0.16 0.17 0.17 0.19 0.21 0.24 0.25 0.28 0.32 0.38 0.43 0.50 0.57 0.60 0.70 0.75 0.78 0.81 0.74 0.70 0.65 0.67 0.66 0.62 0.58 0.55 0.52 0.52 0.50 0.56 0.62 0.64 0.68
0.07 0.08 0.11 0.12 0.12 0.11 0.12 0.13 0.12 0.13 0.15 0.17 0.21 0.23 0.24 0.31 0.37 0.38 0.41 0.48 0.55 0.61 0.68 0.68 0.71 0.74 0.75 0.73 0.65 0.62 0.55 0.51 0.50 0.47 0.44 0.41 0.41 0.42 0.45 0.52 0.59 0.53 0.48
0.08 0.07 0.08 0.10 0.10 0.11 0.12 0.13 0.14 0.15 0.16 0.19 0.24 0.27 0.28 0.37 0.46 0.47 0.49 0.54 0.59 0.65 0.67 0.66 0.62 0.57 0.56 0.56 0.50 0.47 0.43 0.41 0.40 0.39 0.40 0.41 0.38 0.43 0.56 0.61 0.58 0.46 0.38
0.10 0.10 0.11 0.12 0.14 0.16 0.17 0.18 0.21 0.26 0.28 0.29 0.33 0.38 0.44 0.51 0.54 0.55 0.54 0.51 0.50 0.52 0.50 0.46 0.42 0.40 0.37 0.39 0.38 0.37 0.31 0.31 0.33 0.36 0.39 0.42 0.40 0.47 0.59 0.55 0.52 0.44 0.38
0.15 0.14 0.15 0.17 0.19 0.19 0.21 0.23 0.26 0.35 0.40 0.43 0.45 0.46 0.49 0.52 0.51 0.50 0.46 0.41 0.36 0.34 0.32 0.32 0.30 0.29 0.29 0.30 0.30 0.32 0.30 0.30 0.35 0.37 0.35 0.37 0.50 0.58 0.57 0.49 0.39 0.41 0.47
0.13 0.15 0.18 0.20 0.23 0.25 0.29 0.31 0.33 0.38 0.41 0.42 0.42 0.41 0.39 0.38 0.40 0.39 0.37 0.32 0.29 0.26 0.26 0.26 0.28 0.29 0.30 0.31 0.32 0.36 0.40 0.43 0.38 0.33 0.30 0.36 0.52 0.52 0.45 0.39 0.41 0.49 0.46
0.12 0.15 0.19 0.23 0.27 0.28 0.30 0.32 0.32 0.31 0.32 0.33 0.32 0.30 0.26 0.24 0.25 0.26 0.26 0.26 0.24 0.23 0.25 0.28 0.30 0.32 0.33 0.36 0.39 0.41 0.48 0.51 0.44 0.40 0.45 0.50 0.46 0.40 0.37 0.37 0.41 0.41 0.37
0.10 0.12 0.14 0.16 0.18 0.19 0.21 0.22 0.21 0.20 0.20 0.20 0.21 0.21 0.19 0.18 0.18 0.19 0.21 0.22 0.23 0.22 0.22 0.26 0.31 0.33 0.31 0.33 0.39 0.43 0.47 0.50 0.49 0.51 0.51 0.45 0.38 0.34 0.34 0.37 0.37 0.36 0.37
0.08 0.09 0.09 0.09 0.11 0.11 0.12 0.12 0.12 0.13 0.14 0.14 0.15 0.16 0.17 0.18 0.19 0.20 0.22 0.25 0.26 0.29 0.28 0.26 0.28 0.31 0.31 0.34 0.45 0.48 0.47 0.53 0.57 0.55 0.42 0.34 0.32 0.32 0.30 0.29 0.31 0.33 0.36
0.08 0.08 0.08 0.09 0.12 0.11 0.10 0.10 0.09 0.09 0.11 0.13 0.14 0.16 0.17 0.17 0.18 0.20 0.22 0.26 0.27 0.30 0.31 0.31 0.31 0.28 0.31 0.39 0.44 0.47 0.53 0.56 0.53 0.44 0.35 0.34 0.32 0.31 0.29 0.28 0.29 0.30 0.34

GEFSMW_prec_meanprecacc_144.txt.gz
Total_Precipitation_Accumulation
0.67 0.82 0.93 1.13 1.32 1.46 1.62 1.64 1.74 1.85 1.92 1.95 1.81 1.60 1.44 1.37 1.30 1.19 1.15 1.07 0.96 0.84 0.71 0.63 0.62 0.57 0.52 0.47 0.45 0.43 0.38 0.35 0.34 0.34 0.26 0.18 0.14 0.11 0.09 0.08 0.08 0.07 0.07
0.57 0.65 0.77 0.96 1.11 1.22 1.33 1.46 1.55 1.66 1.76 1.79 1.76 1.72 1.76 1.64 1.50 1.36 1.25 1.19 1.14 1.04 0.89 0.76 0.68 0.64 0.61 0.57 0.54 0.57 0.55 0.50 0.50 0.51 0.50 0.36 0.23 0.15 0.14 0.14 0.13 0.11 0.11
0.53 0.56 0.63 0.82 0.92 1.00 1.12 1.22 1.36 1.46 1.49 1.67 1.82 1.84 1.86 1.78 1.55 1.33 1.19 1.21 1.29 1.27 1.10 0.97 0.89 0.84 0.81 0.75 0.73 0.75 0.73 0.68 0.65 0.66 0.73 0.59 0.38 0.23 0.16 0.16 0.16 0.16 0.14
0.58 0.60 0.63 0.74 0.79 0.82 0.96 1.08 1.21 1.31 1.35 1.50 1.58 1.53 1.41 1.36 1.28 1.23 1.26 1.29 1.32 1.35 1.29 1.22 1.11 1.01 0.99 0.94 0.98 1.03 0.99 0.94 0.81 0.73 0.69 0.68 0.57 0.52 0.35 0.21 0.18 0.17 0.16
0.53 0.60 0.62 0.66 0.70 0.70 0.75 0.89 1.08 1.16 1.20 1.27 1.34 1.43 1.38 1.31 1.31 1.29 1.25 1.20 1.17 1.25 1.31 1.31 1.26 1.10 1.00 0.96 1.00 1.04 1.07 1.02 0.96 0.90 0.84 0.82 0.73 0.66 0.61 0.41 0.25 0.23 0.22
0.53 0.55 0.52 0.55 0.65 0.63 0.60 0.71 0.85 1.05 1.13 1.16 1.22 1.29 1.28 1.21 1.19 1.20 1.20 1.22 1.15 1.09 1.12 1.19 1.18 1.16 1.12 1.05 1.06 1.10 1.14 1.15 1.12 1.06 0.98 0.92 0.85 0.74 0.76 0.70 0.50 0.41 0.34
0.48 0.50 0.50 0.56 0.61 0.59 0.55 0.56 0.65 0.83 0.99 1.02 1.03 1.09 1.19 1.19 1.10 1.09 1.13 1.15 1.12 1.05 1.06 1.12 1.14 1.15 1.15 1.17 1.17 1.16 1.10 1.10 1.09 1.06 1.02 0.96 0.88 0.83 0.89 0.93 0.81 0.68 0.55
0.41 0.44 0.46 0.49 0.46 0.46 0.48 0.51 0.57 0.64 0.71 0.76 0.83 0.91 0.99 1.07 1.02 0.98 0.98 0.97 0.94 0.95 0.99 1.03 1.07 1.09 1.12 1.13 1.14 1.11 1.06 1.03 1.02 1.00 0.97 0.93 0.86 0.84 0.88 0.97 1.07 1.04 0.84
0.31 0.32 0.34 0.35 0.32 0.33 0.37 0.42 0.45 0.49 0.55 0.58 0.62 0.73 0.77 0.86 0.96 0.97 0.95 0.93 0.90 0.87 0.86 0.87 0.88 0.92 0.95 0.98 1.02 1.02 0.96 0.92 0.89 0.87 0.86 0.84 0.79 0.77 0.80 0.89 1.05 1.25 1.20
0.25 0.27 0.28 0.28 0.25 0.24 0.26 0.28 0.33 0.43 0.48 0.46 0.50 0.57 0.64 0.70 0.77 0.84 0.86 0.81 0.78 0.75 0.74 0.75 0.72 0.71 0.76 0.83 0.89 0.90 0.89 0.87 0.83 0.80 0.80 0.78 0.77 0.78 0.82 0.88 0.96 1.08 1.21
0.23 0.23 0.22 0.21 0.21 0.19 0.19 0.22 0.27 0.34 0.38 0.39 0.41 0.44 0.50 0.56 0.60 0.65 0.69 0.67 0.67 0.67 0.66 0.67 0.68 0.65 0.64 0.67 0.75 0.80 0.83 0.84 0.81 0.77 0.75 0.75 0.74 0.77 0.79 0.84 0.89 0.94 1.03
0.23 0.20 0.17 0.16 0.17 0.18 0.19 0.20 0.24 0.28 0.30 0.32 0.34 0.37 0.40 0.42 0.47 0.53 0.54 0.55 0.57 0.56 0.54 0.53 0.54 0.56 0.55 0.57 0.62 0.68 0.70 0.73 0.75 0.77 0.79 0.80 0.81 0.84 0.87 0.89 0.89 0.89 0.90
0.23 0.21 0.17 0.15 0.16 0.17 0.18 0.18 0.21 0.25 0.27 0.28 0.28 0.29 0.30 0.32 0.34 0.40 0.46 0.49 0.54 0.58 0.59 0.53 0.48 0.46 0.47 0.50 0.53 0.56 0.61 0.65 0.67 0.72 0.77 0.81 0.87 0.92 0.92 0.91 0.89 0.86 0.83
0.23 0.23 0.25 0.20 0.17 0.17 0.15 0.15 0.17 0.21 0.24 0.24 0.24 0.24 0.26 0.28 0.29 0.31 0.35 0.40 0.45 0.52 0.52 0.53 0.51 0.48 0.46 0.48 0.51 0.57 0.62 0.68 0.72 0.74 0.76 0.79 0.81 0.82 0.82 0.80 0.79 0.80 0.80
0.22 0.23 0.24 0.24 0.21 0.18 0.16 0.15 0.15 0.16 0.20 0.21 0.21 0.22 0.25 0.26 0.28 0.29 0.32 0.34 0.37 0.44 0.48 0.51 0.52 0.51 0.51 0.54 0.58 0.62 0.67 0.73 0.78 0.81 0.80 0.77 0.75 0.70 0.70 0.70 0.70 0.69 0.75
0.20 0.21 0.20 0.22 0.20 0.20 0.19 0.18 0.18 0.17 0.18 0.20 0.19 0.20 0.23 0.25 0.26 0.29 0.31 0.32 0.35 0.41 0.47 0.54 0.60 0.62 0.67 0.79 0.80 0.74 0.72 0.75 0.74 0.72 0.70 0.68 0.68 0.67 0.69 0.70 0.69 0.73 0.83
0.13 0.16 0.17 0.19 0.19 0.18 0.17 0.16 0.16 0.17 0.17 0.19 0.19 0.20 0.23 0.26 0.27 0.30 0.34 0.40 0.45 0.52 0.59 0.62 0.72 0.76 0.80 0.83 0.76 0.72 0.67 0.70 0.69 0.65 0.60 0.57 0.53 0.54 0.52 0.58 0.65 0.67 0.72
0.08 0.09 0.11 0.12 0.12 0.12 0.12 0.13 0.13 0.14 0.16 0.19 0.23 0.24 0.25 0.33 0.39 0.39 0.42 0.49 0.56 0.63 0.70 0.70 0.72 0.75 0.76 0.75 0.68 0.65 0.57 0.53 0.52 0.50 0.46 0.43 0.43 0.44 0.48 0.54 0.62 0.56 0.52
0.09 0.08 0.09 0.11 0.11 0.11 0.13 0.15 0.15 0.16 0.16 0.20 0.25 0.28 0.29 0.38 0.47 0.47 0.49 0.54 0.60 0.66 0.68 0.67 0.63 0.58 0.57 0.57 0.51 0.49 0.45 0.43 0.41 0.40 0.41 0.44 0.40 0.46 0.60 0.63 0.61 0.50 0.41
0.11 0.11 0.11 0.12 0.14 0.16 0.18 0.20 0.22 0.27 0.29 0.30 0.34 0.39 0.44 0.51 0.55 0.55 0.54 0.51 0.51 0.52 0.51 0.47 0.43 0.40 0.38 0.39 0.39 0.38 0.34 0.34 0.35 0.38 0.40 0.44 0.43 0.51 0.63 0.58 0.55 0.47 0.41
0.15 0.15 0.15 0.18 0.20 0.20 0.21 0.24 0.27 0.36 0.41 0.43 0.46 0.47 0.50 0.52 0.52 0.50 0.47 0.41 0.36 0.34 0.33 0.32 0.31 0.30 0.30 0.31 0.32 0.33 0.32 0.31 0.36 0.39 0.37 0.39 0.53 0.61 0.60 0.53 0.43 0.45 0.51
0.13 0.16 0.18 0.21 0.23 0.26 0.30 0.31 0.33 0.39 0.42 0.42 0.43 0.42 0.40 0.39 0.40 0.39 0.37 0.32 0.29 0.27 0.26 0.27 0.30 0.31 0.32 0.33 0.34 0.38 0.42 0.45 0.40 0.35 0.32 0.38 0.54 0.54 0.48 0.42 0.45 0.53 0.50
0.12 0.15 0.20 0.24 0.27 0.28 0.31 0.32 0.32 0.31 0.32 0.33 0.33 0.31 0.27 0.25 0.26 0.26 0.27 0.26 0.24 0.23 0.25 0.29 0.31 0.33 0.34 0.38 0.41 0.42 0.50 0.53 0.45 0.41 0.47 0.51 0.47 0.41 0.38 0.39 0.43 0.43 0.40
0.10 0.12 0.14 0.16 0.19 0.20 0.22 0.23 0.21 0.21 0.20 0.20 0.21 0.22 0.19 0.18 0.19 0.19 0.21 0.22 0.23 0.22 0.23 0.27 0.32 0.34 0.32 0.34 0.40 0.44 0.47 0.50 0.50 0.51 0.52 0.45 0.38 0.34 0.35 0.38 0.38 0.37 0.39
0.09 0.09 0.09 0.09 0.11 0.12 0.12 0.13 0.12 0.13 0.14 0.14 0.15 0.16 0.18 0.18 0.19 0.21 0.23 0.25 0.26 0.29 0.28 0.26 0.28 0.32 0.32 0.35 0.46 0.49 0.48 0.54 0.59 0.57 0.43 0.34 0.32 0.32 0.31 0.30 0.31 0.34 0.38
0.08 0.08 0.08 0.09 0.12 0.12 0.10 0.11 0.10 0.10 0.12 0.14 0.15 0.16 0.17 0.18 0.19 0.20 0.23 0.26 0.28 0.30 0.31 0.32 0.31 0.28 0.32 0.40 0.45 0.48 0.54 0.58 0.56 0.47 0.38 0.36 0.34 0.32 0.30 0.29 0.30 0.31 0.35

GEFSMW_prec_meanprecacc_150.txt.gz
Total_Precipitation_Accumulation
0.67 0.82 0.94 1.15 1.34 1.48 1.64 1.65 1.75 1.86 1.93 1.95 1.81 1.61 1.45 1.38 1.32 1.22 1.19 1.13 1.04 0.95 0.84 0.74 0.69 0.64 0.58 0.53 0.50 0.49 0.46 0.42 0.41 0.40 0.32 0.23 0.19 0.15 0.12 0.11 0.09 0.08 0.07
0.57 0.65 0.78 0.98 1.14 1.26 1.35 1.48 1.56 1.67 1.76 1.79 1.76 1.73 1.76 1.65 1.51 1.38 1.29 1.24 1.21 1.13 1.01 0.91 0.84 0.76 0.69 0.63 0.60 0.64 0.61 0.56 0.55 0.57 0.56 0.42 0.29 0.20 0.18 0.18 0.16 0.13 0.13
0.53 0.56 0.63 0.83 0.94 1.03 1.14 1.24 1.38 1.47 1.50 1.67 1.82 1.85 1.87 1.79 1.57 1.36 1.22 1.26 1.35 1.34 1.20 1.09 1.06 1.00 0.93 0.83 0.79 0.80 0.79 0.73 0.70 0.72 0.80 0.67 0.45 0.30 0.22 0.21 0.21 0.20 0.18
0.58 0.60 0.63 0.74 0.80 0.83 0.97 1.09 1.22 1.33 1.36 1.51 1.58 1.53 1.42 1.37 1.30 1.26 1.28 1.33 1.38 1.42 1.37 1.32 1.24 1.18 1.15 1.06 1.06 1.09 1.05 0.99 0.87 0.79 0.75 0.74 0.63 0.58 0.41 0.25 0.23 0.23 0.21
0.53 0.61 0.63 0.66 0.71 0.71 0.76 0.90 1.09 1.17 1.20 1.28 1.35 1.44 1.39 1.32 1.33 1.32 1.29 1.24 1.22 1.31 1.37 1.38 1.35 1.22 1.13 1.08 1.10 1.11 1.14 1.09 1.03 0.97 0.92 0.89 0.78 0.71 0.67 0.46 0.29 0.27 0.26
0.53 0.56 0.52 0.55 0.66 0.64 0.61 0.71 0.86 1.05 1.13 1.17 1.23 1.30 1.29 1.22 1.20 1.24 1.25 1.26 1.19 1.14 1.16 1.23 1.23 1.24 1.20 1.15 1.16 1.21 1.24 1.24 1.20 1.14 1.05 0.99 0.91 0.79 0.80 0.75 0.54 0.45 0.38
0.49 0.52 0.52 0.58 0.62 0.60 0.56 0.57 0.66 0.84 1.00 1.03 1.04 1.10 1.20 1.20 1.12 1.13 1.18 1.20 1.16 1.09 1.09 1.16 1.18 1.20 1.21 1.22 1.23 1.23 1.19 1.19 1.17 1.14 1.09 1.01 0.93 0.87 0.92 0.97 0.85 0.71 0.58
0.43 0.46 0.49 0.50 0.48 0.47 0.51 0.54 0.59 0.65 0.72 0.77 0.84 0.92 1.00 1.08 1.04 1.00 1.03 1.02 0.98 1.00 1.03 1.08 1.12 1.15 1.18 1.19 1.19 1.17 1.14 1.11 1.09 1.08 1.04 0.99 0.91 0.88 0.91 0.99 1.09 1.06 0.86
0.32 0.34 0.36 0.37 0.34 0.34 0.39 0.44 0.46 0.50 0.57 0.59 0.64 0.74 0.79 0.88 0.97 0.98 0.98 0.97 0.95 0.91 0.91 0.92 0.94 0.98 1.02 1.03 1.07 1.08 1.03 0.99 0.96 0.93 0.92 0.89 0.83 0.80 0.82 0.91 1.07 1.27 1.22
0.26 0.28 0.31 0.30 0.27 0.26 0.28 0.29 0.35 0.45 0.51 0.48 0.51 0.59 0.67 0.72 0.79 0.86 0.89 0.85 0.83 0.80 0.78 0.79 0.76 0.76 0.81 0.87 0.93 0.94 0.94 0.94 0.89 0.86 0.86 0.83 0.80 0.81 0.84 0.90 0.97 1.10 1.22
0.23 0.24 0.23 0.22 0.23 0.21 0.21 0.24 0.29 0.36 0.41 0.42 0.44 0.47 0.52 0.57 0.62 0.66 0.71 0.69 0.70 0.70 0.69 0.71 0.72 0.70 0.67 0.71 0.78 0.83 0.85 0.87 0.84 0.80 0.79 0.77 0.77 0.79 0.81 0.86 0.91 0.96 1.04
0.24 0.21 0.18 0.17 0.18 0.19 0.20 0.22 0.26 0.31 0.34 0.36 0.39 0.41 0.43 0.45 0.49 0.55 0.56 0.56 0.58 0.58 0.57 0.56 0.58 0.59 0.59 0.60 0.65 0.71 0.74 0.76 0.78 0.80 0.82 0.83 0.83 0.87 0.89 0.91 0.91 0.90 0.91
0.24 0.22 0.17 0.15 0.17 0.18 0.18 0.19 0.23 0.28 0.30 0.32 0.33 0.33 0.34 0.36 0.38 0.43 0.47 0.50 0.56 0.60 0.61 0.56 0.51 0.49 0.50 0.53 0.57 0.61 0.67 0.70 0.72 0.76 0.81 0.85 0.89 0.94 0.93 0.92 0.91 0.88 0.85
0.23 0.24 0.25 0.20 0.18 0.18 0.16 0.15 0.18 0.23 0.26 0.27 0.27 0.26 0.29 0.31 0.32 0.33 0.37 0.42 0.47 0.54 0.54 0.55 0.53 0.51 0.49 0.51 0.55 0.61 0.67 0.74 0.78 0.79 0.81 0.83 0.84 0.84 0.84 0.81 0.80 0.81 0.82
0.22 0.23 0.24 0.24 0.21 0.19 0.17 0.16 0.16 0.18 0.22 0.24 0.24 0.24 0.27 0.29 0.31 0.31 0.33 0.36 0.39 0.47 0.50 0.52 0.54 0.54 0.54 0.57 0.62 0.65 0.70 0.76 0.82 0.85 0.84 0.80 0.78 0.72 0.71 0.72 0.72 0.71 0.77
0.20 0.22 0.21 0.23 0.21 0.21 0.20 0.19 0.19 0.18 0.20 0.22 0.21 0.22 0.25 0.26 0.28 0.31 0.33 0.33 0.37 0.44 0.50 0.56 0.62 0.66 0.70 0.83 0.85 0.78 0.76 0.77 0.77 0.75 0.72 0.71 0.70 0.68 0.71 0.72 0.71 0.76 0.85
0.13 0.16 0.18 0.20 0.19 0.19 0.18 0.17 0.17 0.17 0.18 0.20 0.20 0.21 0.24 0.27 0.28 0.32 0.36 0.41 0.47 0.55 0.62 0.66 0.76 0.80 0.84 0.88 0.80 0.76 0.71 0.73 0.71 0.67 0.62 0.59 0.55 0.55 0.53 0.60 0.67 0.69 0.74
0.08 0.09 0.12 0.13 0.13 0.13 0.13 0.14 0.14 0.15 0.16 0.20 0.24 0.26 0.26 0.35 0.41 0.40 0.43 0.51 0.59 0.66 0.72 0.73 0.76 0.79 0.80 0.78 0.71 0.68 0.60 0.56 0.54 0.51 0.48 0.45 0.44 0.45 0.49 0.55 0.63 0.57 0.53
0.09 0.08 0.09 0.11 0.11 0.12 0.13 0.15 0.16 0.16 0.17 0.20 0.26 0.29 0.31 0.40 0.49 0.49 0.51 0.56 0.61 0.68 0.70 0.69 0.66 0.61 0.59 0.59 0.53 0.51 0.46 0.44 0.42 0.41 0.42 0.44 0.41 0.46 0.60 0.64 0.61 0.50 0.42
0.11 0.11 0.12 0.12 0.15 0.17 0.18 0.21 0.23 0.27 0.29 0.30 0.35 0.40 0.46 0.53 0.57 0.56 0.55 0.53 0.52 0.54 0.52 0.48 0.44 0.42 0.40 0.41 0.40 0.39 0.34 0.35 0.36 0.38 0.41 0.45 0.44 0.52 0.64 0.59 0.55 0.48 0.41
0.15 0.15 0.16 0.18 0.20 0.20 0.22 0.24 0.27 0.37 0.42 0.44 0.47 0.48 0.51 0.54 0.53 0.51 0.48 0.43 0.37 0.35 0.34 0.33 0.31 0.30 0.31 0.33 0.33 0.34 0.32 0.32 0.37 0.39 0.37 0.39 0.54 0.62 0.61 0.53 0.44 0.46 0.51
0.13 0.16 0.18 0.21 0.23 0.26 0.31 0.32 0.34 0.39 0.42 0.43 0.43 0.42 0.40 0.40 0.41 0.40 0.39 0.34 0.30 0.27 0.27 0.28 0.30 0.31 0.32 0.33 0.35 0.39 0.43 0.45 0.41 0.35 0.33 0.39 0.55 0.55 0.49 0.43 0.46 0.54 0.51
0.12 0.15 0.20 0.24 0.27 0.29 0.31 0.33 0.33 0.32 0.33 0.34 0.33 0.31 0.27 0.26 0.26 0.27 0.27 0.27 0.25 0.24 0.26 0.29 0.31 0.33 0.35 0.38 0.41 0.43 0.50 0.53 0.46 0.42 0.47 0.52 0.49 0.42 0.40 0.40 0.44 0.44 0.42
0.10 0.12 0.14 0.16 0.19 0.21 0.22 0.23 0.22 0.21 0.21 0.20 0.22 0.22 0.20 0.19 0.19 0.20 0.22 0.23 0.23 0.22 0.23 0.27 0.32 0.34 0.32 0.35 0.40 0.44 0.48 0.51 0.50 0.52 0.53 0.46 0.39 0.35 0.36 0.39 0.40 0.38 0.40
0.09 0.09 0.09 0.10 0.11 0.12 0.13 0.14 0.13 0.14 0.15 0.15 0.16 0.17 0.18 0.18 0.19 0.21 0.23 0.26 0.26 0.29 0.29 0.26 0.29 0.32 0.32 0.35 0.47 0.50 0.48 0.55 0.59 0.57 0.43 0.35 0.33 0.34 0.32 0.31 0.33 0.35 0.39
0.08 0.08 0.08 0.09 0.12 0.12 0.11 0.11 0.11 0.11 0.13 0.14 0.15 0.16 0.17 0.18 0.19 0.21 0.23 0.27 0.28 0.30 0.32 0.32 0.31 0.29 0.33 0.40 0.45 0.49 0.55 0.58 0.57 0.48 0.38 0.37 0.34 0.33 0.31 0.30 0.31 0.32 0.35

GEFSMW_prec_meanprecacc_156.txt.gz
Total_Precipitation_Accumulation
0.67 0.82 0.94 1.15 1.35 1.49 1.65 1.66 1.76 1.86 1.93 1.96 1.82 1.61 1.46 1.40 1.33 1.23 1.21 1.15 1.07 0.98 0.88 0.80 0.76 0.70 0.64 0.58 0.55 0.54 0.50 0.46 0.45 0.45 0.35 0.26 0.22 0.18 0.16 0.16 0.15 0.13 0.11
0.57 0.66 0.79 0.98 1.15 1.26 1.36 1.49 1.57 1.67 1.77 1.80 1.76 1.73 1.77 1.65 1.52 1.39 1.30 1.25 1.23 1.16 1.05 0.97 0.91 0.84 0.78 0.71 0.67 0.69 0.65 0.60 0.60 0.62 0.61 0.47 0.32 0.22 0.20 0.20 0.19 0.18 0.17
0.53 0.56 0.64 0.83 0.95 1.04 1.14 1.24 1.38 1.47 1.50 1.67 1.82 1.85 1.87 1.79 1.57 1.36 1.22 1.27 1.37 1.38 1.25 1.15 1.12 1.06 1.02 0.94 0.88 0.86 0.84 0.78 0.75 0.78 0.87 0.73 0.50 0.33 0.25 0.23 0.24 0.24 0.24
0.58 0.61 0.64 0.75 0.80 0.85 0.99 1.10 1.22 1.33 1.36 1.51 1.58 1.54 1.42 1.37 1.30 1.26 1.28 1.34 1.39 1.44 1.42 1.38 1.31 1.25 1.22 1.15 1.17 1.19 1.12 1.05 0.91 0.84 0.81 0.80 0.69 0.63 0.46 0.30 0.27 0.26 0.24
0.54 0.61 0.63 0.67 0.71 0.71 0.77 0.91 1.09 1.17 1.21 1.28 1.36 1.44 1.39 1.33 1.33 1.32 1.29 1.24 1.23 1.32 1.40 1.43 1.41 1.28 1.19 1.15 1.17 1.19 1.22 1.16 1.09 1.01 0.96 0.93 0.84 0.76 0.71 0.49 0.32 0.30 0.28
0.54 0.56 0.53 0.56 0.66 0.64 0.61 0.72 0.86 1.06 1.14 1.18 1.24 1.31 1.29 1.23 1.21 1.25 1.26 1.27 1.20 1.15 1.18 1.27 1.27 1.28 1.25 1.19 1.20 1.27 1.31 1.30 1.26 1.18 1.09 1.03 0.96 0.84 0.85 0.78 0.56 0.47 0.41
0.50 0.52 0.52 0.58 0.62 0.61 0.57 0.58 0.67 0.85 1.00 1.03 1.04 1.10 1.20 1.20 1.13 1.14 1.19 1.21 1.17 1.10 1.11 1.18 1.20 1.22 1.23 1.25 1.26 1.27 1.23 1.23 1.22 1.18 1.13 1.06 0.97 0.91 0.97 1.02 0.89 0.75 0.61
0.43 0.46 0.49 0.51 0.49 0.49 0.52 0.55 0.59 0.66 0.73 0.78 0.84 0.92 1.01 1.08 1.05 1.01 1.04 1.03 0.99 1.01 1.05 1.10 1.13 1.16 1.19 1.21 1.22 1.20 1.16 1.14 1.12 1.10 1.07 1.02 0.95 0.92 0.96 1.04 1.14 1.10 0.89
0.32 0.34 0.36 0.37 0.34 0.35 0.41 0.46 0.48 0.51 0.57 0.60 0.64 0.75 0.79 0.89 0.98 0.99 0.99 1.02 0.98 0.94 0.93 0.93 0.95 0.99 1.02 1.04 1.09 1.10 1.05 1.02 0.99 0.97 0.96 0.93 0.87 0.85 0.88 0.96 1.12 1.32 1.26
0.26 0.28 0.31 0.30 0.27 0.27 0.28 0.30 0.36 0.47 0.52 0.49 0.52 0.60 0.67 0.73 0.80 0.87 0.90 0.90 0.87 0.82 0.80 0.81 0.78 0.79 0.83 0.89 0.95 0.96 0.96 0.96 0.92 0.90 0.90 0.87 0.84 0.85 0.88 0.95 1.03 1.15 1.26
0.23 0.24 0.23 0.23 0.23 0.22 0.22 0.25 0.30 0.37 0.42 0.43 0.45 0.48 0.53 0.58 0.62 0.67 0.71 0.71 0.72 0.72 0.71 0.72 0.74 0.72 0.71 0.74 0.81 0.86 0.89 0.90 0.88 0.84 0.82 0.81 0.80 0.83 0.84 0.90 0.95 1.00 1.08
0.24 0.21 0.18 0.17 0.19 0.19 0.21 0.22 0.27 0.32 0.35 0.37 0.40 0.43 0.45 0.46 0.50 0.56 0.57 0.57 0.59 0.60 0.58 0.57 0.59 0.61 0.61 0.62 0.67 0.73 0.76 0.78 0.81 0.83 0.85 0.85 0.86 0.89 0.92 0.95 0.95 0.94 0.94
0.25 0.23 0.19 0.16 0.17 0.19 0.19 0.19 0.24 0.28 0.31 0.33 0.34 0.35 0.37 0.38 0.40 0.45 0.48 0.51 0.57 0.61 0.62 0.57 0.53 0.51 0.51 0.55 0.58 0.62 0.68 0.72 0.74 0.77 0.83 0.87 0.92 0.97 0.96 0.96 0.94 0.90 0.87
0.26 0.26 0.27 0.22 0.19 0.19 0.17 0.16 0.19 0.23 0.27 0.28 0.29 0.29 0.32 0.35 0.35 0.36 0.38 0.43 0.48 0.54 0.55 0.56 0.55 0.53 0.50 0.53 0.57 0.64 0.69 0.75 0.79 0.80 0.82 0.85 0.87 0.87 0.87 0.84 0.82 0.83 0.84
0.23 0.24 0.25 0.25 0.22 0.19 0.18 0.16 0.16 0.19 0.22 0.25 0.25 0.27 0.30 0.32 0.34 0.35 0.36 0.38 0.40 0.48 0.52 0.53 0.55 0.56 0.55 0.58 0.63 0.67 0.73 0.78 0.84 0.87 0.86 0.83 0.80 0.75 0.73 0.74 0.73 0.73 0.79
0.20 0.22 0.21 0.23 0.21 0.21 0.21 0.20 0.19 0.19 0.21 0.23 0.23 0.24 0.27 0.29 0.32 0.35 0.36 0.36 0.38 0.45 0.51 0.57 0.64 0.68 0.72 0.85 0.86 0.80 0.78 0.80 0.79 0.77 0.74 0.72 0.72 0.70 0.72 0.73 0.72 0.77 0.86
0.13 0.16 0.18 0.20 0.19 0.19 0.18 0.17 0.18 0.18 0.19 0.21 0.22 0.23 0.26 0.30 0.32 0.35 0.39 0.44 0.49 0.56 0.63 0.67 0.78 0.82 0.86 0.90 0.82 0.79 0.73 0.75 0.74 0.69 0.64 0.60 0.56 0.57 0.54 0.61 0.68 0.70 0.75
0.08 0.09 0.12 0.13 0.13 0.13 0.13 0.15 0.14 0.15 0.17 0.21 0.26 0.27 0.28 0.37 0.43 0.43 0.46 0.54 0.61 0.68 0.74 0.74 0.77 0.80 0.81 0.80 0.73 0.71 0.61 0.57 0.56 0.53 0.50 0.46 0.45 0.46 0.50 0.56 0.64 0.57 0.54
0.09 0.08 0.09 0.11 0.12 0.12 0.13 0.16 0.16 0.17 0.18 0.21 0.28 0.32 0.33 0.42 0.52 0.51 0.53 0.58 0.63 0.70 0.72 0.71 0.67 0.62 0.60 0.61 0.55 0.53 0.48 0.46 0.43 0.42 0.43 0.45 0.42 0.48 0.61 0.64 0.62 0.50 0.42
0.11 0.11 0.12 0.13 0.15 0.17 0.18 0.21 0.23 0.27 0.30 0.31 0.36 0.42 0.48 0.56 0.59 0.58 0.57 0.54 0.54 0.56 0.54 0.50 0.46 0.43 0.41 0.42 0.42 0.41 0.36 0.37 0.37 0.39 0.42 0.46 0.45 0.53 0.64 0.59 0.56 0.48 0.41
0.15 0.15 0.16 0.18 0.20 0.20 0.22 0.25 0.28 0.37 0.42 0.44 0.47 0.49 0.53 0.56 0.55 0.53 0.50 0.44 0.39 0.38 0.37 0.35 0.34 0.33 0.33 0.34 0.34 0.36 0.34 0.33 0.38 0.40 0.38 0.41 0.55 0.62 0.61 0.54 0.44 0.47 0.52
0.13 0.16 0.18 0.21 0.23 0.26 0.31 0.32 0.35 0.40 0.43 0.43 0.44 0.43 0.42 0.42 0.43 0.42 0.40 0.35 0.32 0.30 0.29 0.30 0.32 0.33 0.34 0.35 0.36 0.40 0.44 0.47 0.42 0.36 0.33 0.40 0.57 0.57 0.50 0.44 0.46 0.55 0.51
0.12 0.15 0.20 0.24 0.27 0.29 0.31 0.33 0.33 0.33 0.34 0.34 0.34 0.31 0.29 0.28 0.28 0.28 0.29 0.29 0.27 0.25 0.28 0.31 0.33 0.35 0.36 0.40 0.43 0.44 0.52 0.55 0.47 0.43 0.49 0.53 0.50 0.43 0.40 0.41 0.44 0.45 0.42
0.10 0.12 0.14 0.16 0.19 0.21 0.22 0.24 0.23 0.22 0.22 0.21 0.22 0.22 0.20 0.20 0.21 0.21 0.23 0.24 0.24 0.24 0.24 0.28 0.34 0.35 0.33 0.35 0.41 0.45 0.49 0.52 0.51 0.52 0.54 0.47 0.40 0.36 0.36 0.39 0.40 0.39 0.40
0.09 0.09 0.09 0.10 0.11 0.12 0.13 0.14 0.14 0.15 0.16 0.16 0.16 0.17 0.19 0.19 0.21 0.22 0.24 0.27 0.27 0.30 0.30 0.28 0.30 0.33 0.33 0.36 0.47 0.50 0.49 0.55 0.60 0.57 0.43 0.35 0.33 0.34 0.33 0.32 0.33 0.36 0.40
0.08 0.08 0.08 0.09 0.12 0.12 0.11 0.11 0.11 0.12 0.14 0.16 0.17 0.18 0.19 0.19 0.20 0.22 0.24 0.28 0.29 0.31 0.32 0.33 0.32 0.30 0.33 0.41 0.46 0.50 0.55 0.59 0.58 0.48 0.39 0.37 0.34 0.33 0.32 0.30 0.32 0.32 0.36

GEFSMW_prec_meanprecacc_162.txt.gz
Total_Precipitation_Accumulation
0.67 0.82 0.94 1.15 1.35 1.50 1.65 1.66 1.77 1.87 1.95 1.99 1.85 1.64 1.48 1.42 1.36 1.27 1.23 1.17 1.10 1.03 0.94 0.86 0.83 0.81 0.74 0.69 0.66 0.61 0.54 0.51 0.52 0.51 0.41 0.32 0.27 0.23 0.21 0.22 0.19 0.17 0.16
0.57 0.66 0.79 0.99 1.15 1.27 1.37 1.49 1.57 1.69 1.78 1.81 1.78 1.76 1.80 1.67 1.53 1.41 1.31 1.27 1.24 1.18 1.08 1.01 0.96 0.91 0.85 0.78 0.76 0.77 0.70 0.64 0.65 0.67 0.67 0.53 0.39 0.29 0.24 0.23 0.23 0.21 0.21
0.53 0.57 0.64 0.84 0.95 1.04 1.15 1.25 1.39 1.48 1.51 1.68 1.83 1.87 1.89 1.80 1.58 1.37 1.23 1.28 1.37 1.39 1.26 1.16 1.15 1.12 1.08 0.99 0.94 0.92 0.88 0.82 0.79 0.81 0.91 0.78 0.55 0.38 0.29 0.27 0.27 0.27 0.26
0.59 0.61 0.64 0.76 0.81 0.85 0.99 1.10 1.23 1.34 1.37 1.52 1.60 1.55 1.43 1.38 1.30 1.26 1.29 1.34 1.40 1.45 1.43 1.39 1.33 1.28 1.26 1.19 1.23 1.26 1.18 1.09 0.95 0.87 0.84 0.84 0.73 0.68 0.50 0.34 0.31 0.29 0.28
0.54 0.61 0.63 0.68 0.72 0.71 0.77 0.91 1.10 1.17 1.21 1.29 1.36 1.45 1.40 1.33 1.33 1.33 1.29 1.25 1.23 1.32 1.41 1.44 1.43 1.30 1.22 1.18 1.21 1.25 1.29 1.22 1.13 1.05 0.99 0.97 0.87 0.80 0.77 0.56 0.38 0.36 0.33
0.54 0.56 0.53 0.56 0.67 0.65 0.61 0.72 0.87 1.07 1.15 1.18 1.24 1.31 1.30 1.23 1.21 1.26 1.26 1.27 1.20 1.16 1.19 1.27 1.29 1.31 1.27 1.22 1.23 1.31 1.37 1.36 1.30 1.23 1.13 1.06 0.99 0.87 0.89 0.83 0.62 0.54 0.48
0.50 0.52 0.53 0.59 0.63 0.62 0.57 0.58 0.67 0.86 1.01 1.04 1.05 1.10 1.21 1.21 1.13 1.15 1.20 1.21 1.17 1.11 1.12 1.19 1.21 1.24 1.25 1.28 1.29 1.30 1.26 1.28 1.27 1.22 1.17 1.09 0.99 0.93 1.00 1.05 0.92 0.78 0.64
0.43 0.46 0.49 0.52 0.50 0.50 0.53 0.55 0.60 0.66 0.73 0.78 0.85 0.93 1.01 1.09 1.05 1.01 1.04 1.03 1.00 1.02 1.05 1.10 1.14 1.16 1.20 1.22 1.24 1.22 1.19 1.17 1.15 1.13 1.10 1.04 0.96 0.93 0.97 1.06 1.16 1.12 0.91
0.33 0.34 0.36 0.37 0.34 0.35 0.42 0.47 0.49 0.52 0.58 0.60 0.64 0.75 0.80 0.89 0.98 1.00 1.00 1.02 0.99 0.94 0.93 0.94 0.95 1.00 1.03 1.05 1.11 1.11 1.06 1.03 1.02 0.99 0.98 0.95 0.89 0.86 0.89 0.97 1.14 1.34 1.28
0.26 0.28 0.31 0.30 0.27 0.27 0.28 0.31 0.37 0.47 0.52 0.50 0.53 0.60 0.68 0.73 0.80 0.87 0.91 0.90 0.87 0.82 0.81 0.81 0.79 0.80 0.84 0.90 0.96 0.97 0.97 0.98 0.94 0.92 0.92 0.90 0.87 0.87 0.90 0.96 1.04 1.17 1.29
0.23 0.24 0.23 0.23 0.23 0.22 0.22 0.25 0.30 0.38 0.42 0.43 0.45 0.48 0.53 0.58 0.63 0.67 0.72 0.71 0.72 0.73 0.72 0.73 0.74 0.73 0.72 0.76 0.83 0.89 0.91 0.93 0.91 0.87 0.86 0.85 0.84 0.86 0.87 0.91 0.96 1.01 1.10
0.24 0.21 0.18 0.17 0.19 0.20 0.21 0.22 0.27 0.32 0.35 0.37 0.40 0.43 0.45 0.46 0.50 0.56 0.57 0.57 0.60 0.60 0.59 0.58 0.60 0.62 0.62 0.63 0.69 0.75 0.78 0.81 0.83 0.86 0.88 0.88 0.89 0.94 0.96 0.98 0.98 0.96 0.96
0.25 0.23 0.19 0.16 0.18 0.19 0.20 0.20 0.24 0.29 0.31 0.33 0.35 0.35 0.37 0.39 0.40 0.45 0.49 0.51 0.57 0.61 0.63 0.58 0.54 0.52 0.52 0.56 0.60 0.64 0.70 0.74 0.76 0.79 0.85 0.89 0.94 0.99 1.00 0.99 0.97 0.93 0.89
0.26 0.26 0.27 0.22 0.19 0.19 0.17 0.16 0.19 0.24 0.27 0.28 0.29 0.29 0.33 0.35 0.35 0.36 0.39 0.44 0.49 0.55 0.56 0.57 0.56 0.54 0.52 0.54 0.59 0.65 0.70 0.77 0.80 0.82 0.84 0.87 0.88 0.88 0.88 0.86 0.84 0.85 0.86
0.24 0.24 0.26 0.26 0.23 0.20 0.18 0.17 0.17 0.20 0.23 0.26 0.26 0.27 0.31 0.33 0.35 0.36 0.37 0.39 0.41 0.49 0.52 0.54 0.56 0.57 0.57 0.59 0.64 0.68 0.74 0.79 0.85 0.88 0.87 0.84 0.81 0.76 0.75 0.75 0.74 0.74 0.80
0.20 0.22 0.21 0.23 0.21 0.22 0.21 0.20 0.20 0.19 0.21 0.24 0.23 0.24 0.27 0.30 0.32 0.35 0.37 0.37 0.40 0.46 0.52 0.59 0.65 0.68 0.73 0.86 0.88 0.81 0.79 0.81 0.80 0.78 0.75 0.73 0.73 0.71 0.73 0.74 0.73 0.77 0.87
0.13 0.16 0.18 0.20 0.20 0.19 0.19 0.17 0.18 0.18 0.19 0.22 0.22 0.24 0.27 0.31 0.32 0.36 0.40 0.46 0.51 0.58 0.64 0.69 0.79 0.83 0.87 0.91 0.84 0.80 0.74 0.76 0.75 0.70 0.65 0.61 0.57 0.58 0.55 0.62 0.69 0.71 0.76
0.08 0.09 0.12 0.13 0.13 0.13 0.14 0.15 0.14 0.15 0.17 0.21 0.26 0.28 0.29 0.37 0.44 0.44 0.47 0.56 0.63 0.70 0.76 0.76 0.79 0.82 0.83 0.82 0.75 0.72 0.63 0.58 0.57 0.55 0.52 0.48 0.47 0.47 0.50 0.57 0.64 0.58 0.54
0.09 0.08 0.09 0.11 0.12 0.12 0.14 0.16 0.16 0.17 0.18 0.21 0.28 0.32 0.33 0.43 0.53 0.53 0.54 0.59 0.65 0.72 0.74 0.73 0.70 0.64 0.63 0.63 0.57 0.54 0.49 0.47 0.44 0.44 0.45 0.47 0.44 0.49 0.63 0.65 0.63 0.51 0.43
0.11 0.11 0.12 0.13 0.15 0.17 0.19 0.21 0.23 0.28 0.30 0.31 0.36 0.42 0.49 0.56 0.61 0.60 0.59 0.56 0.56 0.58 0.57 0.53 0.49 0.46 0.43 0.44 0.43 0.42 0.37 0.38 0.38 0.41 0.44 0.48 0.47 0.55 0.66 0.60 0.57 0.49 0.42
0.15 0.15 0.16 0.18 0.20 0.20 0.22 0.25 0.28 0.37 0.42 0.44 0.48 0.50 0.54 0.57 0.57 0.55 0.52 0.46 0.42 0.41 0.40 0.38 0.37 0.36 0.35 0.36 0.36 0.37 0.35 0.35 0.39 0.41 0.40 0.42 0.57 0.64 0.63 0.55 0.46 0.48 0.53
0.14 0.16 0.18 0.21 0.23 0.26 0.31 0.32 0.35 0.40 0.43 0.43 0.44 0.43 0.43 0.43 0.45 0.44 0.42 0.38 0.35 0.33 0.33 0.33 0.36 0.37 0.37 0.37 0.38 0.42 0.45 0.48 0.44 0.39 0.35 0.41 0.58 0.58 0.51 0.45 0.48 0.56 0.52
0.12 0.15 0.20 0.24 0.27 0.29 0.31 0.33 0.33 0.33 0.34 0.34 0.34 0.32 0.29 0.29 0.30 0.30 0.32 0.31 0.30 0.29 0.31 0.34 0.36 0.38 0.39 0.42 0.45 0.47 0.54 0.56 0.49 0.46 0.52 0.56 0.51 0.44 0.41 0.42 0.46 0.46 0.43
0.10 0.12 0.14 0.16 0.19 0.21 0.22 0.24 0.23 0.23 0.22 0.22 0.23 0.23 0.21 0.21 0.22 0.23 0.26 0.27 0.27 0.27 0.27 0.31 0.36 0.38 0.36 0.38 0.43 0.47 0.51 0.54 0.53 0.55 0.56 0.50 0.42 0.37 0.37 0.40 0.41 0.39 0.41
0.09 0.09 0.09 0.10 0.11 0.12 0.13 0.14 0.14 0.15 0.17 0.16 0.17 0.18 0.19 0.20 0.22 0.24 0.27 0.30 0.30 0.33 0.32 0.30 0.32 0.35 0.35 0.39 0.50 0.53 0.51 0.57 0.62 0.59 0.45 0.37 0.35 0.35 0.33 0.33 0.34 0.37 0.41
0.08 0.08 0.08 0.09 0.12 0.12 0.11 0.11 0.11 0.12 0.14 0.16 0.17 0.18 0.20 0.20 0.21 0.23 0.26 0.30 0.32 0.35 0.36 0.35 0.34 0.31 0.36 0.44 0.49 0.53 0.59 0.62 0.60 0.50 0.40 0.38 0.35 0.34 0.32 0.31 0.33 0.34 0.38

GEFSMW_prec_meanprecacc_168.txt.gz
Total_Precipitation_Accumulation
0.67 0.82 0.94 1.16 1.37 1.51 1.67 1.68 1.78 1.89 1.97 2.03 1.94 1.72 1.55 1.49 1.42 1.31 1.26 1.19 1.13 1.08 1.00 0.93 0.90 0.89 0.84 0.77 0.74 0.67 0.58 0.54 0.56 0.56 0.47 0.37 0.32 0.27 0.25 0.26 0.25 0.22 0.21
0.57 0.66 0.79 0.99 1.16 1.28 1.39 1.50 1.58 1.70 1.79 1.83 1.81 1.80 1.84 1.71 1.56 1.43 1.33 1.28 1.25 1.20 1.10 1.04 1.01 0.98 0.94 0.86 0.84 0.87 0.81 0.71 0.70 0.72 0.72 0.58 0.44 0.33 0.28 0.28 0.27 0.25 0.24
0.53 0.57 0.64 0.85 0.96 1.06 1.17 1.27 1.39 1.49 1.52 1.70 1.86 1.88 1.91 1.84 1.60 1.39 1.25 1.29 1.38 1.39 1.26 1.17 1.17 1.16 1.13 1.05 0.99 0.98 0.96 0.92 0.87 0.87 0.96 0.83 0.60 0.43 0.34 0.31 0.30 0.29 0.29
0.59 0.61 0.64 0.76 0.82 0.86 1.00 1.12 1.24 1.34 1.37 1.52 1.61 1.56 1.45 1.41 1.33 1.28 1.30 1.35 1.40 1.46 1.43 1.39 1.33 1.29 1.28 1.22 1.27 1.31 1.23 1.16 1.03 0.95 0.90 0.88 0.75 0.71 0.55 0.39 0.34 0.31 0.29
0.54 0.61 0.63 0.68 0.73 0.72 0.78 0.92 1.11 1.18 1.22 1.29 1.36 1.45 1.41 1.34 1.35 1.35 1.30 1.26 1.24 1.33 1.41 1.44 1.43 1.31 1.23 1.19 1.22 1.28 1.33 1.26 1.18 1.11 1.05 1.02 0.91 0.82 0.79 0.59 0.42 0.39 0.35
0.54 0.56 0.53 0.57 0.68 0.65 0.62 0.73 0.87 1.07 1.15 1.18 1.24 1.31 1.30 1.23 1.22 1.26 1.27 1.28 1.21 1.16 1.19 1.28 1.29 1.31 1.28 1.22 1.24 1.32 1.39 1.40 1.34 1.26 1.16 1.10 1.03 0.89 0.90 0.85 0.65 0.57 0.50
0.50 0.53 0.53 0.59 0.64 0.63 0.58 0.58 0.67 0.86 1.01 1.04 1.05 1.10 1.21 1.21 1.13 1.15 1.20 1.21 1.17 1.11 1.12 1.19 1.22 1.24 1.26 1.28 1.30 1.31 1.27 1.31 1.31 1.26 1.20 1.13 1.03 0.97 1.03 1.07 0.94 0.79 0.65
0.43 0.47 0.49 0.52 0.50 0.50 0.53 0.55 0.60 0.66 0.73 0.78 0.85 0.93 1.01 1.09 1.05 1.01 1.04 1.04 1.00 1.02 1.05 1.10 1.14 1.17 1.20 1.23 1.25 1.23 1.20 1.18 1.19 1.16 1.13 1.08 0.99 0.96 1.00 1.09 1.18 1.14 0.92
0.33 0.34 0.36 0.37 0.34 0.35 0.42 0.48 0.49 0.52 0.58 0.60 0.64 0.75 0.80 0.89 0.98 1.00 1.00 1.02 0.99 0.94 0.94 0.94 0.95 1.00 1.03 1.06 1.11 1.12 1.08 1.05 1.04 1.01 1.00 0.97 0.92 0.88 0.91 0.99 1.15 1.36 1.30
0.26 0.28 0.31 0.30 0.27 0.27 0.28 0.31 0.37 0.48 0.53 0.50 0.53 0.60 0.68 0.73 0.80 0.87 0.91 0.90 0.87 0.83 0.81 0.81 0.79 0.80 0.84 0.91 0.97 0.98 0.98 0.99 0.95 0.94 0.94 0.92 0.89 0.89 0.92 0.98 1.06 1.18 1.31
0.23 0.24 0.23 0.23 0.23 0.22 0.22 0.25 0.30 0.38 0.42 0.43 0.45 0.48 0.53 0.58 0.63 0.67 0.72 0.71 0.72 0.73 0.72 0.73 0.74 0.73 0.72 0.76 0.84 0.89 0.92 0.94 0.92 0.88 0.87 0.86 0.85 0.87 0.88 0.93 0.98 1.03 1.11
0.24 0.21 0.18 0.17 0.19 0.20 0.21 0.22 0.27 0.32 0.35 0.37 0.40 0.43 0.45 0.46 0.50 0.56 0.57 0.57 0.60 0.60 0.59 0.58 0.60 0.62 0.62 0.63 0.69 0.75 0.78 0.81 0.84 0.86 0.89 0.89 0.91 0.95 0.97 1.00 1.00 0.99 0.99
0.26 0.23 0.19 0.17 0.18 0.19 0.20 0.20 0.24 0.29 0.31 0.33 0.35 0.35 0.37 0.39 0.40 0.45 0.49 0.52 0.57 0.62 0.63 0.58 0.54 0.52 0.52 0.56 0.60 0.64 0.70 0.74 0.76 0.80 0.86 0.90 0.95 1.01 1.02 1.01 1.00 0.96 0.92
0.26 0.26 0.27 0.22 0.19 0.19 0.17 0.16 0.19 0.24 0.28 0.28 0.29 0.29 0.33 0.35 0.35 0.37 0.40 0.44 0.49 0.56 0.57 0.57 0.57 0.54 0.52 0.54 0.59 0.66 0.71 0.78 0.81 0.83 0.85 0.88 0.90 0.90 0.90 0.88 0.86 0.87 0.88
0.24 0.25 0.26 0.26 0.23 0.20 0.19 0.17 0.17 0.20 0.23 0.26 0.26 0.27 0.31 0.33 0.35 0.36 0.38 0.40 0.42 0.50 0.53 0.55 0.57 0.57 0.57 0.60 0.65 0.69 0.75 0.80 0.86 0.89 0.88 0.84 0.82 0.77 0.76 0.76 0.75 0.75 0.81
0.21 0.22 0.21 0.23 0.21 0.22 0.21 0.20 0.20 0.20 0.21 0.24 0.24 0.24 0.28 0.30 0.33 0.35 0.38 0.38 0.41 0.48 0.53 0.60 0.66 0.69 0.74 0.88 0.89 0.82 0.80 0.82 0.81 0.79 0.76 0.74 0.74 0.72 0.75 0.75 0.75 0.79 0.89
0.13 0.16 0.18 0.20 0.20 0.19 0.19 0.17 0.18 0.18 0.20 0.22 0.22 0.24 0.27 0.31 0.32 0.36 0.41 0.46 0.51 0.59 0.66 0.70 0.80 0.84 0.87 0.92 0.85 0.81 0.75 0.77 0.76 0.71 0.66 0.62 0.58 0.59 0.56 0.63 0.70 0.72 0.77
0.08 0.09 0.12 0.13 0.13 0.13 0.14 0.16 0.15 0.16 0.17 0.21 0.26 0.28 0.29 0.37 0.44 0.44 0.48 0.56 0.63 0.70 0.77 0.77 0.80 0.83 0.84 0.83 0.75 0.73 0.63 0.59 0.58 0.56 0.53 0.49 0.48 0.49 0.52 0.58 0.66 0.59 0.55
0.09 0.09 0.09 0.12 0.12 0.12 0.14 0.16 0.18 0.18 0.18 0.22 0.28 0.32 0.33 0.43 0.53 0.53 0.55 0.59 0.65 0.72 0.75 0.74 0.71 0.65 0.64 0.64 0.58 0.55 0.50 0.48 0.45 0.44 0.46 0.48 0.44 0.50 0.64 0.67 0.64 0.53 0.44
0.11 0.11 0.12 0.13 0.15 0.17 0.19 0.21 0.24 0.29 0.31 0.32 0.37 0.43 0.49 0.56 0.61 0.60 0.59 0.57 0.56 0.58 0.57 0.53 0.50 0.47 0.44 0.46 0.45 0.43 0.38 0.39 0.39 0.42 0.45 0.49 0.48 0.56 0.67 0.61 0.58 0.51 0.43
0.16 0.15 0.16 0.18 0.20 0.20 0.22 0.25 0.28 0.38 0.43 0.45 0.48 0.50 0.55 0.57 0.57 0.55 0.52 0.47 0.42 0.41 0.40 0.38 0.37 0.37 0.36 0.38 0.37 0.39 0.36 0.36 0.40 0.42 0.40 0.43 0.59 0.66 0.64 0.56 0.46 0.49 0.54
0.14 0.16 0.19 0.21 0.23 0.26 0.31 0.33 0.35 0.40 0.43 0.44 0.44 0.44 0.43 0.44 0.45 0.44 0.43 0.39 0.36 0.34 0.34 0.34 0.36 0.38 0.39 0.39 0.40 0.44 0.47 0.49 0.45 0.39 0.36 0.42 0.59 0.59 0.52 0.46 0.49 0.58 0.53
0.12 0.15 0.20 0.24 0.27 0.29 0.31 0.34 0.34 0.34 0.34 0.35 0.34 0.32 0.30 0.29 0.30 0.31 0.32 0.32 0.31 0.30 0.32 0.35 0.37 0.39 0.40 0.44 0.48 0.49 0.57 0.59 0.51 0.47 0.54 0.57 0.53 0.46 0.43 0.43 0.47 0.47 0.44
0.10 0.12 0.14 0.16 0.19 0.21 0.22 0.24 0.23 0.23 0.22 0.22 0.23 0.24 0.21 0.21 0.23 0.23 0.26 0.28 0.28 0.28 0.28 0.32 0.38 0.39 0.37 0.40 0.45 0.49 0.54 0.57 0.56 0.58 0.59 0.53 0.45 0.40 0.39 0.42 0.42 0.40 0.42
0.09 0.09 0.09 0.10 0.11 0.12 0.13 0.14 0.14 0.15 0.17 0.17 0.17 0.18 0.20 0.20 0.22 0.24 0.27 0.31 0.31 0.34 0.34 0.31 0.33 0.37 0.37 0.41 0.52 0.55 0.53 0.60 0.64 0.62 0.48 0.40 0.38 0.38 0.36 0.35 0.36 0.38 0.42
0.08 0.08 0.08 0.09 0.12 0.12 0.11 0.11 0.11 0.12 0.15 0.17 0.17 0.19 0.20 0.20 0.21 0.23 0.27 0.31 0.33 0.36 0.37 0.37 0.36 0.33 0.38 0.48 0.53 0.56 0.61 0.65 0.63 0.53 0.43 0.41 0.38 0.36 0.34 0.33 0.34 0.35 0.39

GEFSMW_prec_meanprecacc_174.txt.gz
Total_Precipitation_Accumulation
0.67 0.83 0.96 1.18 1.41 1.55 1.70 1.71 1.81 1.91 2.00 2.08 2.01 1.81 1.64 1.59 1.54 1.45 1.41 1.30 1.19 1.13 1.06 1.00 0.99 0.97 0.90 0.83 0.78 0.70 0.60 0.55 0.57 0.58 0.49 0.39 0.34 0.30 0.28 0.29 0.28 0.24 0.22
0.57 0.66 0.79 0.99 1.17 1.30 1.40 1.52 1.60 1.71 1.80 1.85 1.85 1.85 1.90 1.76 1.61 1.50 1.41 1.37 1.32 1.24 1.14 1.09 1.07 1.06 1.00 0.91 0.88 0.91 0.84 0.74 0.72 0.74 0.74 0.60 0.46 0.35 0.31 0.31 0.30 0.27 0.26
0.53 0.57 0.64 0.85 0.96 1.06 1.17 1.28 1.41 1.50 1.53 1.72 1.89 1.93 1.96 1.88 1.64 1.42 1.28 1.33 1.43 1.43 1.30 1.20 1.21 1.21 1.19 1.10 1.03 1.02 1.00 0.96 0.90 0.90 1.00 0.87 0.63 0.46 0.36 0.34 0.33 0.31 0.31
0.59 0.61 0.64 0.76 0.82 0.86 1.01 1.13 1.26 1.36 1.39 1.54 1.63 1.61 1.50 1.45 1.37 1.31 1.33 1.37 1.43 1.49 1.46 1.42 1.36 1.32 1.31 1.27 1.32 1.36 1.27 1.19 1.06 0.99 0.94 0.92 0.79 0.75 0.58 0.42 0.39 0.36 0.33
0.54 0.61 0.63 0.68 0.73 0.72 0.78 0.93 1.13 1.20 1.24 1.31 1.38 1.48 1.45 1.39 1.41 1.40 1.33 1.28 1.25 1.34 1.43 1.46 1.45 1.33 1.25 1.21 1.25 1.32 1.37 1.29 1.20 1.14 1.08 1.06 0.94 0.85 0.82 0.61 0.45 0.43 0.40
0.54 0.56 0.53 0.57 0.68 0.65 0.62 0.73 0.88 1.09 1.17 1.20 1.26 1.33 1.32 1.26 1.26 1.31 1.31 1.29 1.22 1.17 1.20 1.28 1.30 1.32 1.29 1.23 1.25 1.33 1.41 1.41 1.36 1.28 1.18 1.13 1.06 0.92 0.93 0.87 0.67 0.59 0.53
0.50 0.53 0.53 0.59 0.64 0.63 0.58 0.59 0.67 0.87 1.03 1.05 1.06 1.11 1.22 1.22 1.15 1.18 1.23 1.24 1.19 1.12 1.12 1.20 1.22 1.25 1.26 1.29 1.30 1.31 1.28 1.32 1.32 1.27 1.21 1.14 1.05 1.00 1.07 1.11 0.97 0.82 0.68
0.43 0.47 0.49 0.52 0.50 0.50 0.53 0.55 0.60 0.67 0.74 0.79 0.86 0.94 1.02 1.09 1.05 1.02 1.05 1.05 1.01 1.03 1.06 1.11 1.14 1.17 1.20 1.23 1.25 1.24 1.21 1.19 1.19 1.17 1.14 1.10 1.01 0.99 1.05 1.14 1.24 1.19 0.97
0.33 0.35 0.37 0.37 0.34 0.36 0.42 0.48 0.49 0.52 0.58 0.60 0.65 0.76 0.80 0.90 0.98 1.00 1.00 1.03 0.99 0.95 0.94 0.94 0.95 1.00 1.03 1.06 1.12 1.13 1.08 1.06 1.05 1.02 1.01 0.99 0.93 0.90 0.93 1.03 1.19 1.41 1.35
0.26 0.28 0.31 0.30 0.27 0.27 0.28 0.31 0.37 0.48 0.53 0.50 0.53 0.61 0.68 0.73 0.80 0.87 0.91 0.90 0.87 0.83 0.81 0.81 0.79 0.80 0.84 0.91 0.97 0.98 0.99 1.00 0.96 0.94 0.95 0.92 0.90 0.91 0.94 1.00 1.09 1.21 1.34
0.23 0.24 0.24 0.23 0.24 0.22 0.22 0.25 0.30 0.38 0.42 0.43 0.45 0.48 0.53 0.58 0.63 0.67 0.72 0.71 0.72 0.73 0.72 0.73 0.74 0.73 0.72 0.76 0.84 0.89 0.92 0.94 0.92 0.89 0.87 0.87 0.86 0.88 0.89 0.94 1.00 1.05 1.13
0.24 0.22 0.19 0.17 0.20 0.20 0.21 0.22 0.27 0.32 0.35 0.37 0.40 0.43 0.45 0.46 0.50 0.56 0.57 0.57 0.60 0.60 0.59 0.58 0.60 0.62 0.62 0.63 0.69 0.75 0.78 0.81 0.84 0.86 0.89 0.90 0.91 0.96 0.98 1.01 1.01 1.00 1.01
0.26 0.23 0.19 0.17 0.19 0.20 0.20 0.20 0.24 0.29 0.32 0.34 0.35 0.36 0.37 0.39 0.40 0.45 0.49 0.52 0.57 0.62 0.63 0.58 0.54 0.52 0.52 0.56 0.60 0.64 0.70 0.74 0.76 0.80 0.86 0.91 0.96 1.02 1.03 1.02 1.00 0.97 0.93
0.26 0.26 0.28 0.22 0.20 0.20 0.17 0.17 0.20 0.24 0.28 0.28 0.29 0.30 0.33 0.35 0.36 0.37 0.40 0.44 0.49 0.56 0.57 0.58 0.57 0.54 0.52 0.54 0.59 0.66 0.71 0.78 0.82 0.83 0.86 0.88 0.90 0.91 0.91 0.89 0.87 0.88 0.89
0.24 0.25 0.26 0.26 0.23 0.20 0.19 0.17 0.17 0.20 0.23 0.26 0.26 0.28 0.31 0.33 0.35 0.36 0.38 0.40 0.42 0.50 0.53 0.55 0.57 0.58 0.57 0.60 0.65 0.69 0.75 0.80 0.86 0.89 0.88 0.85 0.83 0.78 0.77 0.77 0.76 0.76 0.82
0.21 0.22 0.21 0.23 0.22 0.22 0.21 0.20 0.20 0.20 0.21 0.24 0.24 0.24 0.28 0.30 0.33 0.36 0.38 0.38 0.41 0.48 0.54 0.60 0.66 0.69 0.74 0.88 0.90 0.83 0.80 0.83 0.82 0.80 0.77 0.75 0.75 0.73 0.76 0.76 0.75 0.80 0.90
0.14 0.16 0.18 0.20 0.20 0.19 0.19 0.17 0.18 0.18 0.20 0.22 0.22 0.24 0.27 0.31 0.33 0.36 0.41 0.46 0.51 0.59 0.66 0.70 0.80 0.84 0.88 0.92 0.85 0.82 0.76 0.78 0.76 0.72 0.66 0.63 0.59 0.60 0.57 0.64 0.71 0.73 0.78
0.09 0.09 0.12 0.13 0.13 0.13 0.14 0.16 0.15 0.16 0.18 0.21 0.27 0.28 0.29 0.37 0.44 0.44 0.48 0.56 0.63 0.70 0.77 0.77 0.80 0.83 0.84 0.83 0.76 0.73 0.64 0.60 0.59 0.57 0.53 0.50 0.49 0.50 0.53 0.59 0.66 0.59 0.56
0.09 0.09 0.10 0.12 0.12 0.13 0.14 0.17 0.18 0.18 0.19 0.22 0.28 0.32 0.34 0.43 0.53 0.53 0.55 0.59 0.65 0.72 0.75 0.74 0.71 0.66 0.64 0.65 0.58 0.56 0.50 0.49 0.46 0.45 0.47 0.48 0.45 0.51 0.65 0.67 0.65 0.53 0.44
0.11 0.11 0.12 0.13 0.15 0.17 0.19 0.22 0.24 0.29 0.31 0.32 0.37 0.43 0.49 0.57 0.61 0.60 0.59 0.57 0.56 0.58 0.57 0.53 0.50 0.48 0.45 0.47 0.45 0.44 0.38 0.40 0.40 0.42 0.46 0.50 0.49 0.56 0.68 0.62 0.59 0.52 0.44
0.16 0.15 0.16 0.18 0.20 0.21 0.22 0.25 0.28 0.38 0.43 0.45 0.48 0.50 0.55 0.58 0.57 0.55 0.52 0.47 0.42 0.41 0.40 0.38 0.37 0.37 0.37 0.39 0.38 0.39 0.36 0.36 0.41 0.43 0.41 0.43 0.59 0.67 0.65 0.57 0.47 0.50 0.55
0.14 0.16 0.19 0.21 0.23 0.27 0.31 0.33 0.35 0.40 0.43 0.44 0.45 0.44 0.44 0.44 0.45 0.44 0.43 0.39 0.36 0.34 0.34 0.34 0.37 0.38 0.39 0.40 0.41 0.45 0.48 0.50 0.45 0.40 0.36 0.43 0.60 0.60 0.54 0.47 0.50 0.59 0.55
0.12 0.15 0.20 0.24 0.27 0.29 0.31 0.34 0.34 0.34 0.34 0.35 0.35 0.33 0.30 0.29 0.30 0.31 0.32 0.32 0.31 0.30 0.32 0.35 0.38 0.39 0.40 0.44 0.49 0.51 0.58 0.60 0.51 0.48 0.54 0.58 0.54 0.47 0.44 0.45 0.49 0.48 0.45
0.10 0.12 0.14 0.16 0.19 0.21 0.22 0.24 0.23 0.23 0.22 0.22 0.23 0.24 0.22 0.21 0.23 0.24 0.27 0.28 0.28 0.28 0.28 0.32 0.38 0.39 0.38 0.40 0.46 0.51 0.55 0.59 0.57 0.59 0.60 0.54 0.46 0.41 0.41 0.44 0.44 0.42 0.43
0.09 0.09 0.09 0.10 0.11 0.12 0.13 0.14 0.14 0.15 0.17 0.17 0.17 0.19 0.20 0.21 0.22 0.25 0.27 0.31 0.31 0.35 0.34 0.32 0.33 0.37 0.38 0.42 0.54 0.57 0.55 0.61 0.66 0.64 0.50 0.41 0.39 0.39 0.37 0.36 0.37 0.39 0.43
0.08 0.08 0.08 0.09 0.12 0.12 0.11 0.11 0.11 0.12 0.15 0.17 0.18 0.19 0.20 0.21 0.22 0.24 0.27 0.31 0.33 0.36 0.38 0.38 0.37 0.34 0.39 0.48 0.54 0.58 0.64 0.67 0.65 0.55 0.45 0.42 0.39 0.38 0.35 0.34 0.35 0.36 0.40

GEFSMW_prec_meanprecacc_180.txt.gz
Total_Precipitation_Accumulation
0.75 0.90 1.04 1.28 1.52 1.72 1.91 1.91 2.00 2.13 2.23 2.27 2.18 2.01 1.84 1.71 1.63 1.51 1.47 1.38 1.26 1.19 1.09 1.03 1.02 1.01 0.96 0.87 0.83 0.74 0.64 0.60 0.61 0.60 0.49 0.40 0.35 0.31 0.29 0.30 0.29 0.25 0.23
0.61 0.70 0.85 1.05 1.23 1.38 1.51 1.60 1.68 1.82 1.94 1.98 1.98 2.01 2.06 1.89 1.71 1.57 1.48 1.45 1.39 1.30 1.18 1.11 1.10 1.08 1.05 0.96 0.92 0.94 0.87 0.76 0.75 0.76 0.76 0.61 0.47 0.35 0.31 0.32 0.31 0.29 0.28
0.55 0.58 0.66 0.87 0.99 1.09 1.23 1.33 1.45 1.54 1.57 1.77 1.96 2.03 2.08 2.00 1.73 1.49 1.36 1.42 1.52 1.50 1.34 1.23 1.23 1.23 1.22 1.15 1.07 1.06 1.02 0.97 0.91 0.91 1.02 0.88 0.65 0.47 0.37 0.35 0.34 0.33 0.33
0.60 0.62 0.65 0.77 0.83 0.88 1.04 1.16 1.28 1.38 1.41 1.56 1.66 1.66 1.57 1.52 1.43 1.38 1.41 1.46 1.54 1.58 1.52 1.47 1.39 1.35 1.35 1.32 1.38 1.39 1.30 1.21 1.07 1.00 0.95 0.93 0.80 0.77 0.59 0.43 0.40 0.38 0.36
0.54 0.62 0.64 0.68 0.74 0.73 0.80 0.96 1.15 1.22 1.25 1.32 1.40 1.51 1.49 1.43 1.45 1.46 1.42 1.38 1.35 1.44 1.50 1.50 1.48 1.36 1.28 1.25 1.31 1.38 1.42 1.32 1.22 1.14 1.09 1.06 0.95 0.86 0.84 0.63 0.47 0.44 0.42
0.54 0.56 0.53 0.57 0.68 0.65 0.63 0.75 0.90 1.11 1.19 1.22 1.28 1.35 1.35 1.30 1.30 1.37 1.38 1.39 1.33 1.27 1.28 1.33 1.32 1.34 1.31 1.25 1.28 1.37 1.45 1.45 1.38 1.29 1.19 1.14 1.07 0.94 0.96 0.90 0.68 0.60 0.54
0.50 0.53 0.53 0.59 0.64 0.63 0.58 0.60 0.69 0.88 1.04 1.07 1.07 1.13 1.24 1.24 1.18 1.22 1.30 1.31 1.27 1.21 1.21 1.26 1.26 1.27 1.29 1.31 1.32 1.33 1.30 1.34 1.34 1.29 1.23 1.16 1.07 1.02 1.09 1.14 1.00 0.83 0.69
0.43 0.47 0.49 0.52 0.50 0.50 0.54 0.56 0.61 0.68 0.76 0.80 0.86 0.94 1.03 1.11 1.07 1.04 1.09 1.13 1.08 1.09 1.12 1.17 1.18 1.20 1.23 1.25 1.27 1.25 1.22 1.21 1.21 1.19 1.16 1.11 1.02 1.00 1.06 1.17 1.27 1.21 0.98
0.33 0.35 0.37 0.37 0.34 0.36 0.42 0.48 0.50 0.53 0.59 0.61 0.66 0.77 0.81 0.91 1.00 1.01 1.02 1.06 1.06 1.01 0.99 0.98 0.99 1.03 1.06 1.08 1.13 1.14 1.09 1.07 1.06 1.03 1.02 0.99 0.94 0.91 0.94 1.04 1.21 1.43 1.36
0.26 0.28 0.31 0.30 0.27 0.27 0.28 0.31 0.38 0.48 0.54 0.51 0.54 0.62 0.69 0.74 0.81 0.88 0.92 0.91 0.89 0.88 0.87 0.86 0.82 0.83 0.87 0.93 0.99 1.00 0.99 1.00 0.97 0.95 0.96 0.93 0.90 0.91 0.94 1.01 1.09 1.23 1.36
0.23 0.24 0.24 0.23 0.24 0.22 0.22 0.25 0.30 0.38 0.42 0.44 0.46 0.49 0.54 0.59 0.63 0.68 0.72 0.72 0.73 0.74 0.76 0.78 0.78 0.76 0.75 0.79 0.86 0.91 0.92 0.94 0.92 0.89 0.88 0.87 0.86 0.88 0.90 0.95 1.00 1.06 1.14
0.24 0.22 0.19 0.18 0.20 0.20 0.21 0.23 0.27 0.32 0.36 0.38 0.41 0.44 0.46 0.47 0.51 0.57 0.57 0.58 0.60 0.61 0.60 0.61 0.63 0.64 0.64 0.65 0.71 0.77 0.79 0.82 0.84 0.86 0.89 0.90 0.91 0.96 0.99 1.01 1.02 1.01 1.01
0.26 0.24 0.20 0.18 0.19 0.20 0.21 0.21 0.25 0.29 0.32 0.34 0.35 0.36 0.38 0.39 0.41 0.46 0.50 0.52 0.57 0.62 0.63 0.58 0.55 0.54 0.53 0.57 0.61 0.65 0.71 0.74 0.76 0.80 0.86 0.91 0.96 1.02 1.03 1.02 1.01 0.97 0.94
0.26 0.26 0.28 0.23 0.20 0.20 0.18 0.18 0.21 0.25 0.28 0.29 0.30 0.30 0.34 0.36 0.36 0.37 0.40 0.45 0.50 0.56 0.57 0.58 0.57 0.54 0.52 0.54 0.59 0.66 0.71 0.78 0.82 0.83 0.86 0.89 0.90 0.91 0.91 0.90 0.88 0.89 0.90
0.24 0.25 0.26 0.26 0.23 0.20 0.19 0.17 0.18 0.20 0.24 0.26 0.27 0.28 0.31 0.33 0.35 0.36 0.38 0.40 0.42 0.50 0.53 0.55 0.57 0.58 0.57 0.60 0.65 0.70 0.75 0.81 0.86 0.89 0.89 0.85 0.83 0.78 0.77 0.77 0.77 0.77 0.83
0.21 0.22 0.21 0.23 0.22 0.22 0.21 0.20 0.20 0.20 0.21 0.24 0.24 0.25 0.28 0.31 0.33 0.36 0.38 0.38 0.41 0.48 0.54 0.60 0.66 0.69 0.74 0.88 0.90 0.83 0.81 0.83 0.82 0.80 0.77 0.75 0.75 0.73 0.76 0.77 0.76 0.81 0.91
0.14 0.17 0.18 0.20 0.20 0.19 0.19 0.18 0.18 0.18 0.20 0.22 0.23 0.24 0.27 0.31 0.33 0.36 0.41 0.46 0.51 0.59 0.66 0.70 0.80 0.84 0.88 0.93 0.85 0.82 0.76 0.78 0.77 0.72 0.67 0.63 0.59 0.60 0.57 0.64 0.72 0.74 0.79
0.09 0.10 0.12 0.13 0.13 0.13 0.14 0.16 0.15 0.16 0.18 0.22 0.27 0.28 0.29 0.38 0.44 0.45 0.48 0.56 0.63 0.70 0.77 0.77 0.80 0.83 0.84 0.83 0.76 0.74 0.64 0.60 0.59 0.57 0.54 0.50 0.49 0.50 0.53 0.59 0.67 0.60 0.56
0.09 0.09 0.10 0.12 0.12 0.13 0.14 0.17 0.18 0.19 0.19 0.23 0.29 0.33 0.34 0.43 0.53 0.53 0.55 0.59 0.65 0.72 0.75 0.74 0.71 0.66 0.64 0.65 0.58 0.56 0.51 0.49 0.46 0.45 0.47 0.49 0.45 0.52 0.66 0.68 0.66 0.54 0.45
0.11 0.12 0.12 0.13 0.15 0.18 0.19 0.22 0.24 0.29 0.32 0.33 0.37 0.43 0.49 0.57 0.61 0.61 0.59 0.57 0.56 0.58 0.57 0.53 0.50 0.48 0.45 0.47 0.45 0.44 0.38 0.40 0.40 0.43 0.46 0.51 0.49 0.57 0.69 0.63 0.60 0.53 0.45
0.16 0.15 0.16 0.18 0.21 0.21 0.22 0.25 0.29 0.38 0.43 0.45 0.49 0.51 0.55 0.58 0.57 0.56 0.53 0.47 0.42 0.41 0.40 0.38 0.37 0.37 0.37 0.39 0.39 0.40 0.36 0.36 0.41 0.43 0.41 0.44 0.60 0.67 0.66 0.58 0.48 0.51 0.57
0.14 0.16 0.19 0.21 0.24 0.27 0.31 0.33 0.35 0.40 0.43 0.44 0.45 0.44 0.44 0.44 0.46 0.45 0.44 0.39 0.36 0.34 0.34 0.34 0.37 0.38 0.39 0.40 0.41 0.45 0.48 0.51 0.46 0.41 0.37 0.43 0.61 0.61 0.54 0.48 0.51 0.60 0.56
0.12 0.16 0.20 0.24 0.28 0.29 0.32 0.34 0.34 0.34 0.34 0.35 0.35 0.33 0.30 0.29 0.31 0.31 0.33 0.32 0.31 0.30 0.32 0.36 0.38 0.39 0.41 0.45 0.49 0.51 0.59 0.61 0.52 0.49 0.56 0.59 0.55 0.48 0.45 0.46 0.50 0.50 0.46
0.10 0.12 0.14 0.16 0.19 0.21 0.22 0.24 0.23 0.23 0.23 0.22 0.23 0.24 0.22 0.22 0.23 0.24 0.27 0.28 0.28 0.28 0.28 0.33 0.38 0.39 0.38 0.41 0.47 0.52 0.56 0.60 0.58 0.59 0.62 0.56 0.47 0.42 0.42 0.45 0.45 0.43 0.44
0.09 0.09 0.09 0.10 0.11 0.12 0.13 0.14 0.14 0.15 0.17 0.17 0.18 0.19 0.20 0.21 0.23 0.25 0.28 0.31 0.31 0.35 0.34 0.32 0.34 0.38 0.38 0.42 0.56 0.60 0.57 0.63 0.67 0.66 0.52 0.44 0.41 0.41 0.39 0.38 0.38 0.41 0.45
0.08 0.09 0.08 0.09 0.12 0.12 0.11 0.11 0.11 0.12 0.15 0.17 0.18 0.19 0.20 0.21 0.22 0.24 0.27 0.31 0.33 0.36 0.38 0.38 0.37 0.34 0.40 0.49 0.57 0.61 0.67 0.70 0.68 0.58 0.48 0.45 0.42 0.40 0.37 0.35 0.37 0.38 0.42

GEFSMW_prec_meanprecacc_186.txt.gz
Total_Precipitation_Accumulation
0.81 0.96 1.10 1.36 1.58 1.79 2.01 2.04 2.23 2.43 2.50 2.47 2.33 2.14 1.97 1.85 1.74 1.63 1.57 1.45 1.31 1.24 1.15 1.08 1.07 1.07 1.02 0.91 0.86 0.80 0.71 0.65 0.66 0.64 0.51 0.41 0.35 0.31 0.29 0.31 0.30 0.26 0.24
0.64 0.76 0.91 1.13 1.29 1.43 1.57 1.69 1.82 2.04 2.20 2.22 2.15 2.16 2.20 2.03 1.82 1.68 1.60 1.54 1.46 1.37 1.25 1.15 1.14 1.13 1.09 0.99 0.94 0.97 0.93 0.83 0.80 0.80 0.78 0.62 0.47 0.36 0.32 0.33 0.33 0.30 0.30
0.56 0.61 0.71 0.93 1.05 1.14 1.27 1.39 1.52 1.65 1.74 1.97 2.15 2.17 2.21 2.13 1.85 1.60 1.48 1.51 1.59 1.57 1.42 1.28 1.27 1.28 1.27 1.18 1.09 1.07 1.04 1.01 0.96 0.96 1.05 0.91 0.66 0.47 0.38 0.36 0.35 0.35 0.35
0.61 0.63 0.67 0.81 0.87 0.91 1.07 1.20 1.34 1.45 1.50 1.68 1.82 1.84 1.70 1.64 1.55 1.48 1.50 1.54 1.59 1.65 1.63 1.55 1.44 1.39 1.39 1.35 1.40 1.41 1.31 1.23 1.10 1.02 0.98 0.95 0.82 0.78 0.59 0.43 0.41 0.39 0.37
0.54 0.62 0.64 0.69 0.75 0.74 0.82 0.99 1.19 1.28 1.32 1.40 1.49 1.64 1.64 1.57 1.58 1.56 1.50 1.44 1.40 1.50 1.59 1.60 1.55 1.41 1.32 1.28 1.34 1.41 1.44 1.34 1.24 1.16 1.10 1.07 0.95 0.87 0.85 0.64 0.47 0.45 0.43
0.54 0.56 0.53 0.57 0.68 0.66 0.64 0.77 0.93 1.16 1.25 1.29 1.34 1.43 1.45 1.40 1.41 1.48 1.47 1.46 1.38 1.33 1.38 1.44 1.40 1.41 1.35 1.28 1.30 1.39 1.47 1.47 1.41 1.31 1.20 1.15 1.08 0.95 0.96 0.90 0.69 0.61 0.55
0.50 0.53 0.53 0.59 0.64 0.63 0.59 0.61 0.71 0.91 1.07 1.11 1.12 1.18 1.30 1.31 1.26 1.30 1.37 1.38 1.33 1.27 1.31 1.42 1.36 1.36 1.34 1.34 1.34 1.35 1.31 1.36 1.36 1.31 1.24 1.16 1.08 1.02 1.10 1.15 1.00 0.84 0.69
0.43 0.47 0.49 0.52 0.50 0.50 0.54 0.57 0.63 0.69 0.76 0.81 0.88 0.97 1.06 1.15 1.12 1.09 1.15 1.19 1.15 1.15 1.20 1.31 1.33 1.30 1.32 1.31 1.30 1.27 1.23 1.22 1.22 1.20 1.17 1.12 1.03 1.01 1.06 1.17 1.27 1.22 0.98
0.33 0.35 0.37 0.37 0.34 0.36 0.43 0.50 0.52 0.55 0.60 0.62 0.66 0.78 0.83 0.93 1.03 1.05 1.06 1.10 1.10 1.08 1.07 1.10 1.15 1.16 1.16 1.15 1.18 1.17 1.11 1.08 1.06 1.04 1.02 1.00 0.94 0.91 0.95 1.04 1.21 1.43 1.37
0.26 0.28 0.31 0.30 0.28 0.27 0.29 0.32 0.40 0.51 0.56 0.52 0.55 0.63 0.70 0.76 0.84 0.92 0.95 0.94 0.92 0.91 0.92 0.94 0.94 0.95 0.97 1.02 1.05 1.04 1.01 1.01 0.98 0.96 0.96 0.94 0.91 0.92 0.95 1.01 1.10 1.24 1.37
0.23 0.24 0.24 0.23 0.24 0.22 0.22 0.25 0.32 0.41 0.46 0.46 0.47 0.50 0.55 0.60 0.65 0.70 0.75 0.75 0.75 0.77 0.79 0.84 0.87 0.86 0.85 0.85 0.92 0.96 0.95 0.96 0.93 0.89 0.88 0.88 0.86 0.89 0.90 0.95 1.01 1.06 1.15
0.24 0.22 0.19 0.18 0.20 0.21 0.22 0.23 0.28 0.34 0.39 0.41 0.43 0.45 0.48 0.49 0.53 0.59 0.59 0.60 0.62 0.63 0.63 0.65 0.69 0.73 0.72 0.72 0.75 0.80 0.82 0.84 0.85 0.87 0.90 0.90 0.92 0.96 0.99 1.02 1.02 1.01 1.02
0.26 0.24 0.20 0.18 0.19 0.20 0.22 0.22 0.25 0.31 0.35 0.38 0.39 0.39 0.40 0.42 0.44 0.50 0.53 0.54 0.59 0.63 0.65 0.61 0.59 0.60 0.62 0.65 0.66 0.69 0.74 0.77 0.78 0.81 0.87 0.91 0.96 1.02 1.03 1.03 1.01 0.97 0.94
0.26 0.26 0.28 0.23 0.20 0.20 0.18 0.18 0.21 0.25 0.29 0.32 0.35 0.35 0.38 0.39 0.40 0.42 0.45 0.49 0.53 0.58 0.58 0.60 0.59 0.58 0.58 0.61 0.65 0.70 0.74 0.81 0.84 0.85 0.86 0.89 0.91 0.91 0.91 0.90 0.88 0.89 0.90
0.24 0.25 0.26 0.26 0.23 0.20 0.19 0.17 0.18 0.21 0.24 0.27 0.30 0.32 0.37 0.39 0.40 0.41 0.43 0.46 0.48 0.53 0.55 0.57 0.58 0.59 0.60 0.64 0.70 0.74 0.78 0.83 0.89 0.92 0.90 0.86 0.84 0.79 0.78 0.78 0.77 0.77 0.84
0.21 0.22 0.21 0.23 0.22 0.22 0.21 0.20 0.20 0.20 0.22 0.25 0.25 0.27 0.31 0.34 0.37 0.40 0.42 0.43 0.47 0.53 0.57 0.62 0.67 0.70 0.75 0.90 0.92 0.86 0.84 0.85 0.84 0.82 0.78 0.76 0.75 0.73 0.76 0.77 0.77 0.81 0.91
0.14 0.17 0.18 0.20 0.20 0.19 0.19 0.18 0.18 0.18 0.20 0.22 0.23 0.25 0.28 0.33 0.35 0.39 0.44 0.50 0.56 0.64 0.70 0.73 0.82 0.85 0.88 0.93 0.86 0.83 0.78 0.79 0.78 0.73 0.68 0.64 0.59 0.60 0.57 0.64 0.72 0.74 0.80
0.09 0.10 0.12 0.13 0.13 0.13 0.14 0.16 0.15 0.16 0.18 0.22 0.27 0.29 0.30 0.39 0.46 0.46 0.50 0.58 0.66 0.73 0.80 0.80 0.82 0.84 0.85 0.84 0.76 0.74 0.65 0.61 0.60 0.58 0.54 0.50 0.49 0.50 0.53 0.59 0.67 0.60 0.57
0.09 0.09 0.10 0.12 0.12 0.13 0.14 0.17 0.18 0.19 0.19 0.23 0.29 0.33 0.34 0.44 0.54 0.54 0.56 0.61 0.67 0.74 0.76 0.75 0.72 0.66 0.65 0.65 0.58 0.56 0.51 0.49 0.46 0.46 0.47 0.49 0.45 0.52 0.66 0.69 0.66 0.54 0.45
0.11 0.12 0.12 0.13 0.16 0.18 0.19 0.22 0.25 0.29 0.32 0.33 0.37 0.43 0.49 0.57 0.62 0.61 0.60 0.58 0.58 0.60 0.58 0.54 0.51 0.48 0.45 0.47 0.45 0.44 0.39 0.40 0.40 0.43 0.46 0.51 0.49 0.57 0.69 0.64 0.61 0.54 0.45
0.16 0.15 0.16 0.19 0.21 0.21 0.23 0.26 0.29 0.38 0.43 0.45 0.49 0.51 0.55 0.58 0.58 0.57 0.53 0.48 0.44 0.42 0.41 0.39 0.38 0.37 0.37 0.39 0.39 0.40 0.36 0.36 0.41 0.43 0.42 0.44 0.60 0.68 0.66 0.59 0.49 0.52 0.57
0.14 0.16 0.19 0.22 0.25 0.28 0.32 0.34 0.36 0.41 0.44 0.45 0.45 0.45 0.44 0.44 0.46 0.45 0.44 0.40 0.37 0.35 0.35 0.35 0.37 0.38 0.39 0.40 0.41 0.45 0.49 0.51 0.46 0.41 0.37 0.43 0.61 0.61 0.55 0.49 0.52 0.61 0.58
0.12 0.16 0.20 0.25 0.28 0.29 0.32 0.34 0.34 0.34 0.35 0.35 0.35 0.33 0.31 0.30 0.31 0.32 0.33 0.33 0.32 0.31 0.33 0.36 0.38 0.39 0.41 0.45 0.49 0.51 0.59 0.61 0.52 0.49 0.56 0.59 0.55 0.49 0.45 0.47 0.51 0.51 0.47
0.10 0.12 0.15 0.17 0.20 0.21 0.23 0.24 0.24 0.23 0.23 0.22 0.24 0.24 0.22 0.22 0.24 0.25 0.28 0.29 0.29 0.29 0.29 0.33 0.38 0.40 0.38 0.41 0.47 0.52 0.56 0.60 0.59 0.60 0.62 0.56 0.48 0.43 0.43 0.46 0.46 0.44 0.45
0.09 0.10 0.10 0.11 0.12 0.13 0.13 0.14 0.14 0.16 0.17 0.17 0.18 0.19 0.20 0.21 0.23 0.26 0.29 0.32 0.32 0.36 0.35 0.32 0.34 0.38 0.39 0.42 0.56 0.60 0.58 0.63 0.68 0.67 0.54 0.45 0.42 0.42 0.40 0.38 0.39 0.42 0.46
0.09 0.09 0.09 0.10 0.12 0.12 0.11 0.12 0.11 0.12 0.15 0.18 0.18 0.19 0.21 0.21 0.22 0.24 0.28 0.32 0.34 0.37 0.39 0.38 0.37 0.35 0.40 0.49 0.57 0.62 0.67 0.70 0.69 0.60 0.50 0.47 0.43 0.41 0.38 0.37 0.38 0.39 0.44

GEFSMW_prec_meanprecacc_192.txt.gz
Total_Precipitation_Accumulation
0.86 1.00 1.13 1.39 1.61 1.84 2.06 2.09 2.29 2.51 2.64 2.70 2.57 2.37 2.16 2.01 1.85 1.71 1.62 1.52 1.41 1.34 1.21 1.11 1.09 1.10 1.05 0.95 0.90 0.84 0.73 0.67 0.69 0.67 0.54 0.43 0.38 0.33 0.30 0.33 0.33 0.29 0.27
0.70 0.80 0.94 1.16 1.32 1.48 1.63 1.74 1.87 2.12 2.33 2.41 2.35 2.34 2.37 2.19 1.95 1.78 1.66 1.61 1.55 1.47 1.34 1.21 1.17 1.15 1.12 1.03 0.98 1.01 0.97 0.87 0.85 0.84 0.81 0.65 0.50 0.38 0.33 0.34 0.33 0.32 0.31
0.60 0.65 0.74 0.96 1.08 1.18 1.33 1.43 1.55 1.70 1.83 2.15 2.36 2.35 2.40 2.32 2.02 1.74 1.56 1.59 1.69 1.68 1.54 1.38 1.33 1.30 1.30 1.22 1.14 1.11 1.07 1.06 1.02 1.04 1.11 0.95 0.69 0.49 0.39 0.37 0.36 0.36 0.35
0.62 0.65 0.70 0.83 0.89 0.94 1.10 1.24 1.37 1.47 1.55 1.80 2.04 2.02 1.90 1.85 1.76 1.67 1.65 1.65 1.70 1.77 1.77 1.68 1.55 1.45 1.42 1.38 1.44 1.45 1.34 1.26 1.14 1.07 1.03 1.01 0.85 0.79 0.61 0.44 0.41 0.40 0.38
0.56 0.64 0.66 0.71 0.77 0.77 0.85 1.01 1.22 1.30 1.36 1.46 1.64 1.84 1.83 1.76 1.78 1.77 1.70 1.59 1.53 1.62 1.72 1.74 1.66 1.51 1.38 1.31 1.37 1.44 1.47 1.36 1.27 1.19 1.12 1.09 0.97 0.88 0.86 0.65 0.48 0.45 0.43
0.55 0.57 0.54 0.57 0.69 0.67 0.65 0.78 0.95 1.18 1.27 1.33 1.42 1.56 1.62 1.57 1.56 1.63 1.64 1.63 1.53 1.46 1.49 1.56 1.52 1.51 1.43 1.33 1.34 1.42 1.50 1.49 1.43 1.33 1.22 1.16 1.10 0.96 0.97 0.91 0.69 0.61 0.55
0.50 0.53 0.53 0.59 0.64 0.63 0.59 0.61 0.71 0.92 1.09 1.13 1.16 1.24 1.41 1.45 1.41 1.44 1.51 1.53 1.47 1.39 1.43 1.52 1.47 1.47 1.44 1.41 1.39 1.39 1.35 1.39 1.39 1.33 1.27 1.18 1.09 1.03 1.10 1.15 1.00 0.84 0.69
0.43 0.47 0.49 0.52 0.50 0.51 0.55 0.58 0.63 0.70 0.77 0.82 0.90 0.99 1.10 1.21 1.21 1.19 1.26 1.31 1.28 1.27 1.30 1.42 1.44 1.41 1.42 1.40 1.37 1.33 1.28 1.26 1.27 1.25 1.21 1.14 1.05 1.02 1.07 1.18 1.28 1.22 0.99
0.33 0.35 0.37 0.37 0.34 0.36 0.43 0.50 0.53 0.56 0.61 0.62 0.67 0.78 0.84 0.96 1.07 1.10 1.12 1.18 1.19 1.16 1.15 1.18 1.23 1.25 1.25 1.25 1.27 1.23 1.16 1.13 1.11 1.09 1.07 1.03 0.96 0.93 0.96 1.06 1.23 1.45 1.38
0.26 0.29 0.32 0.31 0.28 0.27 0.29 0.33 0.41 0.52 0.57 0.53 0.55 0.63 0.71 0.77 0.86 0.94 0.99 0.98 0.97 0.97 0.98 1.02 1.02 1.04 1.07 1.12 1.17 1.15 1.08 1.07 1.02 1.00 1.00 0.97 0.93 0.93 0.96 1.02 1.11 1.25 1.38
0.23 0.24 0.24 0.24 0.25 0.23 0.22 0.25 0.32 0.42 0.48 0.47 0.48 0.51 0.56 0.61 0.66 0.71 0.77 0.78 0.78 0.79 0.83 0.89 0.94 0.95 0.95 0.95 1.01 1.08 1.08 1.04 1.00 0.96 0.94 0.91 0.89 0.90 0.91 0.96 1.02 1.07 1.16
0.24 0.22 0.20 0.19 0.21 0.21 0.22 0.23 0.29 0.35 0.41 0.43 0.43 0.46 0.49 0.50 0.54 0.60 0.60 0.62 0.64 0.65 0.65 0.68 0.74 0.79 0.81 0.82 0.83 0.87 0.92 0.94 0.93 0.93 0.95 0.95 0.95 0.98 1.00 1.02 1.02 1.01 1.02
0.26 0.24 0.20 0.19 0.21 0.21 0.22 0.22 0.26 0.32 0.36 0.40 0.40 0.41 0.42 0.43 0.45 0.51 0.54 0.56 0.61 0.65 0.68 0.63 0.62 0.65 0.68 0.74 0.75 0.74 0.78 0.82 0.84 0.86 0.90 0.94 0.99 1.04 1.04 1.03 1.01 0.98 0.95
0.26 0.27 0.28 0.24 0.22 0.22 0.19 0.19 0.21 0.26 0.31 0.34 0.36 0.37 0.41 0.42 0.41 0.43 0.47 0.51 0.55 0.60 0.61 0.62 0.61 0.61 0.62 0.68 0.75 0.78 0.78 0.83 0.87 0.88 0.89 0.91 0.93 0.93 0.93 0.91 0.88 0.90 0.90
0.24 0.25 0.26 0.26 0.25 0.23 0.21 0.18 0.18 0.21 0.25 0.29 0.32 0.35 0.39 0.41 0.43 0.43 0.45 0.48 0.50 0.55 0.57 0.60 0.61 0.62 0.64 0.69 0.77 0.83 0.84 0.86 0.91 0.94 0.92 0.88 0.85 0.80 0.78 0.78 0.77 0.77 0.84
0.22 0.23 0.21 0.23 0.22 0.24 0.24 0.22 0.21 0.21 0.23 0.26 0.27 0.30 0.34 0.37 0.41 0.44 0.44 0.45 0.49 0.55 0.59 0.65 0.71 0.74 0.79 0.94 0.97 0.93 0.91 0.90 0.87 0.84 0.80 0.78 0.78 0.75 0.78 0.77 0.77 0.82 0.92
0.15 0.17 0.19 0.21 0.20 0.20 0.20 0.19 0.19 0.19 0.21 0.24 0.25 0.28 0.31 0.36 0.39 0.45 0.48 0.53 0.59 0.66 0.72 0.76 0.86 0.89 0.92 0.97 0.90 0.88 0.84 0.85 0.83 0.76 0.70 0.66 0.62 0.63 0.59 0.66 0.72 0.74 0.80
0.09 0.10 0.12 0.14 0.14 0.14 0.15 0.17 0.16 0.17 0.19 0.23 0.28 0.31 0.33 0.42 0.49 0.51 0.56 0.63 0.70 0.78 0.84 0.84 0.86 0.89 0.89 0.88 0.80 0.78 0.68 0.65 0.64 0.62 0.58 0.53 0.52 0.52 0.56 0.62 0.68 0.61 0.57
0.10 0.09 0.10 0.12 0.12 0.13 0.14 0.17 0.19 0.20 0.20 0.24 0.30 0.35 0.37 0.47 0.57 0.58 0.62 0.67 0.72 0.79 0.82 0.81 0.77 0.71 0.70 0.69 0.62 0.60 0.54 0.52 0.50 0.49 0.51 0.53 0.49 0.55 0.69 0.71 0.69 0.56 0.47
0.11 0.12 0.12 0.13 0.16 0.18 0.20 0.22 0.25 0.30 0.32 0.34 0.39 0.45 0.52 0.60 0.65 0.65 0.65 0.63 0.62 0.64 0.63 0.59 0.56 0.53 0.50 0.51 0.49 0.48 0.41 0.42 0.43 0.45 0.48 0.54 0.52 0.60 0.72 0.66 0.63 0.56 0.47
0.16 0.15 0.16 0.19 0.21 0.22 0.24 0.27 0.30 0.39 0.44 0.46 0.50 0.52 0.57 0.61 0.60 0.60 0.57 0.54 0.48 0.46 0.45 0.44 0.43 0.42 0.41 0.43 0.42 0.43 0.38 0.38 0.43 0.45 0.43 0.45 0.61 0.69 0.68 0.61 0.51 0.53 0.59
0.14 0.16 0.19 0.22 0.25 0.28 0.33 0.35 0.38 0.43 0.45 0.46 0.47 0.47 0.46 0.47 0.49 0.48 0.48 0.44 0.42 0.39 0.38 0.39 0.41 0.43 0.44 0.44 0.44 0.48 0.51 0.52 0.47 0.42 0.38 0.44 0.62 0.62 0.56 0.50 0.53 0.62 0.59
0.13 0.16 0.20 0.25 0.28 0.29 0.33 0.35 0.36 0.36 0.36 0.37 0.37 0.35 0.32 0.32 0.34 0.34 0.36 0.37 0.36 0.35 0.36 0.39 0.42 0.44 0.45 0.49 0.53 0.54 0.61 0.62 0.53 0.50 0.57 0.60 0.56 0.49 0.46 0.47 0.51 0.51 0.48
0.10 0.13 0.15 0.17 0.20 0.22 0.24 0.25 0.25 0.25 0.24 0.24 0.25 0.25 0.23 0.24 0.26 0.27 0.30 0.31 0.32 0.32 0.32 0.36 0.42 0.43 0.42 0.44 0.50 0.54 0.58 0.61 0.59 0.60 0.63 0.57 0.48 0.43 0.43 0.46 0.46 0.44 0.46
0.10 0.10 0.10 0.11 0.13 0.14 0.15 0.16 0.15 0.16 0.18 0.18 0.18 0.19 0.21 0.22 0.24 0.27 0.30 0.34 0.34 0.39 0.39 0.36 0.38 0.41 0.42 0.45 0.59 0.61 0.59 0.64 0.69 0.67 0.54 0.46 0.43 0.42 0.40 0.38 0.39 0.42 0.47
0.10 0.10 0.10 0.12 0.14 0.14 0.13 0.12 0.12 0.13 0.16 0.18 0.18 0.20 0.21 0.21 0.23 0.25 0.29 0.34 0.36 0.40 0.42 0.42 0.41 0.38 0.42 0.52 0.59 0.63 0.68 0.71 0.70 0.61 0.51 0.47 0.44 0.41 0.38 0.37 0.39 0.40 0.44

GEFSMW_prec_meanprecacc_198.txt.gz
Total_Precipitation_Accumulation
0.88 1.03 1.17 1.45 1.67 1.89 2.14 2.22 2.44 2.58 2.68 2.73 2.63 2.45 2.28 2.14 2.00 1.88 1.78 1.66 1.53 1.42 1.26 1.15 1.12 1.13 1.10 0.99 0.93 0.88 0.78 0.72 0.72 0.69 0.57 0.46 0.40 0.35 0.31 0.33 0.34 0.31 0.28
0.73 0.83 0.96 1.20 1.37 1.53 1.70 1.82 1.99 2.20 2.36 2.44 2.40 2.43 2.46 2.31 2.09 1.96 1.85 1.75 1.68 1.56 1.40 1.25 1.20 1.18 1.16 1.07 1.01 1.05 1.02 0.92 0.88 0.86 0.84 0.69 0.54 0.40 0.34 0.34 0.34 0.33 0.33
0.62 0.68 0.77 1.00 1.13 1.24 1.40 1.51 1.64 1.78 1.88 2.19 2.41 2.43 2.49 2.42 2.14 1.89 1.73 1.76 1.83 1.76 1.59 1.42 1.38 1.34 1.33 1.26 1.17 1.14 1.12 1.11 1.06 1.07 1.16 0.99 0.73 0.52 0.41 0.38 0.37 0.37 0.37
0.64 0.68 0.73 0.86 0.94 1.00 1.17 1.32 1.46 1.55 1.61 1.85 2.09 2.10 1.99 1.93 1.84 1.78 1.80 1.82 1.86 1.88 1.85 1.74 1.60 1.52 1.48 1.43 1.48 1.49 1.38 1.31 1.18 1.10 1.06 1.05 0.88 0.82 0.63 0.45 0.42 0.41 0.39
0.57 0.65 0.68 0.73 0.81 0.82 0.90 1.06 1.30 1.39 1.43 1.51 1.68 1.90 1.91 1.84 1.86 1.87 1.83 1.75 1.67 1.75 1.85 1.84 1.73 1.58 1.47 1.39 1.43 1.50 1.53 1.42 1.30 1.21 1.15 1.11 1.00 0.90 0.87 0.66 0.49 0.46 0.43
0.55 0.59 0.56 0.59 0.71 0.70 0.69 0.82 0.98 1.23 1.35 1.39 1.46 1.60 1.68 1.65 1.65 1.73 1.77 1.77 1.66 1.59 1.63 1.69 1.62 1.58 1.51 1.43 1.43 1.50 1.57 1.55 1.47 1.35 1.24 1.19 1.12 0.98 0.99 0.92 0.71 0.63 0.56
0.50 0.53 0.54 0.60 0.65 0.65 0.60 0.63 0.73 0.93 1.11 1.17 1.19 1.28 1.44 1.50 1.48 1.53 1.63 1.66 1.59 1.52 1.56 1.66 1.60 1.56 1.51 1.49 1.48 1.48 1.44 1.46 1.45 1.36 1.28 1.19 1.12 1.06 1.13 1.17 1.01 0.85 0.71
0.44 0.47 0.49 0.52 0.51 0.52 0.56 0.59 0.65 0.71 0.79 0.84 0.91 1.01 1.12 1.23 1.25 1.26 1.36 1.44 1.40 1.39 1.43 1.55 1.59 1.56 1.54 1.49 1.46 1.41 1.35 1.33 1.33 1.28 1.22 1.15 1.07 1.05 1.11 1.21 1.30 1.23 1.00
0.33 0.35 0.37 0.38 0.35 0.37 0.45 0.51 0.54 0.57 0.62 0.63 0.68 0.79 0.85 0.97 1.10 1.14 1.18 1.28 1.30 1.27 1.25 1.29 1.36 1.41 1.41 1.40 1.40 1.35 1.25 1.20 1.18 1.15 1.10 1.05 0.98 0.95 0.99 1.10 1.27 1.48 1.40
0.26 0.29 0.32 0.32 0.29 0.28 0.30 0.34 0.41 0.53 0.58 0.54 0.56 0.63 0.72 0.79 0.87 0.96 1.01 1.04 1.02 1.03 1.05 1.09 1.12 1.15 1.19 1.22 1.28 1.27 1.20 1.17 1.10 1.07 1.06 1.01 0.96 0.96 0.99 1.06 1.15 1.29 1.41
0.24 0.25 0.26 0.26 0.26 0.24 0.23 0.26 0.33 0.42 0.49 0.48 0.49 0.51 0.56 0.62 0.68 0.73 0.79 0.81 0.82 0.83 0.86 0.92 0.99 1.02 1.03 1.04 1.10 1.17 1.17 1.14 1.08 1.03 1.01 0.98 0.94 0.94 0.95 0.99 1.05 1.11 1.20
0.25 0.23 0.21 0.21 0.24 0.23 0.23 0.24 0.29 0.36 0.42 0.44 0.45 0.47 0.49 0.50 0.55 0.62 0.62 0.63 0.67 0.68 0.68 0.69 0.77 0.83 0.86 0.88 0.90 0.94 0.99 1.02 1.01 1.00 1.01 1.02 1.02 1.04 1.04 1.05 1.04 1.04 1.04
0.26 0.25 0.22 0.20 0.22 0.24 0.24 0.23 0.27 0.32 0.36 0.40 0.41 0.42 0.44 0.44 0.46 0.52 0.55 0.57 0.63 0.67 0.69 0.64 0.63 0.67 0.71 0.77 0.79 0.78 0.82 0.87 0.90 0.91 0.95 0.99 1.04 1.10 1.10 1.08 1.04 1.00 0.96
0.27 0.27 0.29 0.25 0.23 0.23 0.21 0.20 0.22 0.27 0.31 0.34 0.37 0.38 0.42 0.43 0.42 0.44 0.48 0.52 0.56 0.61 0.62 0.64 0.62 0.62 0.64 0.71 0.78 0.81 0.82 0.86 0.90 0.92 0.94 0.95 0.96 0.96 0.96 0.95 0.92 0.93 0.93
0.25 0.25 0.26 0.27 0.25 0.24 0.22 0.20 0.19 0.22 0.26 0.30 0.33 0.36 0.40 0.43 0.44 0.44 0.46 0.49 0.51 0.57 0.59 0.61 0.63 0.63 0.65 0.71 0.79 0.86 0.87 0.90 0.94 0.97 0.96 0.92 0.89 0.83 0.81 0.81 0.81 0.80 0.86
0.23 0.23 0.22 0.23 0.22 0.25 0.26 0.24 0.22 0.21 0.24 0.27 0.29 0.31 0.35 0.38 0.43 0.45 0.46 0.47 0.51 0.57 0.61 0.66 0.72 0.75 0.80 0.95 0.99 0.96 0.94 0.93 0.90 0.87 0.83 0.82 0.82 0.79 0.81 0.80 0.80 0.84 0.94
0.15 0.18 0.19 0.21 0.20 0.20 0.21 0.22 0.21 0.20 0.22 0.25 0.27 0.30 0.33 0.37 0.41 0.47 0.51 0.57 0.61 0.68 0.74 0.78 0.87 0.90 0.93 0.99 0.92 0.90 0.86 0.89 0.86 0.79 0.73 0.69 0.65 0.67 0.62 0.69 0.75 0.77 0.83
0.09 0.10 0.12 0.14 0.14 0.14 0.15 0.18 0.19 0.18 0.20 0.24 0.30 0.33 0.35 0.44 0.51 0.53 0.59 0.68 0.73 0.80 0.86 0.86 0.88 0.90 0.90 0.89 0.82 0.80 0.70 0.68 0.68 0.65 0.61 0.56 0.55 0.56 0.59 0.65 0.72 0.64 0.59
0.10 0.09 0.10 0.12 0.12 0.13 0.15 0.18 0.21 0.22 0.21 0.25 0.32 0.37 0.38 0.49 0.59 0.60 0.64 0.71 0.76 0.82 0.84 0.83 0.79 0.73 0.71 0.71 0.64 0.61 0.56 0.55 0.53 0.53 0.55 0.57 0.52 0.59 0.73 0.75 0.72 0.60 0.49
0.11 0.12 0.12 0.13 0.16 0.18 0.20 0.23 0.26 0.32 0.34 0.35 0.40 0.47 0.53 0.62 0.67 0.67 0.67 0.66 0.67 0.69 0.66 0.62 0.58 0.55 0.51 0.53 0.51 0.49 0.43 0.45 0.46 0.48 0.52 0.59 0.57 0.66 0.77 0.69 0.66 0.59 0.50
0.16 0.15 0.16 0.19 0.21 0.22 0.24 0.27 0.31 0.41 0.45 0.47 0.51 0.54 0.59 0.62 0.63 0.62 0.60 0.56 0.52 0.52 0.49 0.47 0.46 0.45 0.44 0.45 0.44 0.44 0.40 0.41 0.46 0.48 0.47 0.49 0.67 0.75 0.74 0.65 0.55 0.58 0.63
0.14 0.17 0.19 0.22 0.25 0.29 0.34 0.36 0.38 0.44 0.46 0.47 0.49 0.49 0.49 0.50 0.52 0.52 0.52 0.49 0.47 0.46 0.45 0.43 0.45 0.46 0.47 0.47 0.47 0.50 0.53 0.55 0.50 0.45 0.42 0.48 0.66 0.67 0.61 0.54 0.57 0.67 0.64
0.13 0.16 0.21 0.25 0.29 0.30 0.33 0.36 0.36 0.36 0.37 0.38 0.39 0.38 0.36 0.36 0.38 0.39 0.40 0.41 0.41 0.41 0.43 0.45 0.46 0.47 0.49 0.53 0.56 0.56 0.64 0.65 0.56 0.53 0.60 0.64 0.60 0.53 0.50 0.51 0.56 0.55 0.51
0.10 0.13 0.15 0.17 0.20 0.22 0.24 0.26 0.26 0.26 0.26 0.26 0.28 0.29 0.27 0.27 0.29 0.29 0.33 0.35 0.37 0.37 0.38 0.42 0.46 0.47 0.46 0.48 0.55 0.58 0.62 0.65 0.62 0.63 0.66 0.60 0.52 0.47 0.47 0.50 0.49 0.47 0.49
0.10 0.10 0.11 0.12 0.13 0.15 0.16 0.17 0.17 0.18 0.20 0.20 0.20 0.22 0.24 0.24 0.26 0.29 0.33 0.37 0.39 0.44 0.43 0.41 0.42 0.45 0.46 0.50 0.63 0.66 0.63 0.68 0.72 0.70 0.57 0.49 0.46 0.46 0.43 0.42 0.42 0.45 0.49
0.10 0.10 0.10 0.12 0.15 0.15 0.13 0.13 0.12 0.14 0.17 0.19 0.19 0.21 0.23 0.23 0.25 0.27 0.32 0.37 0.40 0.45 0.47 0.47 0.45 0.41 0.46 0.56 0.63 0.67 0.72 0.75 0.73 0.65 0.54 0.50 0.46 0.44 0.41 0.39 0.41 0.42 0.47

GEFSMW_prec_meanprecacc_204.txt.gz
Total_Precipitation_Accumulation
0.89 1.06 1.23 1.53 1.74 1.99 2.23 2.29 2.51 2.68 2.81 2.82 2.67 2.48 2.31 2.18 2.05 1.94 1.86 1.74 1.63 1.54 1.38 1.24 1.20 1.21 1.15 1.04 0.97 0.92 0.82 0.78 0.80 0.77 0.62 0.51 0.44 0.37 0.33 0.35 0.36 0.33 0.30
0.74 0.85 1.00 1.26 1.45 1.61 1.78 1.89 2.05 2.27 2.47 2.54 2.44 2.46 2.50 2.35 2.15 2.03 1.93 1.84 1.76 1.67 1.53 1.37 1.29 1.26 1.22 1.12 1.06 1.10 1.07 0.98 0.96 0.94 0.90 0.74 0.57 0.43 0.37 0.37 0.36 0.35 0.35
0.63 0.69 0.80 1.03 1.18 1.30 1.48 1.58 1.69 1.84 1.94 2.26 2.46 2.47 2.54 2.47 2.20 1.96 1.80 1.84 1.91 1.87 1.71 1.55 1.48 1.42 1.39 1.31 1.22 1.19 1.17 1.16 1.13 1.14 1.21 1.03 0.77 0.55 0.43 0.40 0.39 0.39 0.38
0.65 0.70 0.75 0.89 0.97 1.04 1.22 1.38 1.51 1.61 1.65 1.89 2.13 2.14 2.04 1.99 1.91 1.86 1.89 1.90 1.93 1.97 1.94 1.82 1.68 1.58 1.52 1.46 1.53 1.55 1.45 1.37 1.24 1.17 1.12 1.08 0.91 0.85 0.65 0.47 0.44 0.43 0.41
0.59 0.67 0.70 0.75 0.83 0.85 0.94 1.11 1.35 1.43 1.46 1.55 1.72 1.93 1.96 1.90 1.93 1.95 1.93 1.86 1.77 1.83 1.91 1.90 1.79 1.62 1.49 1.41 1.45 1.54 1.59 1.49 1.38 1.29 1.21 1.16 1.03 0.93 0.91 0.69 0.52 0.49 0.45
0.56 0.60 0.57 0.60 0.72 0.72 0.72 0.85 1.02 1.26 1.37 1.42 1.50 1.64 1.72 1.69 1.71 1.80 1.85 1.88 1.78 1.68 1.71 1.74 1.67 1.63 1.54 1.44 1.44 1.52 1.59 1.60 1.54 1.43 1.31 1.24 1.16 1.00 1.01 0.95 0.74 0.66 0.58
0.51 0.54 0.55 0.61 0.67 0.66 0.62 0.66 0.76 0.96 1.14 1.20 1.22 1.30 1.47 1.54 1.52 1.57 1.68 1.74 1.71 1.63 1.65 1.73 1.66 1.62 1.55 1.51 1.50 1.50 1.45 1.49 1.50 1.43 1.35 1.25 1.15 1.09 1.15 1.19 1.04 0.88 0.75
0.44 0.48 0.50 0.53 0.52 0.54 0.57 0.61 0.68 0.75 0.81 0.86 0.94 1.04 1.15 1.26 1.28 1.29 1.39 1.47 1.46 1.47 1.51 1.62 1.66 1.63 1.60 1.55 1.51 1.47 1.40 1.38 1.40 1.36 1.29 1.21 1.11 1.08 1.13 1.23 1.32 1.26 1.03
0.33 0.35 0.38 0.38 0.36 0.38 0.47 0.53 0.55 0.59 0.65 0.66 0.70 0.82 0.88 1.00 1.12 1.16 1.21 1.30 1.33 1.31 1.30 1.35 1.43 1.47 1.48 1.48 1.49 1.45 1.35 1.29 1.27 1.23 1.19 1.13 1.04 0.99 1.03 1.13 1.29 1.51 1.44
0.26 0.29 0.33 0.33 0.29 0.29 0.31 0.35 0.43 0.55 0.60 0.56 0.58 0.66 0.74 0.81 0.89 0.98 1.04 1.06 1.06 1.07 1.09 1.14 1.17 1.22 1.26 1.30 1.37 1.37 1.32 1.29 1.22 1.18 1.15 1.11 1.05 1.03 1.04 1.09 1.18 1.31 1.44
0.24 0.25 0.26 0.27 0.27 0.25 0.24 0.27 0.33 0.44 0.50 0.51 0.52 0.54 0.59 0.65 0.70 0.75 0.80 0.82 0.83 0.85 0.88 0.95 1.02 1.06 1.08 1.09 1.16 1.24 1.25 1.23 1.17 1.13 1.11 1.08 1.03 1.04 1.02 1.05 1.10 1.15 1.23
0.25 0.23 0.21 0.21 0.24 0.24 0.24 0.25 0.30 0.36 0.43 0.46 0.48 0.51 0.52 0.53 0.58 0.63 0.63 0.65 0.68 0.70 0.69 0.70 0.78 0.85 0.88 0.90 0.94 0.98 1.03 1.07 1.06 1.05 1.08 1.09 1.09 1.12 1.13 1.13 1.12 1.09 1.09
0.26 0.25 0.22 0.21 0.23 0.24 0.25 0.24 0.27 0.33 0.37 0.41 0.43 0.46 0.47 0.47 0.49 0.54 0.57 0.59 0.64 0.69 0.71 0.65 0.64 0.68 0.72 0.78 0.81 0.81 0.85 0.90 0.93 0.95 1.00 1.03 1.09 1.15 1.16 1.14 1.10 1.05 1.01
0.27 0.27 0.29 0.25 0.24 0.24 0.22 0.21 0.23 0.27 0.32 0.34 0.37 0.40 0.45 0.46 0.45 0.47 0.50 0.54 0.58 0.63 0.63 0.65 0.64 0.63 0.65 0.72 0.79 0.82 0.83 0.88 0.92 0.94 0.96 0.97 0.98 0.98 0.98 0.97 0.95 0.96 0.97
0.25 0.26 0.27 0.27 0.26 0.25 0.24 0.21 0.21 0.23 0.27 0.31 0.33 0.36 0.42 0.45 0.47 0.46 0.49 0.51 0.53 0.58 0.60 0.62 0.63 0.64 0.66 0.72 0.80 0.86 0.88 0.90 0.95 0.98 0.97 0.93 0.90 0.84 0.83 0.83 0.82 0.82 0.89
0.23 0.24 0.22 0.24 0.23 0.26 0.28 0.26 0.24 0.23 0.25 0.28 0.29 0.32 0.36 0.40 0.45 0.48 0.48 0.50 0.53 0.58 0.62 0.67 0.73 0.76 0.81 0.96 1.00 0.96 0.95 0.94 0.91 0.88 0.85 0.83 0.83 0.80 0.82 0.82 0.81 0.86 0.95
0.15 0.18 0.19 0.21 0.21 0.21 0.23 0.24 0.24 0.22 0.23 0.26 0.27 0.30 0.34 0.39 0.42 0.48 0.53 0.59 0.63 0.70 0.76 0.79 0.88 0.91 0.94 0.99 0.92 0.91 0.87 0.89 0.87 0.80 0.74 0.71 0.66 0.68 0.63 0.70 0.76 0.78 0.84
0.09 0.10 0.13 0.14 0.14 0.15 0.16 0.21 0.21 0.21 0.22 0.26 0.31 0.34 0.36 0.45 0.52 0.54 0.60 0.69 0.75 0.82 0.88 0.87 0.89 0.91 0.91 0.90 0.83 0.81 0.71 0.69 0.69 0.67 0.62 0.58 0.57 0.57 0.61 0.67 0.74 0.65 0.60
0.10 0.09 0.10 0.13 0.13 0.14 0.16 0.20 0.23 0.24 0.24 0.27 0.33 0.38 0.40 0.50 0.60 0.61 0.65 0.72 0.78 0.84 0.86 0.84 0.80 0.74 0.72 0.72 0.65 0.63 0.57 0.56 0.54 0.54 0.56 0.58 0.54 0.61 0.75 0.77 0.75 0.62 0.51
0.11 0.12 0.12 0.13 0.16 0.19 0.21 0.25 0.28 0.35 0.37 0.37 0.41 0.48 0.55 0.63 0.68 0.68 0.68 0.67 0.68 0.70 0.68 0.64 0.60 0.56 0.53 0.55 0.52 0.51 0.45 0.46 0.47 0.49 0.53 0.60 0.59 0.67 0.78 0.71 0.69 0.62 0.53
0.16 0.15 0.16 0.19 0.22 0.22 0.24 0.28 0.32 0.42 0.48 0.50 0.52 0.55 0.60 0.63 0.63 0.63 0.60 0.57 0.54 0.54 0.52 0.50 0.48 0.47 0.46 0.48 0.47 0.47 0.42 0.42 0.47 0.49 0.48 0.50 0.68 0.76 0.75 0.67 0.57 0.61 0.66
0.14 0.17 0.20 0.23 0.25 0.29 0.34 0.36 0.39 0.44 0.48 0.50 0.51 0.50 0.50 0.51 0.53 0.53 0.53 0.50 0.48 0.48 0.47 0.47 0.49 0.50 0.51 0.50 0.50 0.53 0.55 0.56 0.51 0.46 0.42 0.49 0.68 0.68 0.62 0.56 0.59 0.70 0.67
0.13 0.16 0.21 0.26 0.29 0.31 0.34 0.37 0.37 0.37 0.39 0.40 0.42 0.41 0.38 0.37 0.38 0.40 0.42 0.43 0.43 0.43 0.46 0.48 0.50 0.51 0.52 0.55 0.59 0.59 0.66 0.67 0.57 0.54 0.61 0.64 0.61 0.54 0.51 0.54 0.59 0.58 0.54
0.11 0.13 0.16 0.18 0.21 0.22 0.25 0.27 0.27 0.27 0.27 0.28 0.31 0.32 0.30 0.28 0.30 0.31 0.34 0.36 0.38 0.38 0.39 0.43 0.48 0.50 0.48 0.50 0.56 0.59 0.64 0.66 0.64 0.64 0.67 0.61 0.53 0.48 0.48 0.52 0.52 0.50 0.52
0.10 0.11 0.11 0.12 0.14 0.15 0.16 0.18 0.18 0.19 0.22 0.22 0.22 0.24 0.26 0.26 0.28 0.30 0.34 0.38 0.40 0.45 0.45 0.42 0.43 0.47 0.48 0.51 0.65 0.68 0.65 0.70 0.74 0.72 0.58 0.50 0.47 0.47 0.45 0.44 0.44 0.47 0.53
0.10 0.11 0.11 0.12 0.16 0.15 0.14 0.13 0.13 0.14 0.19 0.21 0.21 0.23 0.25 0.25 0.26 0.28 0.32 0.38 0.41 0.46 0.48 0.48 0.47 0.43 0.49 0.58 0.66 0.70 0.75 0.78 0.76 0.67 0.56 0.51 0.47 0.45 0.42 0.41 0.44 0.45 0.50

GEFSMW_prec_meanprecacc_210.txt.gz
Total_Precipitation_Accumulation
0.90 1.07 1.24 1.54 1.77 2.03 2.31 2.38 2.61 2.77 2.91 2.94 2.80 2.60 2.39 2.26 2.16 2.09 2.02 1.87 1.72 1.60 1.45 1.31 1.27 1.26 1.20 1.09 1.04 0.97 0.86 0.81 0.84 0.81 0.66 0.55 0.48 0.40 0.36 0.39 0.41 0.38 0.33
0.76 0.86 1.02 1.28 1.47 1.65 1.84 1.98 2.15 2.38 2.58 2.67 2.55 2.55 2.58 2.41 2.21 2.12 2.06 2.00 1.92 1.78 1.62 1.44 1.37 1.33 1.29 1.18 1.12 1.17 1.13 1.03 1.01 1.00 0.96 0.79 0.63 0.48 0.40 0.40 0.41 0.41 0.42
0.65 0.72 0.82 1.05 1.20 1.33 1.52 1.66 1.81 1.96 2.06 2.40 2.59 2.56 2.62 2.55 2.26 2.03 1.89 1.96 2.04 2.00 1.82 1.64 1.57 1.51 1.48 1.39 1.29 1.26 1.25 1.24 1.20 1.20 1.28 1.10 0.82 0.58 0.46 0.43 0.43 0.44 0.48
0.67 0.71 0.77 0.91 0.99 1.06 1.26 1.45 1.62 1.75 1.77 2.01 2.27 2.26 2.14 2.08 1.98 1.94 1.98 2.02 2.05 2.07 2.03 1.92 1.76 1.66 1.61 1.55 1.62 1.63 1.52 1.44 1.32 1.23 1.17 1.13 0.97 0.90 0.68 0.49 0.47 0.47 0.47
0.62 0.69 0.72 0.77 0.85 0.87 0.97 1.16 1.44 1.57 1.61 1.66 1.83 2.02 2.05 2.00 2.01 2.02 2.02 1.99 1.91 1.93 2.00 1.98 1.87 1.68 1.56 1.48 1.52 1.60 1.64 1.53 1.42 1.34 1.26 1.21 1.08 0.98 0.95 0.72 0.54 0.51 0.48
0.58 0.62 0.60 0.63 0.74 0.74 0.74 0.89 1.08 1.37 1.52 1.55 1.60 1.71 1.79 1.76 1.78 1.85 1.90 1.95 1.87 1.78 1.78 1.81 1.74 1.69 1.59 1.49 1.48 1.57 1.64 1.63 1.57 1.46 1.34 1.27 1.20 1.04 1.05 0.98 0.77 0.68 0.60
0.52 0.56 0.58 0.65 0.70 0.68 0.64 0.68 0.80 1.05 1.27 1.34 1.32 1.38 1.54 1.59 1.57 1.60 1.70 1.77 1.75 1.68 1.71 1.79 1.72 1.67 1.60 1.56 1.54 1.54 1.51 1.53 1.53 1.46 1.37 1.26 1.17 1.11 1.18 1.22 1.06 0.90 0.77
0.45 0.49 0.52 0.56 0.55 0.56 0.59 0.63 0.71 0.80 0.91 1.00 1.06 1.11 1.21 1.31 1.32 1.31 1.41 1.49 1.49 1.50 1.54 1.67 1.71 1.68 1.65 1.60 1.57 1.52 1.45 1.42 1.43 1.38 1.31 1.23 1.12 1.09 1.15 1.25 1.35 1.29 1.05
0.34 0.36 0.39 0.41 0.39 0.41 0.49 0.55 0.58 0.63 0.71 0.75 0.80 0.89 0.94 1.05 1.16 1.20 1.25 1.33 1.35 1.33 1.33 1.39 1.47 1.52 1.53 1.53 1.54 1.52 1.42 1.34 1.32 1.27 1.22 1.15 1.06 1.01 1.04 1.15 1.32 1.54 1.47
0.27 0.29 0.33 0.34 0.31 0.31 0.33 0.37 0.44 0.57 0.65 0.62 0.65 0.72 0.79 0.85 0.93 1.02 1.07 1.10 1.09 1.10 1.11 1.16 1.20 1.26 1.30 1.34 1.42 1.43 1.39 1.36 1.28 1.23 1.19 1.14 1.08 1.05 1.06 1.11 1.20 1.34 1.47
0.24 0.26 0.26 0.28 0.29 0.27 0.26 0.28 0.35 0.45 0.54 0.55 0.56 0.58 0.63 0.69 0.73 0.78 0.83 0.86 0.87 0.88 0.91 0.97 1.04 1.09 1.11 1.13 1.20 1.28 1.31 1.30 1.24 1.19 1.16 1.13 1.07 1.07 1.05 1.07 1.12 1.17 1.25
0.26 0.24 0.22 0.22 0.26 0.26 0.26 0.26 0.31 0.37 0.46 0.50 0.53 0.55 0.55 0.57 0.62 0.67 0.67 0.67 0.70 0.71 0.70 0.72 0.79 0.86 0.89 0.92 0.96 1.01 1.08 1.12 1.11 1.11 1.13 1.13 1.14 1.17 1.17 1.17 1.15 1.13 1.12
0.27 0.25 0.22 0.21 0.24 0.26 0.26 0.25 0.28 0.34 0.38 0.44 0.47 0.50 0.51 0.50 0.52 0.57 0.60 0.62 0.67 0.71 0.73 0.67 0.65 0.69 0.73 0.79 0.82 0.82 0.87 0.93 0.97 0.99 1.03 1.08 1.13 1.20 1.20 1.19 1.15 1.10 1.05
0.28 0.28 0.30 0.26 0.24 0.24 0.22 0.22 0.24 0.29 0.32 0.37 0.40 0.42 0.49 0.49 0.48 0.49 0.52 0.56 0.60 0.66 0.67 0.69 0.66 0.65 0.67 0.73 0.80 0.83 0.84 0.90 0.94 0.96 0.98 0.99 1.01 1.01 1.02 1.02 1.00 1.01 1.01
0.26 0.26 0.27 0.28 0.27 0.26 0.24 0.22 0.21 0.24 0.28 0.32 0.35 0.37 0.43 0.48 0.50 0.49 0.50 0.53 0.55 0.61 0.63 0.65 0.67 0.67 0.68 0.73 0.81 0.87 0.89 0.92 0.97 1.00 0.99 0.94 0.92 0.87 0.86 0.86 0.85 0.86 0.93
0.23 0.24 0.22 0.25 0.24 0.26 0.28 0.27 0.25 0.24 0.26 0.29 0.31 0.33 0.36 0.41 0.46 0.50 0.51 0.51 0.54 0.61 0.65 0.70 0.75 0.78 0.82 0.97 1.01 0.97 0.96 0.95 0.93 0.89 0.86 0.84 0.84 0.82 0.84 0.84 0.83 0.88 0.99
0.15 0.18 0.19 0.21 0.21 0.22 0.24 0.25 0.25 0.23 0.25 0.27 0.28 0.31 0.35 0.39 0.42 0.49 0.54 0.61 0.64 0.72 0.78 0.81 0.90 0.93 0.95 1.00 0.93 0.92 0.88 0.91 0.88 0.81 0.75 0.71 0.67 0.69 0.65 0.72 0.78 0.80 0.86
0.09 0.10 0.13 0.14 0.14 0.15 0.17 0.21 0.22 0.23 0.23 0.27 0.33 0.35 0.37 0.46 0.53 0.54 0.61 0.70 0.77 0.83 0.89 0.88 0.90 0.92 0.93 0.92 0.84 0.82 0.72 0.70 0.70 0.68 0.63 0.59 0.58 0.59 0.62 0.69 0.76 0.67 0.62
0.10 0.10 0.10 0.13 0.13 0.14 0.16 0.20 0.24 0.25 0.25 0.28 0.35 0.39 0.41 0.51 0.61 0.61 0.65 0.73 0.79 0.85 0.87 0.86 0.82 0.76 0.73 0.73 0.66 0.64 0.58 0.57 0.55 0.55 0.57 0.59 0.55 0.63 0.77 0.79 0.77 0.64 0.52
0.12 0.13 0.13 0.14 0.17 0.19 0.22 0.26 0.29 0.37 0.39 0.39 0.43 0.50 0.57 0.65 0.69 0.69 0.69 0.68 0.69 0.71 0.70 0.66 0.61 0.57 0.54 0.56 0.53 0.52 0.46 0.47 0.48 0.51 0.55 0.62 0.60 0.69 0.81 0.74 0.71 0.64 0.54
0.17 0.16 0.17 0.19 0.22 0.23 0.25 0.30 0.34 0.45 0.52 0.53 0.56 0.58 0.63 0.66 0.66 0.65 0.62 0.58 0.55 0.55 0.54 0.52 0.51 0.49 0.48 0.49 0.48 0.48 0.43 0.44 0.48 0.51 0.49 0.52 0.70 0.78 0.77 0.69 0.59 0.63 0.68
0.15 0.17 0.20 0.23 0.25 0.29 0.35 0.38 0.41 0.47 0.51 0.53 0.55 0.54 0.54 0.54 0.56 0.56 0.55 0.52 0.50 0.50 0.49 0.50 0.52 0.53 0.53 0.52 0.52 0.55 0.57 0.58 0.54 0.48 0.44 0.50 0.69 0.69 0.64 0.58 0.61 0.72 0.69
0.14 0.17 0.22 0.26 0.29 0.31 0.34 0.38 0.38 0.39 0.41 0.43 0.45 0.44 0.41 0.40 0.42 0.43 0.45 0.46 0.45 0.45 0.48 0.50 0.52 0.54 0.55 0.58 0.61 0.61 0.68 0.69 0.59 0.56 0.62 0.66 0.62 0.56 0.52 0.55 0.60 0.60 0.56
0.12 0.14 0.17 0.19 0.22 0.23 0.25 0.28 0.27 0.28 0.29 0.31 0.34 0.35 0.32 0.31 0.32 0.33 0.36 0.39 0.40 0.40 0.41 0.45 0.50 0.52 0.50 0.52 0.58 0.61 0.66 0.68 0.65 0.66 0.68 0.62 0.54 0.49 0.49 0.52 0.53 0.51 0.54
0.12 0.12 0.13 0.14 0.16 0.16 0.17 0.19 0.19 0.20 0.23 0.24 0.25 0.27 0.29 0.29 0.31 0.33 0.36 0.40 0.41 0.46 0.46 0.44 0.45 0.49 0.50 0.52 0.66 0.69 0.66 0.71 0.75 0.73 0.59 0.50 0.48 0.47 0.45 0.44 0.45 0.48 0.54
0.12 0.12 0.12 0.14 0.17 0.17 0.15 0.15 0.14 0.16 0.21 0.23 0.24 0.26 0.28 0.29 0.29 0.32 0.35 0.40 0.43 0.48 0.50 0.50 0.49 0.45 0.50 0.60 0.67 0.71 0.76 0.80 0.77 0.68 0.57 0.53 0.48 0.46 0.43 0.42 0.45 0.46 0.51

GEFSMW_prec_meanprecacc_216.txt.gz
Total_Precipitation_Accumulation
0.90 1.07 1.25 1.55 1.78 2.05 2.32 2.39 2.63 2.80 2.96 3.03 2.95 2.76 2.51 2.33 2.23 2.17 2.11 1.94 1.77 1.66 1.51 1.40 1.36 1.34 1.27 1.15 1.09 1.03 0.91 0.86 0.88 0.84 0.69 0.57 0.51 0.45 0.40 0.41 0.42 0.39 0.36
0.76 0.87 1.02 1.28 1.48 1.66 1.85 2.00 2.18 2.41 2.62 2.74 2.70 2.71 2.71 2.50 2.27 2.18 2.14 2.10 2.02 1.89 1.70 1.53 1.48 1.44 1.39 1.26 1.20 1.23 1.19 1.07 1.06 1.05 1.00 0.82 0.65 0.50 0.44 0.44 0.43 0.42 0.44
0.65 0.72 0.82 1.06 1.21 1.34 1.53 1.67 1.83 1.99 2.11 2.47 2.71 2.71 2.78 2.66 2.33 2.08 1.94 2.01 2.11 2.11 1.94 1.75 1.68 1.61 1.59 1.50 1.41 1.36 1.33 1.30 1.25 1.25 1.35 1.16 0.87 0.63 0.51 0.50 0.47 0.46 0.49
0.68 0.72 0.77 0.91 0.99 1.06 1.26 1.46 1.64 1.78 1.82 2.08 2.36 2.39 2.27 2.20 2.07 1.99 2.03 2.07 2.09 2.13 2.12 2.01 1.87 1.77 1.71 1.65 1.72 1.74 1.62 1.52 1.39 1.30 1.23 1.20 1.04 0.97 0.75 0.56 0.54 0.50 0.49
0.62 0.70 0.73 0.78 0.85 0.87 0.97 1.17 1.46 1.60 1.66 1.73 1.92 2.13 2.17 2.12 2.12 2.10 2.08 2.04 1.96 1.99 2.07 2.07 1.95 1.77 1.64 1.56 1.61 1.69 1.73 1.61 1.48 1.38 1.30 1.25 1.11 1.02 1.00 0.79 0.62 0.57 0.51
0.58 0.64 0.62 0.64 0.76 0.75 0.75 0.90 1.10 1.39 1.55 1.61 1.69 1.82 1.90 1.87 1.90 1.96 1.99 2.02 1.94 1.84 1.84 1.88 1.83 1.78 1.66 1.55 1.55 1.65 1.71 1.69 1.62 1.50 1.37 1.30 1.22 1.06 1.07 1.02 0.83 0.75 0.65
0.54 0.58 0.62 0.67 0.71 0.69 0.65 0.70 0.83 1.08 1.30 1.38 1.39 1.50 1.65 1.70 1.67 1.70 1.82 1.86 1.81 1.73 1.76 1.85 1.80 1.79 1.71 1.64 1.61 1.61 1.58 1.59 1.57 1.49 1.40 1.28 1.18 1.11 1.19 1.23 1.08 0.94 0.80
0.47 0.51 0.55 0.58 0.57 0.57 0.61 0.65 0.73 0.83 0.95 1.04 1.12 1.22 1.33 1.42 1.41 1.40 1.50 1.57 1.56 1.56 1.59 1.72 1.77 1.77 1.76 1.71 1.66 1.61 1.53 1.50 1.49 1.43 1.35 1.25 1.13 1.10 1.16 1.26 1.36 1.31 1.07
0.35 0.38 0.43 0.44 0.42 0.43 0.51 0.57 0.60 0.66 0.75 0.81 0.88 1.00 1.06 1.16 1.24 1.27 1.32 1.40 1.42 1.39 1.38 1.43 1.52 1.58 1.60 1.61 1.62 1.60 1.50 1.43 1.40 1.34 1.28 1.21 1.09 1.03 1.05 1.15 1.32 1.55 1.48
0.28 0.32 0.37 0.38 0.36 0.36 0.37 0.40 0.47 0.60 0.68 0.68 0.74 0.82 0.89 0.95 1.03 1.11 1.15 1.18 1.15 1.14 1.15 1.20 1.25 1.31 1.35 1.39 1.47 1.48 1.44 1.42 1.34 1.30 1.26 1.20 1.12 1.08 1.08 1.13 1.21 1.35 1.48
0.25 0.27 0.30 0.32 0.35 0.33 0.30 0.31 0.38 0.50 0.58 0.60 0.64 0.68 0.73 0.78 0.83 0.88 0.92 0.94 0.93 0.94 0.96 1.02 1.09 1.14 1.16 1.17 1.23 1.31 1.34 1.32 1.28 1.24 1.22 1.19 1.13 1.11 1.09 1.10 1.14 1.19 1.27
0.26 0.25 0.24 0.25 0.31 0.31 0.31 0.30 0.34 0.41 0.50 0.54 0.58 0.63 0.64 0.66 0.71 0.76 0.75 0.75 0.76 0.76 0.75 0.75 0.83 0.89 0.92 0.95 0.98 1.04 1.10 1.14 1.13 1.14 1.17 1.18 1.18 1.21 1.21 1.21 1.18 1.15 1.14
0.27 0.26 0.23 0.22 0.26 0.29 0.29 0.28 0.30 0.36 0.42 0.48 0.51 0.56 0.58 0.58 0.60 0.64 0.67 0.68 0.72 0.75 0.75 0.69 0.67 0.71 0.75 0.82 0.84 0.85 0.89 0.95 0.98 1.01 1.06 1.11 1.16 1.23 1.24 1.22 1.18 1.13 1.08
0.28 0.29 0.32 0.27 0.25 0.26 0.24 0.23 0.26 0.30 0.34 0.40 0.45 0.47 0.54 0.56 0.55 0.55 0.57 0.61 0.64 0.69 0.69 0.71 0.69 0.67 0.69 0.75 0.81 0.85 0.87 0.92 0.96 0.97 0.99 1.02 1.04 1.05 1.05 1.04 1.03 1.03 1.04
0.26 0.28 0.30 0.30 0.28 0.27 0.25 0.23 0.22 0.25 0.29 0.34 0.38 0.41 0.47 0.52 0.55 0.55 0.55 0.57 0.59 0.64 0.65 0.67 0.70 0.69 0.69 0.75 0.83 0.89 0.91 0.94 0.99 1.02 1.01 0.96 0.95 0.90 0.89 0.89 0.88 0.89 0.96
0.23 0.25 0.24 0.26 0.25 0.28 0.29 0.28 0.26 0.25 0.27 0.31 0.33 0.36 0.40 0.43 0.50 0.54 0.55 0.56 0.59 0.65 0.69 0.73 0.77 0.80 0.84 0.99 1.02 0.99 0.97 0.97 0.94 0.92 0.88 0.86 0.86 0.84 0.87 0.87 0.86 0.91 1.01
0.15 0.18 0.20 0.22 0.23 0.23 0.25 0.26 0.26 0.24 0.26 0.29 0.30 0.34 0.38 0.42 0.45 0.52 0.57 0.64 0.68 0.75 0.81 0.85 0.93 0.95 0.98 1.04 0.96 0.94 0.89 0.92 0.89 0.83 0.77 0.73 0.69 0.71 0.67 0.74 0.81 0.83 0.89
0.11 0.11 0.13 0.14 0.15 0.16 0.18 0.23 0.24 0.25 0.25 0.29 0.35 0.38 0.41 0.49 0.55 0.56 0.63 0.72 0.79 0.86 0.92 0.91 0.93 0.95 0.95 0.95 0.87 0.85 0.75 0.72 0.72 0.69 0.65 0.60 0.59 0.60 0.64 0.71 0.78 0.68 0.64
0.12 0.11 0.11 0.13 0.14 0.15 0.17 0.22 0.25 0.27 0.27 0.30 0.37 0.42 0.45 0.55 0.64 0.63 0.67 0.74 0.80 0.87 0.89 0.88 0.84 0.78 0.76 0.76 0.69 0.67 0.61 0.59 0.57 0.57 0.59 0.61 0.57 0.64 0.79 0.81 0.79 0.66 0.54
0.13 0.14 0.14 0.15 0.17 0.20 0.22 0.27 0.31 0.38 0.40 0.40 0.45 0.52 0.59 0.69 0.73 0.70 0.69 0.69 0.70 0.72 0.70 0.67 0.63 0.59 0.56 0.58 0.55 0.54 0.48 0.49 0.50 0.52 0.56 0.63 0.62 0.71 0.83 0.76 0.73 0.66 0.56
0.18 0.17 0.18 0.21 0.23 0.24 0.26 0.30 0.35 0.46 0.52 0.54 0.57 0.60 0.65 0.69 0.70 0.68 0.63 0.59 0.56 0.56 0.54 0.53 0.51 0.49 0.49 0.51 0.50 0.50 0.45 0.45 0.50 0.52 0.50 0.53 0.71 0.80 0.79 0.72 0.61 0.65 0.70
0.17 0.19 0.22 0.24 0.27 0.30 0.35 0.38 0.41 0.48 0.52 0.55 0.57 0.57 0.57 0.58 0.61 0.60 0.58 0.54 0.52 0.52 0.51 0.50 0.53 0.53 0.54 0.53 0.53 0.57 0.58 0.60 0.55 0.49 0.45 0.51 0.70 0.71 0.65 0.60 0.63 0.75 0.72
0.17 0.19 0.24 0.28 0.31 0.32 0.36 0.39 0.39 0.40 0.42 0.45 0.48 0.47 0.45 0.44 0.45 0.47 0.49 0.49 0.48 0.48 0.51 0.52 0.54 0.55 0.55 0.59 0.63 0.63 0.69 0.70 0.60 0.56 0.63 0.66 0.63 0.57 0.54 0.57 0.62 0.62 0.58
0.15 0.17 0.19 0.21 0.23 0.24 0.26 0.29 0.28 0.29 0.31 0.33 0.36 0.39 0.36 0.35 0.36 0.36 0.40 0.42 0.44 0.44 0.45 0.48 0.52 0.53 0.51 0.53 0.60 0.63 0.67 0.70 0.67 0.67 0.70 0.64 0.55 0.50 0.50 0.54 0.55 0.53 0.55
0.14 0.14 0.15 0.16 0.17 0.17 0.18 0.20 0.21 0.22 0.26 0.27 0.28 0.30 0.32 0.33 0.34 0.36 0.38 0.42 0.43 0.49 0.49 0.46 0.46 0.50 0.51 0.53 0.67 0.71 0.68 0.73 0.76 0.74 0.60 0.52 0.49 0.48 0.46 0.45 0.46 0.50 0.56
0.14 0.14 0.14 0.16 0.19 0.19 0.17 0.16 0.16 0.18 0.23 0.26 0.26 0.28 0.31 0.32 0.33 0.35 0.38 0.42 0.45 0.50 0.52 0.52 0.51 0.47 0.52 0.61 0.68 0.73 0.78 0.82 0.79 0.70 0.58 0.54 0.49 0.47 0.44 0.43 0.46 0.47 0.53

GEFSMW_prec_meanprecacc_222.txt.gz
Total_Precipitation_Accumulation
0.90 1.07 1.25 1.55 1.78 2.05 2.32 2.39 2.63 2.81 2.97 3.06 2.99 2.80 2.57 2.40 2.29 2.23 2.16 2.00 1.83 1.71 1.56 1.44 1.42 1.41 1.33 1.20 1.13 1.07 0.95 0.90 0.92 0.88 0.73 0.61 0.53 0.48 0.43 0.44 0.45 0.41 0.38
0.76 0.87 1.02 1.28 1.48 1.66 1.85 2.00 2.18 2.41 2.63 2.75 2.72 2.74 2.75 2.57 2.35 2.25 2.20 2.16 2.07 1.94 1.75 1.59 1.53 1.50 1.47 1.34 1.25 1.28 1.23 1.11 1.09 1.08 1.03 0.85 0.68 0.53 0.47 0.46 0.45 0.45 0.47
0.66 0.72 0.82 1.06 1.21 1.34 1.53 1.67 1.83 1.99 2.11 2.47 2.72 2.73 2.80 2.72 2.41 2.15 2.00 2.06 2.16 2.15 2.00 1.83 1.76 1.69 1.67 1.59 1.49 1.42 1.38 1.35 1.29 1.29 1.40 1.20 0.90 0.65 0.53 0.52 0.50 0.49 0.53
0.68 0.72 0.77 0.91 0.99 1.06 1.26 1.46 1.64 1.79 1.83 2.08 2.36 2.40 2.29 2.24 2.13 2.06 2.08 2.11 2.14 2.18 2.17 2.07 1.93 1.84 1.79 1.74 1.80 1.82 1.69 1.59 1.45 1.35 1.27 1.24 1.09 1.02 0.80 0.61 0.58 0.56 0.52
0.62 0.70 0.73 0.78 0.85 0.88 0.97 1.17 1.46 1.61 1.66 1.73 1.92 2.14 2.19 2.14 2.16 2.16 2.14 2.08 1.99 2.02 2.11 2.11 2.00 1.82 1.70 1.63 1.69 1.77 1.81 1.69 1.56 1.46 1.36 1.30 1.16 1.07 1.05 0.86 0.69 0.65 0.59
0.59 0.64 0.63 0.65 0.76 0.75 0.76 0.90 1.11 1.40 1.56 1.62 1.71 1.83 1.91 1.89 1.92 2.01 2.06 2.07 1.98 1.87 1.88 1.92 1.88 1.84 1.73 1.61 1.62 1.74 1.80 1.78 1.71 1.58 1.45 1.37 1.28 1.10 1.11 1.06 0.88 0.82 0.75
0.54 0.59 0.63 0.68 0.71 0.70 0.65 0.71 0.83 1.09 1.31 1.39 1.42 1.51 1.66 1.71 1.69 1.74 1.87 1.92 1.88 1.77 1.78 1.88 1.85 1.84 1.78 1.73 1.68 1.69 1.66 1.68 1.67 1.60 1.49 1.36 1.25 1.19 1.26 1.29 1.13 1.00 0.88
0.47 0.51 0.55 0.59 0.58 0.58 0.61 0.65 0.73 0.83 0.95 1.05 1.13 1.24 1.35 1.44 1.43 1.43 1.54 1.63 1.63 1.62 1.62 1.74 1.79 1.81 1.80 1.77 1.73 1.68 1.61 1.58 1.56 1.50 1.44 1.34 1.21 1.17 1.22 1.33 1.42 1.37 1.14
0.36 0.39 0.43 0.44 0.42 0.43 0.51 0.57 0.60 0.66 0.75 0.82 0.89 1.01 1.07 1.18 1.27 1.30 1.35 1.45 1.47 1.44 1.44 1.47 1.55 1.61 1.63 1.65 1.67 1.64 1.55 1.48 1.46 1.40 1.34 1.26 1.16 1.10 1.13 1.22 1.38 1.60 1.54
0.28 0.32 0.38 0.39 0.37 0.36 0.37 0.40 0.48 0.61 0.69 0.69 0.75 0.84 0.91 0.97 1.05 1.14 1.19 1.22 1.20 1.18 1.19 1.25 1.30 1.35 1.38 1.42 1.51 1.51 1.49 1.47 1.40 1.35 1.31 1.25 1.17 1.14 1.15 1.20 1.28 1.40 1.52
0.25 0.27 0.30 0.33 0.36 0.34 0.31 0.31 0.39 0.50 0.58 0.61 0.65 0.70 0.75 0.80 0.85 0.90 0.95 0.97 0.98 0.99 1.00 1.06 1.14 1.18 1.21 1.21 1.27 1.35 1.38 1.37 1.32 1.29 1.27 1.23 1.17 1.16 1.13 1.15 1.20 1.25 1.32
0.26 0.25 0.24 0.26 0.33 0.33 0.32 0.31 0.36 0.43 0.51 0.55 0.60 0.65 0.67 0.69 0.74 0.79 0.79 0.78 0.80 0.82 0.81 0.80 0.88 0.94 0.97 1.00 1.03 1.08 1.14 1.19 1.18 1.19 1.21 1.22 1.23 1.26 1.26 1.25 1.23 1.20 1.19
0.27 0.26 0.24 0.23 0.28 0.31 0.32 0.31 0.34 0.40 0.46 0.52 0.54 0.59 0.62 0.62 0.65 0.69 0.72 0.73 0.77 0.82 0.83 0.76 0.74 0.77 0.80 0.86 0.88 0.88 0.93 0.99 1.02 1.05 1.11 1.15 1.20 1.27 1.28 1.27 1.23 1.17 1.13
0.29 0.29 0.32 0.28 0.27 0.29 0.28 0.27 0.29 0.34 0.39 0.46 0.50 0.52 0.59 0.61 0.61 0.61 0.63 0.67 0.70 0.76 0.76 0.77 0.76 0.74 0.74 0.79 0.85 0.88 0.89 0.95 0.99 1.00 1.03 1.05 1.07 1.07 1.07 1.07 1.06 1.07 1.09
0.26 0.28 0.30 0.31 0.30 0.29 0.28 0.25 0.25 0.29 0.33 0.39 0.44 0.47 0.53 0.58 0.61 0.61 0.62 0.64 0.66 0.70 0.71 0.74 0.76 0.76 0.75 0.79 0.87 0.92 0.93 0.96 1.01 1.04 1.03 0.98 0.97 0.93 0.92 0.91 0.91 0.92 0.99
0.23 0.25 0.24 0.27 0.26 0.29 0.30 0.29 0.28 0.27 0.30 0.34 0.38 0.41 0.45 0.49 0.55 0.59 0.60 0.61 0.64 0.70 0.74 0.79 0.83 0.85 0.89 1.03 1.06 1.02 1.00 0.99 0.96 0.93 0.89 0.87 0.88 0.86 0.89 0.89 0.89 0.94 1.05
0.16 0.19 0.20 0.22 0.23 0.24 0.27 0.28 0.28 0.27 0.29 0.31 0.34 0.38 0.43 0.46 0.49 0.56 0.61 0.68 0.72 0.80 0.86 0.90 0.98 0.99 1.01 1.07 0.99 0.96 0.92 0.94 0.91 0.84 0.78 0.74 0.70 0.71 0.67 0.75 0.82 0.85 0.92
0.12 0.11 0.14 0.15 0.16 0.17 0.20 0.25 0.26 0.27 0.28 0.31 0.37 0.40 0.44 0.53 0.59 0.60 0.66 0.76 0.82 0.89 0.96 0.95 0.97 0.99 0.99 0.98 0.89 0.87 0.77 0.74 0.73 0.70 0.66 0.61 0.60 0.61 0.64 0.72 0.78 0.70 0.65
0.14 0.12 0.11 0.14 0.14 0.15 0.19 0.24 0.28 0.30 0.29 0.31 0.39 0.44 0.47 0.58 0.67 0.66 0.70 0.77 0.83 0.90 0.92 0.91 0.87 0.80 0.79 0.79 0.72 0.70 0.63 0.62 0.60 0.60 0.62 0.64 0.59 0.66 0.80 0.82 0.80 0.67 0.55
0.15 0.16 0.15 0.15 0.18 0.20 0.23 0.28 0.33 0.41 0.43 0.42 0.47 0.54 0.61 0.71 0.75 0.73 0.73 0.72 0.73 0.75 0.73 0.69 0.65 0.61 0.57 0.60 0.57 0.55 0.49 0.51 0.52 0.55 0.59 0.67 0.65 0.74 0.85 0.77 0.74 0.67 0.57
0.19 0.19 0.20 0.22 0.24 0.24 0.27 0.31 0.36 0.48 0.55 0.57 0.59 0.62 0.68 0.72 0.72 0.70 0.67 0.63 0.59 0.59 0.57 0.55 0.53 0.51 0.50 0.52 0.51 0.51 0.46 0.46 0.52 0.54 0.53 0.56 0.74 0.83 0.82 0.74 0.63 0.66 0.71
0.19 0.21 0.24 0.26 0.28 0.32 0.37 0.39 0.43 0.49 0.54 0.57 0.58 0.59 0.60 0.61 0.64 0.63 0.61 0.57 0.55 0.55 0.53 0.53 0.54 0.54 0.54 0.54 0.54 0.57 0.59 0.61 0.56 0.51 0.46 0.53 0.72 0.72 0.67 0.61 0.65 0.77 0.73
0.19 0.23 0.27 0.31 0.34 0.35 0.38 0.41 0.41 0.42 0.44 0.47 0.50 0.50 0.48 0.48 0.50 0.51 0.52 0.52 0.51 0.51 0.53 0.54 0.56 0.56 0.56 0.60 0.63 0.63 0.70 0.71 0.61 0.57 0.64 0.68 0.64 0.58 0.55 0.58 0.63 0.64 0.60
0.17 0.20 0.23 0.24 0.26 0.27 0.29 0.31 0.30 0.31 0.33 0.35 0.39 0.42 0.40 0.39 0.40 0.41 0.44 0.46 0.47 0.47 0.47 0.50 0.54 0.55 0.52 0.54 0.60 0.63 0.68 0.70 0.68 0.68 0.71 0.65 0.56 0.51 0.51 0.55 0.56 0.54 0.57
0.16 0.17 0.18 0.20 0.21 0.20 0.20 0.22 0.23 0.24 0.28 0.29 0.30 0.32 0.36 0.38 0.39 0.41 0.43 0.47 0.47 0.52 0.52 0.48 0.48 0.52 0.52 0.54 0.68 0.71 0.68 0.73 0.77 0.76 0.61 0.53 0.50 0.49 0.47 0.46 0.47 0.51 0.57
0.16 0.16 0.16 0.19 0.23 0.22 0.19 0.18 0.18 0.20 0.25 0.28 0.29 0.31 0.34 0.36 0.37 0.39 0.42 0.47 0.48 0.53 0.55 0.56 0.53 0.48 0.53 0.62 0.69 0.74 0.79 0.82 0.81 0.71 0.59 0.55 0.50 0.48 0.45 0.44 0.47 0.49 0.54

GEFSMW_prec_meanprecacc_228.txt.gz
Total_Precipitation_Accumulation
0.91 1.07 1.25 1.55 1.78 2.05 2.32 2.39 2.63 2.81 2.98 3.06 3.00 2.82 2.61 2.45 2.35 2.29 2.23 2.06 1.88 1.76 1.59 1.46 1.43 1.43 1.36 1.24 1.17 1.13 1.01 0.93 0.94 0.91 0.76 0.64 0.57 0.51 0.46 0.47 0.47 0.43 0.39
0.76 0.87 1.02 1.28 1.48 1.66 1.85 2.00 2.18 2.42 2.63 2.75 2.73 2.75 2.78 2.61 2.39 2.30 2.25 2.21 2.13 1.99 1.81 1.63 1.56 1.53 1.50 1.37 1.29 1.31 1.27 1.15 1.13 1.11 1.06 0.89 0.73 0.57 0.50 0.49 0.47 0.47 0.49
0.66 0.72 0.82 1.06 1.21 1.34 1.53 1.67 1.83 1.99 2.11 2.48 2.73 2.74 2.81 2.73 2.43 2.18 2.02 2.10 2.19 2.20 2.05 1.87 1.81 1.73 1.70 1.62 1.52 1.47 1.43 1.39 1.33 1.33 1.43 1.23 0.93 0.69 0.58 0.57 0.54 0.51 0.55
0.68 0.72 0.77 0.91 0.99 1.06 1.26 1.46 1.64 1.79 1.83 2.09 2.37 2.41 2.29 2.24 2.14 2.07 2.09 2.13 2.16 2.21 2.21 2.10 1.97 1.89 1.83 1.77 1.83 1.86 1.75 1.65 1.49 1.39 1.31 1.28 1.12 1.05 0.84 0.66 0.64 0.61 0.57
0.62 0.70 0.73 0.78 0.85 0.88 0.97 1.18 1.46 1.61 1.67 1.74 1.94 2.15 2.20 2.16 2.18 2.17 2.15 2.09 2.01 2.04 2.13 2.14 2.03 1.85 1.73 1.67 1.73 1.82 1.87 1.76 1.62 1.50 1.41 1.34 1.19 1.10 1.09 0.89 0.72 0.69 0.63
0.59 0.64 0.63 0.65 0.76 0.75 0.76 0.90 1.11 1.40 1.56 1.63 1.72 1.84 1.93 1.91 1.94 2.03 2.07 2.09 1.99 1.88 1.89 1.94 1.91 1.87 1.76 1.64 1.66 1.78 1.86 1.86 1.80 1.65 1.49 1.41 1.32 1.14 1.14 1.09 0.91 0.86 0.78
0.55 0.59 0.63 0.68 0.71 0.70 0.65 0.71 0.84 1.09 1.32 1.40 1.42 1.52 1.68 1.73 1.71 1.76 1.89 1.94 1.89 1.78 1.79 1.88 1.86 1.87 1.81 1.77 1.72 1.72 1.70 1.74 1.76 1.68 1.56 1.41 1.28 1.22 1.29 1.32 1.17 1.04 0.91
0.48 0.52 0.55 0.59 0.58 0.58 0.61 0.65 0.73 0.83 0.95 1.05 1.13 1.24 1.36 1.46 1.45 1.45 1.57 1.66 1.64 1.64 1.63 1.74 1.80 1.82 1.83 1.81 1.78 1.73 1.66 1.64 1.66 1.60 1.52 1.41 1.27 1.21 1.27 1.38 1.48 1.44 1.19
0.36 0.39 0.44 0.44 0.42 0.43 0.51 0.57 0.60 0.67 0.76 0.82 0.89 1.02 1.08 1.20 1.29 1.32 1.37 1.48 1.50 1.46 1.45 1.48 1.56 1.62 1.65 1.68 1.71 1.70 1.62 1.54 1.53 1.48 1.40 1.31 1.20 1.15 1.17 1.27 1.44 1.68 1.62
0.29 0.32 0.38 0.39 0.37 0.36 0.37 0.40 0.48 0.61 0.69 0.69 0.76 0.84 0.92 0.98 1.07 1.15 1.21 1.25 1.23 1.21 1.21 1.26 1.32 1.37 1.40 1.44 1.53 1.54 1.52 1.50 1.43 1.39 1.35 1.29 1.21 1.19 1.20 1.26 1.34 1.48 1.60
0.26 0.27 0.30 0.33 0.37 0.34 0.31 0.32 0.39 0.51 0.58 0.61 0.66 0.71 0.77 0.82 0.86 0.91 0.96 1.00 1.00 1.01 1.03 1.07 1.15 1.21 1.24 1.24 1.30 1.38 1.40 1.39 1.34 1.31 1.30 1.26 1.20 1.20 1.18 1.21 1.26 1.31 1.39
0.26 0.25 0.24 0.26 0.33 0.33 0.33 0.32 0.36 0.43 0.51 0.56 0.60 0.66 0.68 0.70 0.75 0.80 0.80 0.80 0.82 0.83 0.82 0.82 0.89 0.95 1.00 1.03 1.05 1.10 1.16 1.21 1.20 1.22 1.25 1.25 1.26 1.30 1.31 1.31 1.30 1.27 1.25
0.28 0.27 0.24 0.23 0.28 0.31 0.32 0.31 0.34 0.40 0.46 0.52 0.55 0.60 0.63 0.63 0.66 0.70 0.73 0.74 0.78 0.83 0.84 0.77 0.75 0.79 0.81 0.88 0.91 0.91 0.96 1.01 1.05 1.09 1.16 1.19 1.24 1.32 1.33 1.32 1.27 1.22 1.17
0.30 0.30 0.32 0.28 0.27 0.29 0.28 0.27 0.30 0.35 0.39 0.46 0.51 0.53 0.60 0.62 0.62 0.63 0.65 0.68 0.71 0.77 0.79 0.79 0.77 0.76 0.77 0.82 0.88 0.92 0.93 0.98 1.02 1.04 1.07 1.09 1.11 1.12 1.11 1.11 1.09 1.10 1.11
0.27 0.28 0.30 0.32 0.30 0.29 0.28 0.25 0.26 0.30 0.34 0.40 0.45 0.48 0.54 0.59 0.63 0.63 0.64 0.66 0.67 0.72 0.74 0.77 0.79 0.79 0.79 0.84 0.92 0.97 0.98 1.00 1.05 1.09 1.06 1.01 1.00 0.95 0.94 0.93 0.93 0.94 1.02
0.25 0.26 0.24 0.27 0.27 0.29 0.30 0.30 0.28 0.28 0.31 0.35 0.39 0.43 0.47 0.51 0.58 0.62 0.63 0.64 0.67 0.73 0.77 0.83 0.88 0.90 0.95 1.09 1.11 1.07 1.05 1.03 1.00 0.97 0.93 0.90 0.90 0.87 0.90 0.91 0.90 0.96 1.07
0.18 0.20 0.20 0.23 0.24 0.24 0.27 0.28 0.28 0.27 0.30 0.33 0.35 0.40 0.45 0.49 0.53 0.61 0.66 0.72 0.76 0.84 0.90 0.94 1.02 1.05 1.08 1.14 1.05 1.02 0.97 0.99 0.95 0.88 0.81 0.76 0.71 0.73 0.69 0.76 0.84 0.86 0.93
0.15 0.13 0.15 0.15 0.16 0.18 0.21 0.25 0.26 0.28 0.29 0.32 0.39 0.42 0.46 0.55 0.62 0.64 0.71 0.81 0.87 0.94 1.01 1.00 1.02 1.04 1.04 1.04 0.96 0.93 0.83 0.79 0.78 0.74 0.69 0.63 0.62 0.62 0.66 0.73 0.79 0.70 0.66
0.17 0.15 0.14 0.15 0.15 0.16 0.20 0.25 0.30 0.31 0.30 0.32 0.39 0.45 0.48 0.60 0.69 0.69 0.73 0.81 0.87 0.94 0.97 0.96 0.91 0.85 0.83 0.84 0.77 0.75 0.68 0.67 0.65 0.63 0.64 0.66 0.60 0.67 0.81 0.83 0.81 0.68 0.56
0.17 0.19 0.18 0.17 0.20 0.22 0.24 0.30 0.35 0.42 0.44 0.43 0.48 0.55 0.62 0.72 0.77 0.75 0.75 0.75 0.76 0.78 0.76 0.73 0.69 0.64 0.60 0.63 0.61 0.59 0.53 0.54 0.55 0.57 0.61 0.69 0.67 0.75 0.86 0.78 0.75 0.68 0.58
0.20 0.21 0.21 0.23 0.26 0.28 0.29 0.33 0.38 0.50 0.57 0.58 0.60 0.63 0.70 0.73 0.73 0.72 0.69 0.65 0.61 0.61 0.59 0.58 0.57 0.54 0.53 0.55 0.53 0.53 0.47 0.48 0.53 0.55 0.54 0.57 0.75 0.84 0.83 0.75 0.63 0.67 0.72
0.20 0.23 0.25 0.27 0.30 0.35 0.40 0.41 0.45 0.51 0.56 0.59 0.60 0.61 0.62 0.63 0.66 0.65 0.63 0.59 0.57 0.56 0.55 0.55 0.57 0.57 0.57 0.56 0.56 0.58 0.60 0.62 0.57 0.51 0.47 0.53 0.73 0.73 0.68 0.62 0.66 0.78 0.75
0.21 0.25 0.29 0.32 0.36 0.38 0.41 0.44 0.43 0.43 0.46 0.50 0.52 0.51 0.49 0.50 0.51 0.53 0.54 0.54 0.53 0.53 0.55 0.56 0.58 0.58 0.58 0.61 0.65 0.64 0.71 0.72 0.61 0.58 0.65 0.68 0.65 0.58 0.55 0.59 0.64 0.65 0.61
0.19 0.22 0.25 0.27 0.29 0.31 0.32 0.34 0.32 0.32 0.35 0.37 0.41 0.43 0.42 0.41 0.42 0.43 0.46 0.48 0.49 0.49 0.50 0.52 0.56 0.56 0.54 0.55 0.61 0.64 0.68 0.71 0.68 0.69 0.72 0.66 0.57 0.52 0.52 0.56 0.57 0.55 0.58
0.18 0.19 0.21 0.23 0.25 0.25 0.25 0.26 0.26 0.26 0.29 0.31 0.33 0.34 0.38 0.39 0.41 0.42 0.45 0.49 0.49 0.55 0.55 0.51 0.50 0.54 0.54 0.55 0.69 0.72 0.69 0.74 0.78 0.76 0.62 0.54 0.51 0.50 0.48 0.47 0.48 0.52 0.59
0.19 0.19 0.19 0.22 0.26 0.26 0.22 0.22 0.22 0.23 0.28 0.31 0.32 0.33 0.36 0.38 0.39 0.40 0.44 0.49 0.51 0.55 0.58 0.58 0.55 0.50 0.55 0.63 0.71 0.75 0.80 0.83 0.82 0.72 0.60 0.56 0.51 0.49 0.46 0.45 0.48 0.50 0.56

GEFSMW_prec_meanprecacc_234.txt.gz
Total_Precipitation_Accumulation
0.91 1.07 1.25 1.55 1.78 2.05 2.32 2.39 2.63 2.83 3.00 3.10 3.04 2.86 2.64 2.49 2.38 2.32 2.26 2.09 1.91 1.78 1.61 1.48 1.45 1.45 1.37 1.24 1.18 1.14 1.03 0.96 0.97 0.94 0.78 0.66 0.59 0.55 0.50 0.50 0.50 0.45 0.41
0.76 0.87 1.02 1.29 1.48 1.66 1.85 2.00 2.18 2.42 2.64 2.77 2.76 2.79 2.82 2.65 2.43 2.34 2.29 2.25 2.16 2.02 1.83 1.65 1.58 1.55 1.52 1.38 1.29 1.32 1.28 1.17 1.16 1.14 1.09 0.91 0.74 0.58 0.51 0.51 0.50 0.49 0.51
0.66 0.72 0.83 1.06 1.21 1.34 1.53 1.67 1.83 1.99 2.12 2.48 2.74 2.76 2.83 2.76 2.46 2.20 2.04 2.12 2.21 2.22 2.07 1.90 1.83 1.75 1.72 1.64 1.53 1.48 1.44 1.41 1.35 1.36 1.47 1.25 0.95 0.70 0.59 0.58 0.55 0.53 0.56
0.68 0.72 0.77 0.91 0.99 1.06 1.26 1.46 1.65 1.79 1.83 2.09 2.38 2.42 2.30 2.26 2.15 2.08 2.10 2.14 2.18 2.22 2.23 2.13 1.99 1.91 1.86 1.79 1.85 1.88 1.77 1.66 1.52 1.42 1.34 1.31 1.14 1.06 0.85 0.67 0.65 0.63 0.59
0.63 0.70 0.73 0.78 0.85 0.88 0.97 1.18 1.46 1.61 1.67 1.75 1.94 2.16 2.21 2.17 2.18 2.18 2.16 2.11 2.02 2.06 2.15 2.17 2.06 1.88 1.75 1.69 1.75 1.83 1.89 1.78 1.64 1.53 1.44 1.37 1.22 1.13 1.11 0.90 0.74 0.72 0.66
0.59 0.64 0.63 0.65 0.76 0.75 0.76 0.90 1.11 1.40 1.57 1.63 1.72 1.85 1.93 1.91 1.95 2.03 2.08 2.10 2.01 1.90 1.91 1.96 1.93 1.89 1.78 1.66 1.68 1.80 1.87 1.88 1.83 1.70 1.56 1.47 1.37 1.19 1.19 1.12 0.93 0.88 0.80
0.55 0.60 0.63 0.68 0.72 0.70 0.66 0.71 0.84 1.09 1.32 1.40 1.42 1.52 1.68 1.74 1.72 1.76 1.90 1.95 1.90 1.80 1.80 1.90 1.87 1.88 1.82 1.78 1.73 1.73 1.72 1.76 1.80 1.73 1.62 1.47 1.35 1.28 1.35 1.37 1.20 1.06 0.93
0.48 0.52 0.56 0.59 0.58 0.58 0.61 0.65 0.73 0.84 0.96 1.06 1.14 1.24 1.36 1.46 1.45 1.45 1.58 1.66 1.65 1.65 1.65 1.76 1.82 1.83 1.84 1.82 1.79 1.75 1.68 1.66 1.68 1.63 1.56 1.45 1.32 1.26 1.32 1.44 1.54 1.48 1.22
0.37 0.39 0.44 0.44 0.42 0.44 0.51 0.57 0.60 0.67 0.76 0.83 0.90 1.02 1.08 1.20 1.29 1.32 1.38 1.50 1.51 1.48 1.47 1.50 1.57 1.63 1.66 1.69 1.72 1.71 1.63 1.56 1.54 1.50 1.43 1.36 1.25 1.18 1.21 1.30 1.48 1.73 1.67
0.29 0.32 0.38 0.39 0.37 0.36 0.37 0.40 0.48 0.61 0.69 0.69 0.76 0.85 0.92 0.99 1.07 1.16 1.21 1.26 1.25 1.23 1.23 1.28 1.34 1.39 1.42 1.46 1.55 1.55 1.53 1.51 1.44 1.41 1.38 1.32 1.25 1.22 1.24 1.29 1.36 1.50 1.64
0.26 0.28 0.30 0.33 0.37 0.34 0.31 0.32 0.39 0.51 0.59 0.61 0.66 0.71 0.77 0.82 0.87 0.92 0.97 1.02 1.03 1.05 1.07 1.10 1.17 1.23 1.26 1.26 1.32 1.40 1.42 1.41 1.36 1.33 1.31 1.27 1.22 1.22 1.21 1.24 1.29 1.34 1.42
0.27 0.25 0.24 0.26 0.33 0.33 0.33 0.32 0.36 0.43 0.51 0.56 0.60 0.66 0.68 0.71 0.76 0.82 0.81 0.82 0.85 0.88 0.87 0.86 0.93 0.99 1.02 1.05 1.08 1.13 1.19 1.23 1.22 1.23 1.27 1.26 1.27 1.32 1.33 1.34 1.33 1.30 1.27
0.28 0.27 0.24 0.23 0.28 0.31 0.32 0.32 0.34 0.40 0.46 0.52 0.55 0.60 0.63 0.64 0.67 0.71 0.74 0.76 0.80 0.86 0.88 0.82 0.80 0.83 0.85 0.92 0.94 0.94 0.98 1.04 1.07 1.11 1.17 1.21 1.26 1.34 1.36 1.34 1.30 1.24 1.19
0.30 0.30 0.33 0.28 0.27 0.29 0.28 0.27 0.30 0.35 0.39 0.46 0.51 0.53 0.61 0.63 0.63 0.64 0.66 0.70 0.73 0.79 0.81 0.83 0.81 0.80 0.81 0.86 0.91 0.94 0.96 1.01 1.04 1.07 1.10 1.12 1.13 1.14 1.14 1.14 1.12 1.12 1.13
0.28 0.29 0.31 0.32 0.30 0.29 0.28 0.25 0.26 0.30 0.34 0.40 0.46 0.49 0.55 0.60 0.63 0.64 0.65 0.67 0.69 0.74 0.76 0.80 0.82 0.81 0.82 0.87 0.94 0.99 1.00 1.02 1.08 1.13 1.11 1.05 1.03 0.98 0.96 0.96 0.95 0.96 1.04
0.26 0.26 0.25 0.27 0.27 0.29 0.31 0.30 0.28 0.28 0.31 0.36 0.40 0.44 0.48 0.51 0.58 0.63 0.64 0.65 0.68 0.74 0.79 0.85 0.90 0.93 0.97 1.12 1.14 1.09 1.07 1.05 1.02 1.01 0.96 0.93 0.93 0.90 0.93 0.93 0.92 0.97 1.09
0.19 0.21 0.22 0.24 0.24 0.25 0.27 0.29 0.28 0.28 0.30 0.34 0.36 0.40 0.46 0.50 0.54 0.62 0.67 0.74 0.78 0.86 0.92 0.96 1.06 1.08 1.11 1.17 1.08 1.04 0.99 1.01 0.98 0.90 0.83 0.79 0.74 0.76 0.71 0.79 0.86 0.88 0.95
0.16 0.15 0.16 0.17 0.17 0.18 0.21 0.25 0.27 0.28 0.29 0.33 0.40 0.43 0.47 0.56 0.63 0.66 0.74 0.83 0.90 0.96 1.03 1.02 1.04 1.06 1.07 1.07 0.99 0.96 0.85 0.82 0.82 0.78 0.72 0.66 0.64 0.64 0.68 0.75 0.82 0.73 0.68
0.19 0.17 0.15 0.16 0.16 0.17 0.20 0.26 0.30 0.32 0.30 0.33 0.40 0.46 0.50 0.61 0.70 0.70 0.75 0.84 0.90 0.96 0.99 0.98 0.93 0.86 0.85 0.86 0.79 0.77 0.71 0.70 0.68 0.67 0.68 0.69 0.63 0.70 0.83 0.85 0.83 0.70 0.58
0.19 0.21 0.20 0.18 0.21 0.23 0.25 0.31 0.37 0.43 0.45 0.44 0.48 0.56 0.63 0.73 0.78 0.77 0.76 0.76 0.78 0.80 0.78 0.75 0.71 0.66 0.62 0.65 0.62 0.61 0.54 0.56 0.57 0.60 0.63 0.71 0.69 0.77 0.88 0.80 0.77 0.70 0.60
0.22 0.23 0.24 0.25 0.28 0.29 0.30 0.35 0.40 0.52 0.58 0.59 0.61 0.64 0.71 0.74 0.74 0.73 0.70 0.66 0.63 0.63 0.61 0.60 0.58 0.56 0.54 0.56 0.55 0.54 0.49 0.49 0.54 0.57 0.55 0.58 0.76 0.85 0.84 0.76 0.65 0.69 0.73
0.22 0.25 0.28 0.30 0.32 0.37 0.42 0.43 0.47 0.54 0.59 0.61 0.61 0.62 0.63 0.64 0.66 0.66 0.63 0.60 0.58 0.57 0.57 0.56 0.58 0.58 0.58 0.57 0.56 0.59 0.61 0.63 0.57 0.52 0.47 0.54 0.74 0.74 0.69 0.63 0.67 0.79 0.76
0.23 0.27 0.32 0.35 0.38 0.40 0.43 0.46 0.45 0.46 0.49 0.53 0.55 0.53 0.51 0.51 0.53 0.54 0.55 0.54 0.54 0.54 0.56 0.57 0.59 0.59 0.59 0.62 0.65 0.65 0.71 0.72 0.62 0.58 0.65 0.69 0.66 0.59 0.56 0.59 0.65 0.65 0.61
0.21 0.24 0.27 0.29 0.31 0.33 0.34 0.36 0.35 0.35 0.37 0.40 0.44 0.46 0.44 0.43 0.44 0.44 0.47 0.49 0.50 0.50 0.51 0.53 0.57 0.57 0.54 0.55 0.61 0.65 0.69 0.71 0.69 0.70 0.73 0.67 0.58 0.53 0.53 0.57 0.57 0.55 0.58
0.21 0.22 0.24 0.26 0.28 0.27 0.28 0.28 0.29 0.30 0.32 0.33 0.35 0.37 0.40 0.42 0.43 0.44 0.47 0.50 0.51 0.56 0.56 0.52 0.51 0.55 0.54 0.56 0.69 0.72 0.69 0.75 0.79 0.77 0.63 0.55 0.52 0.51 0.49 0.48 0.49 0.53 0.59
0.22 0.22 0.22 0.25 0.29 0.29 0.26 0.25 0.26 0.27 0.31 0.34 0.35 0.36 0.39 0.41 0.41 0.43 0.46 0.52 0.53 0.58 0.60 0.59 0.56 0.51 0.56 0.64 0.71 0.76 0.81 0.84 0.83 0.73 0.61 0.57 0.52 0.50 0.47 0.46 0.49 0.51 0.56

GEFSMW_prec_meanprecacc_240.txt.gz
Total_Precipitation_Accumulation
0.91 1.08 1.25 1.55 1.78 2.05 2.33 2.40 2.64 2.84 3.01 3.10 3.05 2.87 2.66 2.52 2.43 2.38 2.29 2.11 1.92 1.80 1.63 1.50 1.47 1.46 1.39 1.27 1.21 1.17 1.06 0.99 1.01 0.97 0.80 0.68 0.60 0.56 0.51 0.51 0.51 0.47 0.44
0.76 0.87 1.03 1.29 1.48 1.66 1.85 2.00 2.19 2.43 2.64 2.78 2.76 2.79 2.83 2.67 2.46 2.40 2.36 2.30 2.19 2.04 1.85 1.67 1.60 1.57 1.54 1.40 1.32 1.35 1.30 1.19 1.18 1.17 1.10 0.92 0.75 0.58 0.52 0.52 0.51 0.50 0.52
0.66 0.72 0.83 1.06 1.21 1.34 1.53 1.68 1.84 2.00 2.12 2.49 2.75 2.77 2.85 2.77 2.48 2.23 2.08 2.17 2.25 2.24 2.09 1.91 1.85 1.77 1.74 1.66 1.55 1.50 1.46 1.43 1.37 1.38 1.48 1.27 0.96 0.71 0.60 0.59 0.56 0.54 0.57
0.68 0.72 0.77 0.92 0.99 1.06 1.26 1.47 1.65 1.80 1.84 2.10 2.39 2.42 2.31 2.26 2.16 2.09 2.12 2.16 2.20 2.25 2.25 2.14 2.01 1.93 1.88 1.81 1.87 1.90 1.79 1.69 1.53 1.43 1.35 1.32 1.15 1.07 0.86 0.68 0.66 0.64 0.60
0.63 0.71 0.73 0.78 0.85 0.88 0.97 1.18 1.47 1.62 1.68 1.75 1.95 2.17 2.22 2.17 2.19 2.19 2.18 2.12 2.04 2.08 2.17 2.18 2.07 1.89 1.77 1.70 1.76 1.85 1.91 1.80 1.65 1.54 1.45 1.38 1.23 1.14 1.13 0.92 0.75 0.73 0.67
0.60 0.65 0.63 0.65 0.76 0.75 0.76 0.91 1.11 1.41 1.57 1.63 1.72 1.86 1.94 1.92 1.96 2.05 2.10 2.12 2.02 1.92 1.92 1.97 1.95 1.91 1.79 1.67 1.69 1.81 1.89 1.90 1.85 1.71 1.56 1.47 1.38 1.20 1.21 1.15 0.96 0.91 0.83
0.56 0.61 0.64 0.69 0.72 0.70 0.66 0.71 0.84 1.09 1.32 1.40 1.43 1.53 1.68 1.74 1.73 1.77 1.91 1.96 1.92 1.81 1.82 1.91 1.89 1.90 1.84 1.80 1.75 1.75 1.73 1.78 1.82 1.74 1.63 1.48 1.35 1.29 1.36 1.39 1.23 1.09 0.97
0.48 0.52 0.56 0.59 0.58 0.58 0.61 0.65 0.74 0.84 0.96 1.06 1.14 1.25 1.37 1.47 1.46 1.46 1.59 1.68 1.67 1.66 1.66 1.78 1.83 1.85 1.86 1.84 1.82 1.78 1.70 1.68 1.69 1.65 1.57 1.46 1.32 1.27 1.33 1.45 1.56 1.50 1.25
0.37 0.40 0.44 0.45 0.42 0.44 0.51 0.57 0.60 0.67 0.76 0.83 0.90 1.02 1.09 1.21 1.30 1.33 1.39 1.51 1.52 1.49 1.48 1.52 1.59 1.65 1.68 1.71 1.74 1.74 1.66 1.58 1.56 1.51 1.45 1.37 1.26 1.19 1.22 1.31 1.49 1.75 1.69
0.30 0.33 0.38 0.39 0.37 0.36 0.37 0.40 0.48 0.62 0.69 0.69 0.76 0.85 0.93 0.99 1.08 1.17 1.23 1.28 1.26 1.25 1.25 1.30 1.35 1.41 1.43 1.47 1.56 1.57 1.55 1.53 1.46 1.42 1.38 1.33 1.25 1.22 1.25 1.30 1.38 1.52 1.67
0.27 0.28 0.30 0.33 0.37 0.34 0.32 0.32 0.39 0.51 0.59 0.61 0.66 0.71 0.77 0.83 0.88 0.93 0.98 1.03 1.05 1.06 1.09 1.13 1.20 1.26 1.28 1.27 1.34 1.42 1.43 1.43 1.38 1.34 1.33 1.29 1.23 1.23 1.22 1.26 1.31 1.36 1.44
0.28 0.26 0.25 0.26 0.33 0.34 0.33 0.32 0.36 0.44 0.52 0.56 0.61 0.67 0.69 0.71 0.77 0.83 0.83 0.83 0.86 0.89 0.89 0.88 0.95 1.01 1.05 1.08 1.10 1.15 1.21 1.25 1.25 1.26 1.29 1.29 1.30 1.35 1.35 1.36 1.36 1.33 1.31
0.29 0.28 0.25 0.24 0.28 0.32 0.33 0.32 0.35 0.41 0.46 0.53 0.56 0.61 0.64 0.65 0.68 0.72 0.75 0.77 0.81 0.87 0.89 0.84 0.83 0.85 0.88 0.94 0.97 0.97 1.02 1.07 1.11 1.15 1.21 1.25 1.29 1.38 1.39 1.38 1.35 1.28 1.23
0.31 0.31 0.34 0.29 0.28 0.29 0.29 0.28 0.31 0.36 0.40 0.47 0.51 0.54 0.61 0.64 0.64 0.65 0.66 0.70 0.74 0.80 0.82 0.84 0.83 0.83 0.83 0.88 0.94 0.96 0.98 1.04 1.08 1.12 1.15 1.17 1.17 1.17 1.17 1.17 1.15 1.15 1.17
0.29 0.29 0.31 0.33 0.31 0.29 0.28 0.26 0.27 0.30 0.34 0.41 0.46 0.49 0.55 0.60 0.64 0.64 0.66 0.68 0.70 0.75 0.78 0.81 0.84 0.83 0.83 0.88 0.95 1.00 1.01 1.04 1.10 1.15 1.13 1.08 1.06 1.00 0.98 0.97 0.96 0.98 1.07
0.27 0.27 0.25 0.28 0.28 0.30 0.31 0.30 0.29 0.28 0.32 0.36 0.40 0.44 0.48 0.52 0.58 0.64 0.65 0.66 0.70 0.75 0.80 0.87 0.92 0.94 0.98 1.13 1.15 1.11 1.08 1.07 1.04 1.03 0.98 0.95 0.94 0.92 0.95 0.95 0.94 1.00 1.12
0.20 0.22 0.22 0.24 0.24 0.25 0.28 0.29 0.29 0.28 0.30 0.34 0.36 0.41 0.46 0.51 0.54 0.62 0.69 0.75 0.80 0.87 0.94 0.98 1.07 1.10 1.13 1.19 1.10 1.06 1.00 1.02 0.99 0.92 0.84 0.80 0.75 0.77 0.73 0.81 0.88 0.90 0.97
0.17 0.15 0.17 0.17 0.17 0.19 0.21 0.26 0.27 0.28 0.29 0.34 0.40 0.44 0.48 0.57 0.64 0.66 0.74 0.84 0.91 0.98 1.05 1.04 1.06 1.08 1.09 1.10 1.01 0.98 0.86 0.83 0.83 0.79 0.73 0.67 0.65 0.66 0.69 0.76 0.83 0.74 0.70
0.20 0.18 0.16 0.17 0.17 0.18 0.21 0.27 0.31 0.32 0.31 0.34 0.41 0.47 0.50 0.62 0.71 0.71 0.76 0.85 0.91 0.97 1.00 1.00 0.95 0.89 0.87 0.88 0.81 0.79 0.72 0.71 0.70 0.68 0.69 0.70 0.64 0.71 0.84 0.86 0.84 0.70 0.59
0.20 0.22 0.21 0.19 0.22 0.24 0.26 0.32 0.38 0.44 0.46 0.45 0.49 0.56 0.64 0.74 0.79 0.78 0.77 0.78 0.80 0.82 0.80 0.77 0.72 0.68 0.63 0.66 0.64 0.62 0.55 0.57 0.58 0.61 0.64 0.73 0.70 0.78 0.89 0.81 0.78 0.71 0.60
0.24 0.24 0.25 0.26 0.30 0.31 0.33 0.36 0.41 0.53 0.59 0.60 0.62 0.65 0.71 0.75 0.76 0.74 0.71 0.68 0.64 0.65 0.63 0.62 0.60 0.57 0.56 0.57 0.56 0.55 0.50 0.50 0.55 0.58 0.56 0.59 0.77 0.85 0.84 0.76 0.65 0.69 0.74
0.23 0.27 0.30 0.31 0.34 0.40 0.44 0.46 0.49 0.55 0.60 0.62 0.62 0.63 0.64 0.65 0.68 0.67 0.65 0.61 0.59 0.59 0.59 0.59 0.61 0.60 0.59 0.58 0.57 0.60 0.62 0.64 0.58 0.53 0.49 0.55 0.75 0.75 0.70 0.63 0.67 0.79 0.76
0.24 0.29 0.34 0.37 0.41 0.42 0.45 0.48 0.47 0.48 0.51 0.55 0.57 0.55 0.53 0.53 0.55 0.56 0.57 0.56 0.56 0.56 0.57 0.58 0.61 0.61 0.60 0.63 0.66 0.66 0.72 0.73 0.63 0.59 0.66 0.70 0.66 0.60 0.56 0.59 0.65 0.65 0.62
0.23 0.26 0.30 0.32 0.34 0.36 0.37 0.39 0.37 0.37 0.39 0.42 0.46 0.48 0.46 0.45 0.46 0.46 0.49 0.51 0.52 0.52 0.52 0.54 0.58 0.58 0.55 0.57 0.62 0.66 0.69 0.72 0.69 0.70 0.74 0.68 0.59 0.53 0.53 0.57 0.58 0.56 0.58
0.23 0.24 0.26 0.29 0.31 0.31 0.31 0.32 0.32 0.32 0.35 0.36 0.37 0.39 0.42 0.44 0.46 0.47 0.49 0.53 0.53 0.58 0.58 0.53 0.52 0.55 0.55 0.57 0.71 0.74 0.70 0.75 0.79 0.78 0.64 0.55 0.53 0.52 0.50 0.49 0.49 0.53 0.60
0.25 0.25 0.25 0.28 0.32 0.32 0.29 0.29 0.30 0.31 0.35 0.37 0.37 0.39 0.42 0.43 0.44 0.45 0.49 0.55 0.57 0.61 0.63 0.62 0.58 0.53 0.57 0.66 0.73 0.77 0.82 0.86 0.84 0.74 0.62 0.57 0.53 0.50 0.47 0.47 0.49 0.51 0.57

GEFSMW_prec_meanprecacc_246.txt.gz
Total_Precipitation_Accumulation
0.92 1.09 1.26 1.57 1.80 2.08 2.35 2.42 2.65 2.85 3.03 3.13 3.07 2.88 2.67 2.53 2.45 2.39 2.32 2.14 1.95 1.82 1.66 1.52 1.49 1.48 1.41 1.29 1.23 1.19 1.08 1.02 1.04 1.00 0.82 0.70 0.63 0.59 0.54 0.54 0.54 0.48 0.45
0.78 0.88 1.04 1.30 1.50 1.68 1.87 2.02 2.20 2.44 2.66 2.79 2.78 2.81 2.84 2.69 2.49 2.43 2.40 2.34 2.24 2.09 1.89 1.70 1.63 1.59 1.57 1.43 1.34 1.36 1.32 1.22 1.23 1.25 1.17 0.97 0.79 0.62 0.56 0.56 0.55 0.53 0.53
0.67 0.74 0.84 1.07 1.23 1.36 1.55 1.69 1.85 2.01 2.13 2.50 2.77 2.80 2.87 2.81 2.52 2.27 2.13 2.22 2.32 2.31 2.14 1.96 1.89 1.80 1.77 1.68 1.57 1.51 1.48 1.45 1.40 1.43 1.56 1.34 1.02 0.75 0.63 0.62 0.60 0.57 0.59
0.70 0.73 0.79 0.93 1.00 1.07 1.27 1.48 1.66 1.81 1.85 2.12 2.40 2.44 2.32 2.28 2.17 2.11 2.15 2.20 2.26 2.32 2.31 2.20 2.04 1.95 1.90 1.83 1.88 1.91 1.80 1.70 1.56 1.45 1.39 1.36 1.19 1.11 0.89 0.71 0.69 0.66 0.62
0.64 0.71 0.74 0.79 0.86 0.88 0.98 1.18 1.48 1.63 1.69 1.76 1.97 2.18 2.23 2.18 2.20 2.21 2.20 2.15 2.07 2.12 2.23 2.25 2.13 1.92 1.79 1.72 1.78 1.87 1.92 1.81 1.67 1.56 1.47 1.41 1.26 1.17 1.15 0.94 0.78 0.75 0.69
0.60 0.66 0.64 0.65 0.77 0.76 0.77 0.91 1.12 1.42 1.59 1.65 1.74 1.87 1.95 1.93 1.97 2.05 2.11 2.13 2.03 1.94 1.95 2.01 1.99 1.95 1.82 1.69 1.71 1.83 1.90 1.92 1.86 1.73 1.58 1.49 1.40 1.22 1.23 1.16 0.97 0.93 0.84
0.56 0.61 0.64 0.69 0.72 0.70 0.66 0.71 0.85 1.11 1.34 1.43 1.45 1.55 1.70 1.76 1.74 1.78 1.91 1.97 1.93 1.82 1.83 1.93 1.91 1.92 1.86 1.81 1.76 1.77 1.75 1.79 1.83 1.76 1.64 1.49 1.37 1.30 1.38 1.40 1.24 1.11 0.98
0.49 0.53 0.56 0.59 0.58 0.58 0.61 0.65 0.74 0.85 0.97 1.08 1.16 1.27 1.39 1.49 1.48 1.49 1.60 1.69 1.68 1.68 1.68 1.79 1.85 1.86 1.87 1.86 1.83 1.79 1.72 1.69 1.71 1.67 1.59 1.48 1.34 1.28 1.35 1.46 1.57 1.52 1.26
0.38 0.40 0.45 0.45 0.43 0.44 0.51 0.58 0.61 0.67 0.77 0.84 0.91 1.04 1.11 1.23 1.32 1.36 1.43 1.53 1.54 1.51 1.51 1.55 1.62 1.68 1.70 1.73 1.76 1.76 1.67 1.60 1.58 1.54 1.47 1.39 1.28 1.21 1.23 1.32 1.51 1.76 1.71
0.31 0.34 0.39 0.40 0.38 0.37 0.37 0.40 0.49 0.62 0.70 0.70 0.77 0.86 0.94 1.00 1.10 1.19 1.26 1.31 1.29 1.28 1.28 1.33 1.40 1.45 1.47 1.51 1.59 1.60 1.57 1.56 1.48 1.44 1.41 1.34 1.27 1.24 1.26 1.31 1.39 1.53 1.68
0.29 0.30 0.32 0.34 0.38 0.35 0.32 0.33 0.40 0.51 0.59 0.62 0.66 0.72 0.78 0.84 0.89 0.95 1.01 1.06 1.07 1.09 1.10 1.14 1.22 1.29 1.33 1.33 1.38 1.44 1.46 1.45 1.40 1.36 1.35 1.31 1.25 1.25 1.23 1.27 1.32 1.37 1.45
0.31 0.29 0.27 0.28 0.34 0.35 0.34 0.33 0.37 0.44 0.52 0.57 0.61 0.67 0.69 0.72 0.78 0.85 0.85 0.86 0.89 0.92 0.90 0.90 0.97 1.04 1.08 1.12 1.15 1.19 1.24 1.28 1.27 1.28 1.32 1.32 1.32 1.37 1.37 1.38 1.37 1.35 1.33
0.33 0.31 0.28 0.26 0.30 0.33 0.34 0.33 0.36 0.42 0.47 0.54 0.56 0.61 0.64 0.65 0.68 0.73 0.77 0.78 0.82 0.88 0.91 0.85 0.84 0.88 0.91 0.98 1.01 1.01 1.05 1.11 1.14 1.18 1.24 1.27 1.31 1.39 1.41 1.39 1.36 1.30 1.25
0.34 0.35 0.37 0.32 0.30 0.31 0.30 0.29 0.32 0.37 0.40 0.48 0.52 0.54 0.61 0.64 0.64 0.66 0.68 0.72 0.75 0.81 0.83 0.85 0.84 0.84 0.85 0.90 0.97 1.01 1.03 1.08 1.12 1.14 1.17 1.19 1.19 1.19 1.19 1.19 1.17 1.18 1.19
0.31 0.32 0.34 0.36 0.34 0.32 0.30 0.27 0.28 0.31 0.35 0.42 0.47 0.50 0.55 0.60 0.65 0.65 0.67 0.70 0.72 0.76 0.78 0.82 0.84 0.84 0.84 0.89 0.97 1.03 1.05 1.09 1.14 1.19 1.16 1.10 1.09 1.03 1.01 1.00 0.99 1.00 1.10
0.29 0.29 0.27 0.30 0.30 0.33 0.33 0.32 0.30 0.30 0.33 0.37 0.41 0.45 0.49 0.52 0.59 0.64 0.66 0.67 0.71 0.77 0.82 0.88 0.93 0.95 0.99 1.15 1.17 1.13 1.11 1.09 1.07 1.06 1.01 0.97 0.97 0.95 0.98 0.98 0.97 1.02 1.14
0.22 0.23 0.23 0.25 0.26 0.28 0.30 0.31 0.31 0.30 0.32 0.35 0.37 0.42 0.47 0.52 0.55 0.63 0.69 0.76 0.80 0.88 0.95 1.00 1.09 1.11 1.14 1.21 1.11 1.08 1.02 1.04 1.01 0.93 0.86 0.82 0.77 0.79 0.74 0.83 0.90 0.92 0.99
0.20 0.17 0.18 0.19 0.19 0.20 0.23 0.28 0.29 0.30 0.31 0.35 0.41 0.45 0.49 0.58 0.65 0.67 0.75 0.85 0.92 0.99 1.06 1.06 1.08 1.10 1.11 1.12 1.03 0.99 0.87 0.84 0.84 0.80 0.74 0.69 0.67 0.67 0.70 0.78 0.84 0.75 0.71
0.22 0.20 0.18 0.18 0.18 0.19 0.22 0.28 0.33 0.34 0.32 0.34 0.41 0.48 0.51 0.63 0.72 0.72 0.77 0.85 0.91 0.98 1.02 1.01 0.97 0.91 0.89 0.91 0.84 0.81 0.74 0.73 0.71 0.69 0.70 0.71 0.65 0.72 0.85 0.86 0.85 0.71 0.59
0.21 0.24 0.23 0.21 0.24 0.26 0.27 0.33 0.39 0.46 0.47 0.46 0.49 0.57 0.64 0.75 0.80 0.79 0.78 0.79 0.80 0.82 0.81 0.78 0.74 0.70 0.66 0.70 0.67 0.65 0.58 0.60 0.60 0.62 0.66 0.74 0.71 0.79 0.90 0.81 0.78 0.71 0.60
0.26 0.26 0.26 0.28 0.31 0.33 0.34 0.38 0.43 0.55 0.60 0.61 0.62 0.66 0.72 0.76 0.77 0.75 0.72 0.68 0.65 0.66 0.65 0.63 0.61 0.58 0.57 0.60 0.59 0.59 0.52 0.52 0.57 0.60 0.58 0.61 0.79 0.86 0.85 0.76 0.65 0.69 0.74
0.26 0.29 0.32 0.33 0.36 0.41 0.46 0.48 0.51 0.57 0.61 0.63 0.63 0.64 0.65 0.66 0.69 0.69 0.67 0.63 0.61 0.61 0.61 0.61 0.63 0.61 0.60 0.59 0.59 0.62 0.64 0.65 0.60 0.55 0.50 0.57 0.76 0.76 0.70 0.64 0.67 0.79 0.76
0.27 0.31 0.37 0.40 0.42 0.44 0.48 0.51 0.50 0.50 0.53 0.57 0.58 0.56 0.54 0.54 0.56 0.58 0.59 0.58 0.58 0.57 0.59 0.60 0.62 0.62 0.61 0.64 0.67 0.67 0.73 0.74 0.64 0.60 0.68 0.71 0.68 0.61 0.57 0.60 0.66 0.66 0.62
0.25 0.29 0.32 0.34 0.37 0.39 0.40 0.42 0.40 0.39 0.41 0.44 0.48 0.50 0.48 0.47 0.48 0.48 0.51 0.53 0.54 0.54 0.54 0.56 0.59 0.60 0.56 0.57 0.63 0.66 0.70 0.73 0.70 0.71 0.75 0.69 0.60 0.55 0.54 0.58 0.58 0.56 0.58
0.26 0.27 0.29 0.32 0.33 0.34 0.34 0.35 0.35 0.35 0.37 0.38 0.39 0.41 0.44 0.46 0.48 0.49 0.51 0.55 0.55 0.60 0.60 0.55 0.53 0.57 0.57 0.58 0.72 0.75 0.72 0.77 0.81 0.79 0.65 0.56 0.53 0.53 0.51 0.50 0.50 0.54 0.60
0.27 0.27 0.28 0.30 0.34 0.35 0.32 0.32 0.33 0.34 0.38 0.40 0.40 0.41 0.44 0.45 0.46 0.47 0.51 0.57 0.59 0.63 0.64 0.64 0.60 0.54 0.59 0.67 0.74 0.78 0.84 0.87 0.86 0.76 0.63 0.58 0.54 0.51 0.48 0.47 0.50 0.52 0.58

GEFSMW_prec_meanprecacc_252.txt.gz
Total_Precipitation_Accumulation
0.96 1.14 1.32 1.64 1.87 2.15 2.42 2.48 2.70 2.88 3.05 3.16 3.10 2.92 2.71 2.58 2.49 2.44 2.37 2.18 1.99 1.87 1.70 1.57 1.54 1.54 1.47 1.34 1.30 1.26 1.13 1.05 1.06 1.02 0.84 0.72 0.65 0.61 0.55 0.55 0.55 0.50 0.47
0.82 0.93 1.09 1.36 1.57 1.75 1.94 2.09 2.26 2.48 2.68 2.81 2.80 2.83 2.86 2.71 2.51 2.46 2.43 2.37 2.27 2.11 1.91 1.73 1.66 1.64 1.62 1.47 1.39 1.43 1.37 1.24 1.25 1.27 1.20 1.00 0.82 0.65 0.59 0.58 0.57 0.54 0.55
0.71 0.78 0.89 1.13 1.29 1.43 1.61 1.76 1.91 2.07 2.17 2.52 2.78 2.81 2.89 2.82 2.53 2.29 2.15 2.24 2.34 2.32 2.15 1.97 1.91 1.84 1.80 1.72 1.61 1.56 1.53 1.49 1.42 1.45 1.60 1.39 1.07 0.79 0.66 0.65 0.63 0.60 0.62
0.74 0.78 0.83 0.97 1.06 1.13 1.32 1.52 1.71 1.86 1.90 2.16 2.43 2.45 2.34 2.29 2.18 2.12 2.15 2.22 2.28 2.34 2.33 2.21 2.06 1.98 1.92 1.85 1.91 1.94 1.84 1.75 1.59 1.48 1.41 1.40 1.24 1.15 0.93 0.74 0.73 0.70 0.66
0.67 0.77 0.79 0.82 0.90 0.93 1.02 1.22 1.52 1.67 1.73 1.80 1.99 2.21 2.25 2.20 2.21 2.22 2.20 2.16 2.08 2.14 2.25 2.26 2.15 1.95 1.81 1.73 1.79 1.88 1.93 1.84 1.70 1.58 1.50 1.43 1.28 1.19 1.19 0.99 0.83 0.80 0.72
0.62 0.69 0.69 0.70 0.81 0.80 0.81 0.95 1.16 1.46 1.62 1.68 1.76 1.90 1.97 1.95 1.98 2.07 2.12 2.14 2.05 1.95 1.97 2.03 2.01 1.98 1.86 1.71 1.72 1.84 1.91 1.93 1.88 1.75 1.60 1.52 1.43 1.25 1.25 1.19 1.01 0.99 0.90
0.56 0.62 0.67 0.72 0.76 0.74 0.69 0.75 0.88 1.13 1.37 1.46 1.48 1.57 1.72 1.78 1.76 1.79 1.93 1.98 1.94 1.84 1.85 1.94 1.92 1.93 1.88 1.84 1.79 1.79 1.76 1.80 1.84 1.77 1.66 1.51 1.39 1.33 1.40 1.43 1.27 1.14 1.03
0.49 0.53 0.57 0.61 0.61 0.61 0.64 0.68 0.77 0.87 1.00 1.10 1.18 1.29 1.41 1.52 1.50 1.50 1.62 1.70 1.69 1.69 1.69 1.81 1.86 1.87 1.88 1.87 1.85 1.81 1.73 1.71 1.72 1.67 1.60 1.49 1.35 1.30 1.36 1.48 1.60 1.55 1.29
0.38 0.41 0.45 0.47 0.44 0.46 0.53 0.59 0.62 0.68 0.78 0.85 0.94 1.07 1.12 1.25 1.34 1.37 1.44 1.54 1.56 1.53 1.52 1.56 1.64 1.69 1.71 1.74 1.77 1.77 1.68 1.61 1.59 1.54 1.48 1.40 1.29 1.22 1.25 1.34 1.52 1.79 1.73
0.32 0.34 0.40 0.42 0.39 0.38 0.39 0.42 0.50 0.63 0.70 0.71 0.78 0.88 0.96 1.02 1.11 1.21 1.27 1.31 1.30 1.29 1.30 1.35 1.41 1.47 1.49 1.52 1.61 1.61 1.58 1.57 1.49 1.45 1.42 1.36 1.29 1.26 1.28 1.32 1.40 1.55 1.69
0.31 0.31 0.33 0.36 0.40 0.37 0.34 0.34 0.41 0.52 0.60 0.62 0.67 0.73 0.80 0.86 0.91 0.96 1.02 1.07 1.08 1.09 1.11 1.16 1.24 1.31 1.34 1.34 1.39 1.45 1.47 1.47 1.42 1.38 1.36 1.32 1.26 1.26 1.25 1.29 1.34 1.39 1.47
0.34 0.31 0.29 0.30 0.37 0.37 0.37 0.35 0.39 0.46 0.53 0.57 0.62 0.68 0.70 0.73 0.80 0.87 0.86 0.87 0.91 0.93 0.92 0.91 0.98 1.05 1.10 1.14 1.17 1.21 1.25 1.29 1.29 1.30 1.34 1.33 1.33 1.39 1.39 1.40 1.39 1.37 1.35
0.36 0.34 0.31 0.29 0.33 0.36 0.37 0.36 0.39 0.44 0.49 0.55 0.57 0.62 0.65 0.66 0.69 0.76 0.80 0.81 0.85 0.91 0.92 0.87 0.86 0.89 0.92 0.99 1.02 1.03 1.07 1.12 1.15 1.19 1.25 1.29 1.33 1.41 1.43 1.42 1.39 1.33 1.27
0.37 0.37 0.40 0.36 0.34 0.34 0.34 0.33 0.35 0.39 0.43 0.50 0.54 0.56 0.62 0.65 0.65 0.67 0.71 0.75 0.77 0.83 0.84 0.86 0.85 0.85 0.86 0.92 0.98 1.02 1.05 1.10 1.14 1.17 1.19 1.20 1.21 1.21 1.21 1.21 1.20 1.20 1.21
0.34 0.34 0.37 0.39 0.37 0.35 0.34 0.32 0.32 0.35 0.38 0.45 0.50 0.52 0.57 0.61 0.65 0.66 0.68 0.73 0.75 0.78 0.80 0.82 0.85 0.84 0.85 0.90 0.99 1.04 1.07 1.11 1.17 1.22 1.19 1.13 1.11 1.06 1.03 1.02 1.01 1.02 1.11
0.32 0.32 0.30 0.32 0.33 0.35 0.36 0.35 0.34 0.34 0.37 0.40 0.44 0.48 0.51 0.54 0.60 0.65 0.67 0.69 0.74 0.80 0.84 0.89 0.94 0.95 0.99 1.16 1.19 1.14 1.13 1.12 1.09 1.08 1.03 1.00 1.00 0.97 1.00 1.00 0.99 1.04 1.16
0.25 0.26 0.26 0.28 0.29 0.30 0.32 0.34 0.34 0.34 0.36 0.38 0.40 0.44 0.49 0.53 0.56 0.64 0.70 0.77 0.82 0.91 0.97 1.01 1.10 1.12 1.14 1.21 1.12 1.09 1.03 1.06 1.03 0.96 0.88 0.84 0.80 0.81 0.76 0.84 0.92 0.94 1.01
0.23 0.20 0.21 0.22 0.22 0.22 0.25 0.29 0.31 0.33 0.34 0.37 0.44 0.47 0.50 0.60 0.66 0.68 0.76 0.86 0.93 1.01 1.08 1.07 1.09 1.11 1.12 1.13 1.03 1.00 0.88 0.85 0.85 0.82 0.76 0.70 0.68 0.69 0.72 0.79 0.86 0.77 0.73
0.25 0.23 0.21 0.21 0.21 0.21 0.24 0.30 0.34 0.36 0.35 0.37 0.44 0.50 0.54 0.65 0.74 0.74 0.78 0.86 0.92 0.99 1.02 1.02 0.99 0.92 0.90 0.92 0.85 0.82 0.74 0.74 0.72 0.70 0.71 0.72 0.66 0.73 0.86 0.87 0.86 0.73 0.61
0.24 0.27 0.27 0.25 0.26 0.28 0.30 0.35 0.41 0.48 0.49 0.48 0.52 0.59 0.67 0.78 0.82 0.80 0.80 0.80 0.81 0.83 0.81 0.79 0.75 0.71 0.67 0.71 0.68 0.66 0.58 0.61 0.61 0.63 0.67 0.75 0.72 0.80 0.90 0.82 0.79 0.72 0.61
0.28 0.28 0.31 0.33 0.34 0.36 0.37 0.40 0.45 0.57 0.63 0.64 0.65 0.68 0.74 0.79 0.80 0.78 0.74 0.71 0.67 0.68 0.66 0.64 0.62 0.59 0.58 0.61 0.60 0.60 0.54 0.53 0.58 0.61 0.59 0.62 0.80 0.87 0.86 0.77 0.66 0.70 0.75
0.28 0.31 0.35 0.38 0.38 0.44 0.50 0.51 0.53 0.59 0.64 0.67 0.66 0.66 0.66 0.68 0.72 0.72 0.69 0.65 0.63 0.63 0.62 0.63 0.64 0.62 0.62 0.60 0.60 0.64 0.66 0.67 0.61 0.56 0.51 0.58 0.78 0.77 0.71 0.65 0.68 0.80 0.77
0.30 0.33 0.40 0.43 0.45 0.46 0.51 0.55 0.53 0.53 0.56 0.60 0.62 0.59 0.55 0.56 0.58 0.60 0.62 0.62 0.61 0.60 0.61 0.62 0.65 0.65 0.63 0.65 0.69 0.68 0.75 0.76 0.65 0.61 0.69 0.72 0.69 0.62 0.58 0.61 0.67 0.67 0.63
0.29 0.32 0.35 0.37 0.39 0.41 0.42 0.45 0.43 0.42 0.45 0.48 0.52 0.53 0.50 0.49 0.49 0.50 0.54 0.57 0.58 0.57 0.57 0.58 0.62 0.62 0.59 0.59 0.64 0.67 0.71 0.74 0.71 0.73 0.76 0.70 0.61 0.56 0.56 0.59 0.60 0.57 0.59
0.29 0.30 0.32 0.35 0.37 0.36 0.37 0.38 0.38 0.38 0.41 0.41 0.42 0.44 0.47 0.49 0.50 0.51 0.54 0.58 0.59 0.64 0.64 0.58 0.56 0.59 0.59 0.60 0.74 0.76 0.73 0.78 0.82 0.80 0.66 0.58 0.55 0.54 0.52 0.51 0.51 0.55 0.62
0.31 0.30 0.31 0.33 0.38 0.38 0.36 0.35 0.36 0.37 0.41 0.43 0.43 0.44 0.47 0.48 0.49 0.50 0.54 0.61 0.62 0.67 0.67 0.66 0.63 0.57 0.62 0.69 0.76 0.80 0.85 0.89 0.87 0.77 0.64 0.59 0.54 0.52 0.49 0.48 0.51 0.53 0.59

GEFSMW_prec_meanprecacc_258.txt.gz
Total_Precipitation_Accumulation
0.98 1.16 1.35 1.69 1.93 2.22 2.51 2.57 2.79 2.95 3.11 3.21 3.16 2.98 2.77 2.63 2.54 2.49 2.43 2.25 2.05 1.92 1.75 1.62 1.63 1.64 1.53 1.38 1.33 1.29 1.15 1.06 1.08 1.04 0.86 0.75 0.68 0.64 0.58 0.59 0.57 0.51 0.48
0.84 0.96 1.13 1.41 1.62 1.80 2.00 2.16 2.33 2.55 2.74 2.85 2.84 2.87 2.90 2.75 2.56 2.49 2.46 2.43 2.34 2.17 1.96 1.79 1.74 1.74 1.72 1.55 1.43 1.45 1.39 1.27 1.27 1.29 1.23 1.04 0.86 0.68 0.61 0.61 0.59 0.56 0.56
0.73 0.80 0.92 1.17 1.34 1.47 1.66 1.82 1.98 2.13 2.23 2.57 2.83 2.85 2.94 2.87 2.58 2.34 2.19 2.28 2.41 2.40 2.21 2.02 1.97 1.92 1.91 1.84 1.71 1.61 1.55 1.51 1.45 1.48 1.64 1.43 1.11 0.82 0.69 0.67 0.66 0.62 0.63
0.76 0.80 0.85 1.01 1.10 1.17 1.36 1.57 1.77 1.93 1.97 2.21 2.47 2.49 2.37 2.33 2.22 2.15 2.19 2.24 2.31 2.40 2.39 2.25 2.10 2.03 2.00 1.95 2.02 2.05 1.90 1.78 1.62 1.50 1.44 1.43 1.28 1.19 0.97 0.76 0.75 0.72 0.67
0.69 0.79 0.82 0.86 0.95 0.97 1.06 1.26 1.57 1.74 1.80 1.85 2.04 2.25 2.29 2.24 2.25 2.24 2.23 2.18 2.10 2.16 2.29 2.30 2.18 1.98 1.86 1.80 1.87 1.97 2.03 1.91 1.74 1.61 1.52 1.46 1.31 1.22 1.22 1.02 0.85 0.81 0.73
0.63 0.71 0.72 0.75 0.87 0.86 0.86 1.00 1.20 1.51 1.69 1.75 1.81 1.94 2.01 1.99 2.03 2.11 2.15 2.17 2.07 1.97 1.99 2.05 2.03 2.00 1.88 1.75 1.78 1.89 1.97 2.00 1.94 1.79 1.62 1.54 1.46 1.28 1.28 1.22 1.04 1.01 0.91
0.58 0.64 0.69 0.77 0.82 0.80 0.75 0.80 0.94 1.19 1.43 1.53 1.54 1.62 1.76 1.81 1.78 1.83 1.96 2.00 1.96 1.86 1.86 1.96 1.94 1.94 1.89 1.85 1.82 1.83 1.80 1.83 1.88 1.82 1.70 1.54 1.42 1.36 1.44 1.46 1.31 1.18 1.06
0.50 0.54 0.59 0.65 0.67 0.67 0.69 0.73 0.83 0.94 1.06 1.17 1.26 1.36 1.47 1.56 1.53 1.53 1.64 1.72 1.70 1.70 1.70 1.82 1.87 1.88 1.89 1.88 1.86 1.83 1.77 1.74 1.74 1.70 1.63 1.53 1.39 1.33 1.39 1.51 1.63 1.59 1.33
0.39 0.41 0.47 0.49 0.48 0.51 0.58 0.64 0.67 0.75 0.85 0.93 1.02 1.14 1.19 1.31 1.38 1.40 1.47 1.56 1.57 1.53 1.53 1.57 1.65 1.70 1.72 1.75 1.78 1.79 1.70 1.64 1.62 1.56 1.49 1.42 1.31 1.24 1.26 1.36 1.55 1.82 1.77
0.32 0.35 0.41 0.44 0.44 0.43 0.42 0.46 0.55 0.68 0.76 0.77 0.85 0.97 1.04 1.08 1.17 1.26 1.31 1.35 1.32 1.30 1.31 1.36 1.43 1.48 1.50 1.53 1.62 1.63 1.60 1.59 1.52 1.48 1.44 1.37 1.30 1.27 1.29 1.34 1.42 1.57 1.73
0.32 0.32 0.34 0.38 0.45 0.43 0.38 0.38 0.45 0.56 0.65 0.67 0.72 0.78 0.87 0.93 0.97 1.01 1.06 1.11 1.12 1.12 1.13 1.18 1.26 1.33 1.35 1.35 1.40 1.47 1.49 1.49 1.44 1.40 1.38 1.34 1.28 1.28 1.27 1.31 1.36 1.42 1.50
0.35 0.32 0.30 0.32 0.42 0.45 0.42 0.41 0.44 0.49 0.56 0.61 0.66 0.72 0.74 0.79 0.87 0.92 0.90 0.91 0.95 0.98 0.95 0.93 1.01 1.07 1.11 1.15 1.18 1.22 1.26 1.31 1.30 1.32 1.35 1.34 1.35 1.40 1.41 1.42 1.41 1.40 1.37
0.37 0.36 0.32 0.31 0.37 0.44 0.44 0.42 0.45 0.48 0.51 0.58 0.61 0.66 0.69 0.69 0.74 0.82 0.84 0.84 0.87 0.93 0.95 0.89 0.88 0.92 0.95 1.01 1.03 1.03 1.07 1.13 1.16 1.20 1.26 1.30 1.34 1.43 1.45 1.43 1.41 1.35 1.30
0.39 0.39 0.42 0.38 0.37 0.41 0.41 0.38 0.42 0.45 0.47 0.53 0.57 0.59 0.65 0.67 0.67 0.70 0.75 0.79 0.80 0.85 0.86 0.88 0.87 0.87 0.88 0.94 1.00 1.03 1.05 1.11 1.15 1.18 1.20 1.22 1.22 1.22 1.23 1.23 1.22 1.22 1.24
0.37 0.37 0.39 0.42 0.41 0.39 0.40 0.37 0.38 0.40 0.42 0.48 0.53 0.55 0.60 0.64 0.67 0.68 0.71 0.76 0.77 0.81 0.82 0.84 0.86 0.85 0.86 0.92 1.00 1.06 1.08 1.12 1.18 1.23 1.21 1.14 1.13 1.07 1.04 1.03 1.02 1.04 1.14
0.36 0.36 0.33 0.35 0.36 0.40 0.41 0.41 0.40 0.38 0.41 0.44 0.48 0.51 0.55 0.58 0.63 0.67 0.69 0.71 0.76 0.82 0.86 0.92 0.95 0.96 1.00 1.17 1.20 1.16 1.14 1.13 1.10 1.10 1.05 1.02 1.02 0.99 1.01 1.02 1.01 1.06 1.19
0.29 0.31 0.30 0.32 0.33 0.35 0.37 0.39 0.39 0.37 0.39 0.43 0.45 0.48 0.53 0.57 0.60 0.66 0.72 0.79 0.84 0.93 1.00 1.04 1.12 1.13 1.16 1.22 1.13 1.10 1.04 1.07 1.04 0.97 0.89 0.85 0.81 0.83 0.77 0.86 0.94 0.96 1.04
0.26 0.25 0.25 0.25 0.25 0.27 0.30 0.34 0.35 0.36 0.38 0.42 0.49 0.52 0.55 0.64 0.70 0.72 0.79 0.88 0.95 1.03 1.10 1.10 1.12 1.13 1.14 1.14 1.05 1.01 0.89 0.86 0.86 0.82 0.77 0.71 0.70 0.70 0.74 0.81 0.88 0.80 0.76
0.29 0.28 0.26 0.25 0.25 0.26 0.29 0.34 0.37 0.38 0.38 0.41 0.48 0.54 0.57 0.69 0.77 0.77 0.81 0.89 0.95 1.01 1.04 1.04 1.01 0.94 0.93 0.95 0.86 0.83 0.75 0.75 0.73 0.71 0.72 0.73 0.67 0.75 0.88 0.88 0.87 0.74 0.63
0.27 0.30 0.31 0.28 0.30 0.32 0.33 0.38 0.43 0.50 0.51 0.51 0.55 0.62 0.70 0.81 0.85 0.84 0.84 0.83 0.84 0.85 0.83 0.80 0.77 0.73 0.69 0.73 0.71 0.68 0.60 0.62 0.62 0.64 0.67 0.76 0.73 0.81 0.91 0.82 0.79 0.73 0.62
0.30 0.31 0.35 0.36 0.38 0.40 0.40 0.42 0.47 0.59 0.65 0.67 0.67 0.71 0.77 0.81 0.83 0.81 0.77 0.74 0.70 0.70 0.68 0.66 0.63 0.61 0.60 0.62 0.62 0.62 0.56 0.55 0.60 0.62 0.60 0.62 0.81 0.88 0.87 0.78 0.66 0.70 0.75
0.30 0.33 0.40 0.43 0.43 0.48 0.53 0.53 0.55 0.61 0.66 0.70 0.69 0.69 0.69 0.70 0.74 0.75 0.73 0.69 0.67 0.66 0.66 0.66 0.67 0.65 0.63 0.62 0.61 0.65 0.67 0.68 0.62 0.57 0.52 0.59 0.79 0.78 0.73 0.66 0.69 0.82 0.78
0.32 0.36 0.44 0.49 0.51 0.51 0.55 0.58 0.55 0.55 0.59 0.63 0.65 0.62 0.58 0.58 0.60 0.63 0.66 0.66 0.65 0.64 0.66 0.66 0.68 0.68 0.65 0.67 0.71 0.70 0.76 0.78 0.67 0.63 0.70 0.74 0.70 0.63 0.60 0.63 0.68 0.68 0.64
0.31 0.34 0.39 0.43 0.46 0.47 0.48 0.49 0.46 0.45 0.47 0.51 0.56 0.57 0.53 0.52 0.52 0.52 0.58 0.61 0.62 0.62 0.61 0.63 0.66 0.65 0.61 0.62 0.67 0.69 0.73 0.76 0.73 0.74 0.78 0.72 0.63 0.58 0.57 0.61 0.61 0.58 0.60
0.31 0.32 0.36 0.41 0.43 0.42 0.43 0.42 0.41 0.41 0.44 0.44 0.47 0.49 0.51 0.52 0.53 0.55 0.58 0.62 0.63 0.69 0.69 0.63 0.60 0.63 0.63 0.64 0.77 0.78 0.74 0.79 0.83 0.82 0.67 0.59 0.56 0.56 0.53 0.52 0.52 0.56 0.63
0.33 0.32 0.33 0.38 0.44 0.43 0.41 0.40 0.40 0.41 0.45 0.47 0.47 0.48 0.51 0.53 0.54 0.54 0.59 0.65 0.67 0.72 0.72 0.71 0.67 0.62 0.67 0.74 0.79 0.83 0.88 0.92 0.90 0.79 0.66 0.61 0.56 0.53 0.50 0.49 0.52 0.54 0.60

GEFSMW_prec_meanprecacc_264.txt.gz
Total_Precipitation_Accumulation
0.99 1.18 1.38 1.75 2.02 2.33 2.64 2.70 2.90 3.06 3.22 3.33 3.28 3.08 2.83 2.69 2.59 2.52 2.47 2.29 2.11 1.99 1.83 1.68 1.68 1.66 1.54 1.41 1.38 1.34 1.20 1.11 1.11 1.06 0.87 0.75 0.69 0.65 0.60 0.61 0.61 0.54 0.50
0.86 0.98 1.16 1.47 1.69 1.89 2.13 2.30 2.45 2.65 2.86 2.98 2.97 2.98 2.98 2.81 2.61 2.54 2.51 2.47 2.39 2.24 2.04 1.87 1.80 1.78 1.74 1.57 1.46 1.49 1.44 1.31 1.31 1.33 1.25 1.06 0.88 0.69 0.62 0.62 0.62 0.60 0.59
0.74 0.82 0.95 1.21 1.40 1.54 1.75 1.94 2.10 2.22 2.32 2.69 2.97 3.00 3.07 2.99 2.66 2.41 2.26 2.35 2.46 2.46 2.28 2.10 2.05 1.98 1.95 1.86 1.73 1.65 1.60 1.55 1.48 1.51 1.66 1.45 1.13 0.85 0.70 0.69 0.68 0.66 0.68
0.77 0.81 0.88 1.04 1.15 1.23 1.43 1.66 1.89 2.02 2.04 2.32 2.60 2.62 2.48 2.44 2.30 2.21 2.25 2.31 2.37 2.45 2.45 2.33 2.18 2.11 2.05 1.99 2.06 2.07 1.94 1.83 1.65 1.53 1.46 1.45 1.30 1.22 0.99 0.78 0.77 0.74 0.71
0.70 0.80 0.84 0.89 0.98 1.04 1.14 1.33 1.66 1.85 1.88 1.94 2.17 2.38 2.41 2.34 2.35 2.33 2.31 2.26 2.18 2.22 2.34 2.36 2.25 2.06 1.94 1.86 1.92 2.01 2.06 1.95 1.78 1.64 1.55 1.48 1.33 1.24 1.26 1.06 0.89 0.85 0.76
0.66 0.72 0.73 0.78 0.90 0.92 0.94 1.08 1.27 1.62 1.79 1.82 1.89 2.04 2.12 2.09 2.14 2.22 2.24 2.25 2.16 2.04 2.04 2.10 2.07 2.05 1.95 1.82 1.84 1.95 2.03 2.05 2.00 1.83 1.65 1.57 1.48 1.29 1.30 1.26 1.10 1.06 0.96
0.61 0.66 0.71 0.80 0.85 0.85 0.83 0.89 1.00 1.27 1.54 1.64 1.63 1.70 1.85 1.90 1.88 1.93 2.06 2.09 2.05 1.94 1.92 2.01 1.98 1.97 1.92 1.90 1.87 1.88 1.87 1.90 1.94 1.89 1.75 1.57 1.44 1.38 1.45 1.49 1.36 1.24 1.11
0.53 0.58 0.62 0.68 0.70 0.70 0.75 0.82 0.90 1.00 1.16 1.30 1.39 1.46 1.56 1.65 1.62 1.61 1.75 1.82 1.78 1.77 1.77 1.88 1.92 1.91 1.92 1.91 1.89 1.86 1.81 1.79 1.80 1.76 1.69 1.58 1.42 1.35 1.41 1.54 1.67 1.64 1.38
0.41 0.44 0.50 0.53 0.54 0.55 0.63 0.71 0.75 0.81 0.90 1.02 1.16 1.28 1.30 1.40 1.47 1.48 1.55 1.68 1.66 1.61 1.60 1.63 1.69 1.74 1.75 1.78 1.80 1.80 1.72 1.66 1.66 1.61 1.54 1.48 1.37 1.28 1.29 1.39 1.58 1.87 1.82
0.34 0.37 0.43 0.48 0.50 0.50 0.48 0.51 0.62 0.74 0.81 0.83 0.95 1.10 1.17 1.18 1.26 1.34 1.38 1.43 1.42 1.38 1.37 1.41 1.46 1.51 1.53 1.56 1.65 1.65 1.62 1.61 1.55 1.51 1.48 1.42 1.35 1.33 1.33 1.37 1.46 1.61 1.77
0.33 0.34 0.36 0.41 0.50 0.51 0.46 0.43 0.51 0.63 0.69 0.72 0.78 0.88 0.99 1.05 1.09 1.12 1.16 1.19 1.20 1.20 1.20 1.23 1.30 1.36 1.38 1.37 1.43 1.50 1.52 1.51 1.46 1.43 1.41 1.37 1.32 1.32 1.31 1.34 1.39 1.45 1.54
0.37 0.34 0.32 0.35 0.45 0.51 0.51 0.48 0.49 0.55 0.62 0.65 0.70 0.79 0.83 0.89 1.00 1.06 1.02 1.01 1.04 1.06 1.04 1.01 1.06 1.11 1.14 1.17 1.20 1.23 1.29 1.33 1.33 1.35 1.38 1.37 1.38 1.43 1.44 1.45 1.44 1.42 1.40
0.40 0.37 0.34 0.33 0.39 0.48 0.53 0.50 0.51 0.53 0.57 0.62 0.65 0.72 0.75 0.76 0.83 0.93 0.97 0.96 0.98 1.03 1.04 0.98 0.97 0.97 0.98 1.04 1.06 1.06 1.09 1.15 1.18 1.22 1.29 1.33 1.37 1.46 1.48 1.46 1.43 1.37 1.32
0.43 0.42 0.44 0.40 0.39 0.43 0.48 0.47 0.51 0.52 0.53 0.59 0.62 0.64 0.72 0.72 0.73 0.78 0.85 0.90 0.91 0.95 0.95 0.96 0.95 0.95 0.94 0.98 1.04 1.07 1.09 1.14 1.18 1.20 1.23 1.24 1.25 1.25 1.26 1.26 1.24 1.25 1.26
0.40 0.40 0.42 0.45 0.43 0.42 0.45 0.44 0.47 0.51 0.49 0.54 0.58 0.60 0.65 0.68 0.72 0.74 0.78 0.84 0.87 0.90 0.92 0.94 0.95 0.93 0.93 0.98 1.05 1.10 1.12 1.16 1.21 1.26 1.23 1.17 1.16 1.10 1.07 1.06 1.05 1.07 1.16
0.39 0.38 0.35 0.39 0.39 0.42 0.45 0.47 0.47 0.49 0.51 0.51 0.52 0.56 0.60 0.62 0.67 0.73 0.75 0.77 0.83 0.89 0.94 1.00 1.04 1.05 1.07 1.23 1.27 1.23 1.20 1.17 1.14 1.12 1.08 1.05 1.05 1.02 1.05 1.05 1.04 1.09 1.21
0.32 0.33 0.33 0.35 0.36 0.38 0.41 0.44 0.46 0.47 0.50 0.53 0.52 0.54 0.58 0.61 0.64 0.71 0.79 0.86 0.90 0.99 1.06 1.10 1.19 1.21 1.22 1.27 1.17 1.15 1.10 1.13 1.09 1.00 0.92 0.88 0.83 0.86 0.80 0.89 0.96 0.98 1.06
0.29 0.27 0.28 0.27 0.28 0.30 0.33 0.38 0.41 0.45 0.48 0.53 0.58 0.60 0.61 0.67 0.73 0.77 0.84 0.93 1.01 1.09 1.17 1.16 1.17 1.19 1.20 1.20 1.09 1.05 0.93 0.89 0.90 0.86 0.79 0.73 0.71 0.72 0.76 0.83 0.90 0.82 0.78
0.32 0.30 0.29 0.28 0.28 0.30 0.33 0.39 0.44 0.46 0.46 0.51 0.58 0.63 0.65 0.74 0.81 0.82 0.87 0.94 0.99 1.05 1.09 1.10 1.06 0.98 0.98 1.00 0.92 0.88 0.80 0.79 0.77 0.74 0.74 0.75 0.69 0.77 0.90 0.90 0.89 0.76 0.65
0.29 0.33 0.34 0.31 0.33 0.35 0.37 0.43 0.51 0.59 0.61 0.60 0.64 0.71 0.79 0.88 0.91 0.88 0.88 0.87 0.88 0.89 0.86 0.84 0.81 0.76 0.73 0.77 0.75 0.73 0.64 0.66 0.66 0.68 0.71 0.80 0.76 0.84 0.95 0.85 0.81 0.74 0.63
0.32 0.33 0.37 0.38 0.41 0.43 0.44 0.46 0.51 0.65 0.72 0.74 0.75 0.77 0.84 0.88 0.90 0.86 0.82 0.79 0.75 0.75 0.72 0.69 0.67 0.64 0.63 0.65 0.65 0.66 0.60 0.59 0.63 0.65 0.63 0.65 0.84 0.91 0.90 0.81 0.68 0.72 0.76
0.31 0.35 0.41 0.45 0.45 0.50 0.56 0.56 0.58 0.65 0.71 0.75 0.76 0.75 0.75 0.76 0.80 0.81 0.78 0.74 0.73 0.72 0.70 0.69 0.70 0.68 0.67 0.65 0.64 0.68 0.70 0.72 0.66 0.61 0.55 0.61 0.81 0.80 0.75 0.68 0.71 0.83 0.79
0.33 0.38 0.46 0.51 0.53 0.53 0.58 0.62 0.59 0.58 0.62 0.67 0.70 0.68 0.65 0.64 0.65 0.69 0.72 0.73 0.72 0.71 0.71 0.71 0.71 0.70 0.68 0.71 0.75 0.73 0.79 0.81 0.70 0.67 0.75 0.78 0.73 0.65 0.61 0.65 0.70 0.70 0.65
0.33 0.36 0.41 0.46 0.48 0.49 0.51 0.54 0.50 0.48 0.50 0.54 0.59 0.62 0.60 0.58 0.57 0.57 0.64 0.68 0.70 0.68 0.67 0.68 0.70 0.69 0.65 0.65 0.71 0.73 0.76 0.78 0.75 0.77 0.82 0.77 0.68 0.61 0.59 0.63 0.63 0.60 0.62
0.33 0.35 0.38 0.43 0.46 0.45 0.46 0.46 0.45 0.44 0.46 0.47 0.50 0.53 0.57 0.59 0.60 0.60 0.64 0.69 0.70 0.76 0.75 0.68 0.66 0.68 0.67 0.69 0.81 0.82 0.77 0.81 0.85 0.84 0.70 0.62 0.60 0.59 0.55 0.54 0.54 0.58 0.64
0.35 0.35 0.36 0.40 0.46 0.46 0.45 0.45 0.43 0.44 0.47 0.49 0.49 0.51 0.57 0.60 0.61 0.61 0.64 0.71 0.74 0.79 0.79 0.77 0.73 0.68 0.72 0.79 0.84 0.88 0.93 0.96 0.94 0.83 0.69 0.64 0.59 0.56 0.52 0.51 0.54 0.56 0.62

GEFSMW_prec_meanprecacc_270.txt.gz
Total_Precipitation_Accumulation
1.03 1.23 1.45 1.84 2.10 2.40 2.72 2.79 2.98 3.14 3.29 3.42 3.42 3.21 2.93 2.75 2.63 2.56 2.52 2.36 2.19 2.09 1.91 1.76 1.77 1.73 1.59 1.45 1.44 1.38 1.23 1.14 1.16 1.12 0.91 0.78 0.71 0.67 0.62 0.64 0.64 0.56 0.51
0.88 1.02 1.23 1.57 1.79 1.98 2.22 2.41 2.55 2.74 2.93 3.04 3.07 3.15 3.13 2.90 2.67 2.60 2.56 2.55 2.49 2.34 2.12 1.94 1.87 1.86 1.82 1.63 1.52 1.55 1.48 1.35 1.35 1.39 1.32 1.12 0.93 0.73 0.64 0.64 0.65 0.63 0.61
0.76 0.85 1.01 1.32 1.53 1.67 1.85 2.05 2.24 2.33 2.41 2.76 3.05 3.11 3.27 3.17 2.78 2.50 2.34 2.42 2.55 2.58 2.38 2.15 2.11 2.07 2.04 1.94 1.80 1.71 1.64 1.59 1.51 1.55 1.72 1.51 1.19 0.88 0.73 0.71 0.69 0.68 0.70
0.79 0.85 0.93 1.11 1.26 1.35 1.56 1.78 2.04 2.20 2.17 2.41 2.68 2.70 2.63 2.66 2.47 2.34 2.36 2.42 2.47 2.56 2.58 2.40 2.23 2.18 2.16 2.10 2.17 2.16 2.00 1.87 1.68 1.56 1.49 1.49 1.34 1.25 1.02 0.80 0.78 0.76 0.72
0.72 0.82 0.88 0.94 1.07 1.13 1.25 1.45 1.80 2.05 2.09 2.09 2.27 2.47 2.52 2.51 2.56 2.50 2.46 2.39 2.29 2.35 2.47 2.47 2.32 2.11 2.01 1.96 2.04 2.13 2.16 2.02 1.82 1.68 1.57 1.50 1.36 1.28 1.29 1.08 0.90 0.86 0.77
0.68 0.75 0.77 0.83 0.98 1.01 1.01 1.15 1.37 1.75 2.00 2.01 2.03 2.15 2.23 2.22 2.33 2.43 2.40 2.40 2.29 2.18 2.19 2.20 2.15 2.11 2.00 1.89 1.93 2.06 2.14 2.15 2.08 1.89 1.69 1.60 1.51 1.32 1.33 1.28 1.11 1.08 0.97
0.65 0.68 0.74 0.84 0.92 0.94 0.90 0.94 1.06 1.35 1.68 1.82 1.78 1.83 1.96 2.01 2.01 2.15 2.26 2.26 2.19 2.08 2.07 2.12 2.05 2.03 1.97 1.96 1.94 1.97 1.97 2.00 2.04 1.97 1.81 1.62 1.49 1.41 1.48 1.51 1.39 1.26 1.14
0.57 0.61 0.64 0.71 0.75 0.78 0.81 0.88 0.95 1.06 1.25 1.43 1.55 1.60 1.69 1.77 1.72 1.75 1.96 2.01 1.93 1.90 1.89 1.98 2.00 1.98 1.97 1.96 1.95 1.93 1.89 1.88 1.88 1.84 1.76 1.63 1.47 1.39 1.44 1.57 1.70 1.67 1.41
0.44 0.48 0.53 0.57 0.58 0.62 0.69 0.76 0.80 0.87 0.99 1.10 1.28 1.44 1.44 1.52 1.58 1.59 1.69 1.87 1.86 1.76 1.72 1.73 1.79 1.82 1.83 1.85 1.87 1.87 1.79 1.74 1.73 1.68 1.61 1.53 1.41 1.32 1.32 1.41 1.61 1.89 1.85
0.37 0.40 0.47 0.52 0.54 0.56 0.52 0.55 0.65 0.80 0.89 0.89 1.02 1.22 1.33 1.35 1.39 1.47 1.52 1.58 1.61 1.58 1.53 1.54 1.58 1.63 1.64 1.66 1.73 1.71 1.67 1.66 1.60 1.56 1.54 1.48 1.40 1.37 1.37 1.40 1.48 1.63 1.79
0.36 0.37 0.39 0.45 0.54 0.57 0.50 0.46 0.55 0.68 0.76 0.78 0.83 0.95 1.11 1.22 1.26 1.27 1.31 1.35 1.37 1.39 1.38 1.38 1.44 1.48 1.49 1.48 1.53 1.58 1.58 1.55 1.50 1.46 1.45 1.42 1.37 1.38 1.36 1.38 1.43 1.48 1.56
0.38 0.36 0.35 0.38 0.49 0.57 0.57 0.51 0.53 0.59 0.68 0.71 0.75 0.84 0.90 1.03 1.15 1.21 1.18 1.15 1.19 1.22 1.20 1.17 1.21 1.26 1.28 1.28 1.30 1.35 1.38 1.40 1.37 1.37 1.40 1.39 1.41 1.48 1.49 1.50 1.48 1.46 1.44
0.42 0.39 0.37 0.36 0.44 0.54 0.60 0.55 0.55 0.57 0.61 0.69 0.70 0.77 0.81 0.86 0.94 1.07 1.12 1.11 1.11 1.16 1.17 1.12 1.12 1.12 1.12 1.16 1.17 1.16 1.19 1.23 1.25 1.27 1.32 1.34 1.39 1.48 1.51 1.50 1.48 1.42 1.37
0.45 0.45 0.47 0.44 0.43 0.49 0.56 0.54 0.56 0.56 0.56 0.64 0.69 0.69 0.76 0.79 0.81 0.88 0.97 1.02 1.03 1.07 1.06 1.07 1.07 1.09 1.08 1.10 1.14 1.16 1.17 1.20 1.22 1.23 1.25 1.26 1.26 1.27 1.28 1.29 1.29 1.29 1.31
0.43 0.43 0.45 0.48 0.47 0.46 0.52 0.53 0.53 0.57 0.54 0.58 0.66 0.68 0.71 0.74 0.78 0.82 0.88 0.95 0.97 1.01 1.02 1.02 1.03 1.02 1.05 1.12 1.17 1.19 1.21 1.23 1.27 1.29 1.26 1.19 1.17 1.12 1.10 1.08 1.08 1.11 1.22
0.43 0.41 0.38 0.42 0.42 0.46 0.50 0.54 0.54 0.56 0.57 0.56 0.59 0.64 0.69 0.70 0.74 0.79 0.83 0.86 0.93 0.99 1.03 1.09 1.12 1.12 1.15 1.33 1.38 1.33 1.28 1.24 1.20 1.17 1.11 1.07 1.08 1.05 1.08 1.09 1.08 1.13 1.26
0.36 0.36 0.36 0.38 0.39 0.41 0.45 0.50 0.52 0.52 0.56 0.58 0.58 0.60 0.66 0.71 0.73 0.78 0.85 0.93 0.98 1.08 1.15 1.19 1.29 1.31 1.31 1.37 1.26 1.25 1.19 1.20 1.16 1.06 0.98 0.92 0.87 0.89 0.83 0.93 1.01 1.03 1.11
0.32 0.31 0.31 0.31 0.31 0.33 0.37 0.43 0.46 0.49 0.52 0.57 0.63 0.66 0.67 0.75 0.82 0.85 0.91 1.00 1.07 1.16 1.24 1.23 1.25 1.28 1.31 1.32 1.19 1.15 1.01 0.96 0.97 0.93 0.88 0.82 0.79 0.79 0.81 0.87 0.95 0.87 0.83
0.35 0.33 0.32 0.31 0.31 0.33 0.36 0.43 0.49 0.51 0.51 0.55 0.62 0.68 0.70 0.80 0.88 0.89 0.93 1.00 1.05 1.11 1.14 1.15 1.12 1.05 1.05 1.10 1.02 0.99 0.90 0.88 0.84 0.81 0.81 0.83 0.78 0.87 0.99 0.97 0.95 0.82 0.72
0.31 0.35 0.37 0.34 0.36 0.38 0.40 0.46 0.55 0.64 0.67 0.66 0.69 0.76 0.84 0.94 0.97 0.94 0.94 0.93 0.93 0.93 0.90 0.87 0.85 0.81 0.78 0.84 0.83 0.82 0.74 0.76 0.75 0.76 0.79 0.88 0.83 0.92 1.03 0.92 0.89 0.81 0.70
0.34 0.35 0.39 0.41 0.44 0.45 0.46 0.48 0.54 0.68 0.76 0.79 0.80 0.82 0.90 0.95 0.96 0.92 0.87 0.84 0.80 0.79 0.76 0.72 0.70 0.67 0.67 0.70 0.70 0.72 0.67 0.66 0.70 0.71 0.68 0.70 0.89 0.96 0.95 0.85 0.73 0.77 0.81
0.33 0.37 0.43 0.46 0.48 0.53 0.58 0.58 0.60 0.67 0.73 0.77 0.78 0.78 0.80 0.83 0.87 0.88 0.83 0.79 0.77 0.76 0.75 0.74 0.75 0.72 0.71 0.70 0.69 0.73 0.75 0.77 0.71 0.65 0.58 0.64 0.84 0.83 0.77 0.70 0.74 0.86 0.82
0.35 0.40 0.49 0.53 0.55 0.55 0.60 0.64 0.60 0.60 0.64 0.69 0.72 0.71 0.69 0.69 0.72 0.76 0.77 0.78 0.77 0.75 0.75 0.75 0.77 0.76 0.73 0.75 0.80 0.78 0.84 0.85 0.73 0.70 0.78 0.80 0.76 0.68 0.64 0.67 0.73 0.72 0.67
0.35 0.39 0.44 0.48 0.50 0.51 0.53 0.56 0.52 0.50 0.51 0.56 0.62 0.65 0.65 0.64 0.64 0.63 0.69 0.74 0.75 0.74 0.71 0.72 0.75 0.75 0.71 0.71 0.75 0.78 0.80 0.82 0.79 0.80 0.85 0.80 0.70 0.64 0.62 0.65 0.66 0.63 0.64
0.36 0.38 0.43 0.47 0.48 0.47 0.48 0.49 0.47 0.46 0.48 0.48 0.52 0.56 0.61 0.64 0.66 0.66 0.69 0.75 0.76 0.82 0.82 0.74 0.71 0.74 0.73 0.75 0.87 0.87 0.82 0.86 0.89 0.87 0.72 0.65 0.62 0.62 0.59 0.57 0.57 0.60 0.67
0.37 0.38 0.39 0.44 0.49 0.49 0.47 0.47 0.46 0.46 0.49 0.51 0.51 0.55 0.60 0.63 0.65 0.66 0.69 0.76 0.79 0.85 0.85 0.84 0.79 0.74 0.78 0.85 0.90 0.93 0.98 1.00 0.98 0.87 0.72 0.66 0.60 0.57 0.54 0.53 0.57 0.59 0.65

GEFSMW_prec_meanprecacc_276.txt.gz
Total_Precipitation_Accumulation
1.07 1.27 1.49 1.88 2.13 2.44 2.77 2.88 3.10 3.25 3.38 3.51 3.50 3.30 3.02 2.81 2.68 2.62 2.57 2.40 2.23 2.15 2.03 1.88 1.87 1.80 1.65 1.50 1.50 1.47 1.33 1.21 1.19 1.15 0.94 0.80 0.73 0.68 0.63 0.65 0.65 0.58 0.52
0.94 1.08 1.29 1.63 1.84 2.03 2.27 2.50 2.68 2.87 3.02 3.11 3.14 3.24 3.25 3.00 2.74 2.66 2.62 2.60 2.53 2.38 2.21 2.05 1.98 1.94 1.88 1.69 1.58 1.61 1.57 1.44 1.40 1.41 1.35 1.15 0.95 0.74 0.66 0.65 0.66 0.65 0.63
0.82 0.92 1.09 1.41 1.60 1.73 1.91 2.13 2.36 2.47 2.54 2.84 3.12 3.19 3.39 3.30 2.88 2.57 2.41 2.50 2.62 2.65 2.46 2.26 2.22 2.15 2.11 2.00 1.86 1.78 1.74 1.69 1.58 1.58 1.75 1.55 1.22 0.90 0.75 0.72 0.71 0.70 0.73
0.84 0.91 1.00 1.20 1.37 1.45 1.64 1.87 2.16 2.34 2.34 2.53 2.77 2.78 2.73 2.80 2.62 2.45 2.45 2.50 2.56 2.65 2.67 2.52 2.34 2.27 2.22 2.16 2.22 2.22 2.09 1.98 1.77 1.62 1.53 1.52 1.37 1.29 1.05 0.83 0.81 0.78 0.75
0.77 0.88 0.94 1.01 1.15 1.24 1.34 1.55 1.91 2.19 2.27 2.27 2.39 2.57 2.62 2.63 2.70 2.64 2.58 2.48 2.38 2.43 2.57 2.59 2.46 2.22 2.08 2.02 2.08 2.18 2.22 2.11 1.92 1.74 1.63 1.55 1.39 1.31 1.32 1.12 0.94 0.90 0.80
0.73 0.80 0.82 0.88 1.05 1.08 1.10 1.24 1.46 1.87 2.18 2.24 2.24 2.28 2.33 2.34 2.45 2.58 2.55 2.51 2.38 2.25 2.26 2.31 2.28 2.22 2.09 1.95 1.97 2.10 2.18 2.21 2.15 1.96 1.75 1.65 1.55 1.36 1.36 1.31 1.15 1.12 1.00
0.69 0.72 0.78 0.89 0.97 1.02 0.98 1.04 1.15 1.44 1.80 2.00 2.02 2.03 2.09 2.13 2.14 2.28 2.43 2.40 2.29 2.15 2.13 2.20 2.16 2.14 2.06 2.02 1.98 2.00 2.01 2.04 2.10 2.04 1.87 1.67 1.53 1.45 1.52 1.55 1.42 1.30 1.17
0.61 0.64 0.67 0.74 0.80 0.84 0.88 0.96 1.02 1.14 1.34 1.54 1.71 1.81 1.88 1.91 1.84 1.88 2.10 2.19 2.07 1.99 1.97 2.06 2.09 2.08 2.06 2.02 2.00 1.96 1.91 1.91 1.92 1.89 1.82 1.69 1.51 1.43 1.48 1.60 1.74 1.71 1.45
0.48 0.51 0.55 0.59 0.61 0.66 0.73 0.81 0.85 0.93 1.05 1.17 1.38 1.59 1.64 1.70 1.73 1.73 1.83 2.04 2.04 1.89 1.81 1.83 1.88 1.92 1.92 1.92 1.93 1.91 1.82 1.77 1.76 1.71 1.65 1.58 1.46 1.37 1.36 1.45 1.65 1.94 1.89
0.40 0.43 0.49 0.54 0.57 0.59 0.55 0.58 0.69 0.83 0.94 0.96 1.10 1.32 1.47 1.51 1.55 1.62 1.66 1.73 1.80 1.79 1.69 1.67 1.69 1.74 1.75 1.75 1.81 1.78 1.72 1.70 1.64 1.59 1.56 1.50 1.43 1.40 1.40 1.45 1.52 1.67 1.83
0.39 0.41 0.42 0.48 0.56 0.60 0.53 0.49 0.57 0.70 0.80 0.83 0.90 1.04 1.19 1.32 1.38 1.39 1.42 1.47 1.52 1.60 1.64 1.58 1.59 1.62 1.64 1.62 1.66 1.69 1.66 1.61 1.55 1.50 1.48 1.44 1.39 1.40 1.38 1.41 1.47 1.52 1.60
0.42 0.40 0.38 0.41 0.52 0.61 0.60 0.54 0.55 0.61 0.70 0.75 0.80 0.91 0.98 1.09 1.23 1.31 1.27 1.26 1.30 1.35 1.38 1.39 1.40 1.38 1.39 1.42 1.44 1.49 1.51 1.50 1.45 1.43 1.44 1.42 1.43 1.50 1.51 1.52 1.51 1.50 1.47
0.46 0.43 0.41 0.41 0.47 0.58 0.63 0.59 0.58 0.59 0.63 0.71 0.72 0.82 0.89 0.93 0.99 1.11 1.18 1.19 1.21 1.27 1.30 1.28 1.30 1.30 1.26 1.29 1.29 1.29 1.33 1.37 1.37 1.37 1.39 1.39 1.42 1.51 1.53 1.53 1.51 1.44 1.40
0.50 0.49 0.51 0.49 0.49 0.54 0.60 0.59 0.61 0.59 0.57 0.66 0.71 0.71 0.81 0.87 0.89 0.92 1.00 1.07 1.10 1.15 1.16 1.19 1.20 1.24 1.25 1.25 1.27 1.28 1.28 1.31 1.33 1.34 1.33 1.32 1.31 1.31 1.31 1.31 1.31 1.32 1.34
0.46 0.47 0.49 0.53 0.52 0.51 0.57 0.59 0.60 0.62 0.57 0.60 0.68 0.70 0.73 0.78 0.86 0.89 0.94 1.00 1.03 1.07 1.10 1.12 1.13 1.13 1.18 1.26 1.30 1.32 1.34 1.34 1.36 1.38 1.34 1.26 1.22 1.15 1.13 1.11 1.11 1.14 1.25
0.45 0.44 0.42 0.46 0.47 0.51 0.57 0.62 0.63 0.63 0.61 0.58 0.61 0.67 0.71 0.74 0.78 0.85 0.91 0.94 1.00 1.06 1.10 1.17 1.20 1.20 1.24 1.43 1.50 1.44 1.39 1.36 1.31 1.27 1.19 1.13 1.13 1.09 1.11 1.12 1.10 1.16 1.29
0.38 0.39 0.39 0.42 0.43 0.46 0.52 0.58 0.62 0.62 0.63 0.62 0.61 0.64 0.69 0.75 0.78 0.82 0.90 1.00 1.06 1.17 1.23 1.27 1.37 1.38 1.38 1.45 1.34 1.32 1.27 1.28 1.24 1.15 1.06 1.00 0.93 0.94 0.87 0.96 1.04 1.05 1.13
0.34 0.33 0.34 0.34 0.34 0.37 0.42 0.50 0.57 0.61 0.62 0.64 0.68 0.70 0.71 0.79 0.87 0.89 0.94 1.04 1.12 1.22 1.31 1.31 1.32 1.34 1.37 1.38 1.25 1.22 1.08 1.03 1.03 1.00 0.94 0.88 0.86 0.85 0.86 0.92 0.99 0.91 0.86
0.37 0.36 0.35 0.35 0.34 0.36 0.40 0.48 0.57 0.61 0.62 0.64 0.68 0.73 0.76 0.86 0.95 0.95 0.97 1.03 1.08 1.15 1.19 1.21 1.18 1.11 1.12 1.16 1.08 1.06 0.97 0.95 0.90 0.86 0.87 0.89 0.83 0.92 1.05 1.04 1.01 0.87 0.77
0.33 0.38 0.40 0.37 0.39 0.41 0.43 0.49 0.59 0.71 0.75 0.75 0.76 0.81 0.90 1.01 1.04 1.02 1.00 0.97 0.97 0.97 0.95 0.94 0.90 0.86 0.85 0.92 0.90 0.89 0.81 0.83 0.82 0.82 0.84 0.94 0.89 0.98 1.09 0.99 0.96 0.88 0.76
0.36 0.37 0.41 0.44 0.47 0.48 0.49 0.52 0.58 0.73 0.81 0.85 0.87 0.89 0.96 1.02 1.03 1.00 0.94 0.90 0.85 0.84 0.81 0.78 0.75 0.72 0.73 0.78 0.77 0.77 0.72 0.73 0.77 0.78 0.75 0.77 0.97 1.02 1.01 0.92 0.79 0.83 0.86
0.34 0.39 0.46 0.49 0.50 0.55 0.61 0.61 0.64 0.71 0.76 0.81 0.83 0.83 0.85 0.89 0.93 0.95 0.91 0.86 0.84 0.83 0.81 0.79 0.81 0.77 0.76 0.76 0.75 0.78 0.80 0.82 0.77 0.72 0.65 0.71 0.93 0.90 0.84 0.77 0.81 0.93 0.88
0.36 0.42 0.51 0.56 0.57 0.58 0.62 0.67 0.64 0.63 0.66 0.72 0.75 0.74 0.72 0.74 0.77 0.81 0.84 0.86 0.84 0.82 0.81 0.81 0.83 0.82 0.78 0.80 0.85 0.82 0.87 0.88 0.77 0.75 0.85 0.88 0.84 0.76 0.71 0.74 0.79 0.77 0.72
0.36 0.41 0.46 0.51 0.53 0.53 0.55 0.58 0.55 0.52 0.53 0.58 0.64 0.67 0.68 0.68 0.67 0.68 0.75 0.81 0.83 0.81 0.78 0.78 0.82 0.80 0.75 0.75 0.79 0.81 0.83 0.86 0.82 0.84 0.90 0.85 0.76 0.70 0.68 0.72 0.72 0.68 0.69
0.37 0.40 0.45 0.50 0.51 0.49 0.50 0.50 0.49 0.47 0.49 0.50 0.53 0.57 0.63 0.67 0.69 0.69 0.74 0.81 0.82 0.89 0.88 0.80 0.77 0.79 0.78 0.78 0.90 0.91 0.86 0.90 0.93 0.91 0.77 0.69 0.67 0.66 0.63 0.63 0.63 0.66 0.73
0.39 0.39 0.41 0.46 0.51 0.50 0.49 0.49 0.48 0.47 0.51 0.52 0.53 0.56 0.62 0.66 0.68 0.69 0.73 0.81 0.84 0.90 0.90 0.90 0.85 0.79 0.83 0.89 0.94 0.97 1.02 1.04 1.03 0.91 0.76 0.70 0.65 0.62 0.58 0.57 0.60 0.63 0.69

GEFSMW_prec_meanprecacc_282.txt.gz
Total_Precipitation_Accumulation
1.10 1.31 1.53 1.92 2.17 2.48 2.81 2.93 3.17 3.35 3.47 3.57 3.55 3.36 3.08 2.87 2.73 2.66 2.62 2.46 2.29 2.23 2.12 1.96 1.94 1.86 1.69 1.53 1.53 1.51 1.37 1.25 1.24 1.20 0.99 0.83 0.75 0.71 0.67 0.69 0.68 0.60 0.53
0.96 1.11 1.33 1.69 1.89 2.08 2.32 2.55 2.76 2.98 3.14 3.19 3.20 3.28 3.29 3.04 2.79 2.71 2.68 2.67 2.59 2.45 2.27 2.13 2.05 2.01 1.93 1.73 1.61 1.65 1.61 1.48 1.44 1.46 1.41 1.20 0.99 0.77 0.69 0.69 0.69 0.66 0.64
0.85 0.95 1.12 1.47 1.70 1.82 2.00 2.21 2.45 2.59 2.67 2.96 3.20 3.26 3.45 3.36 2.92 2.61 2.46 2.56 2.69 2.71 2.52 2.32 2.28 2.22 2.16 2.04 1.89 1.81 1.77 1.72 1.62 1.62 1.80 1.60 1.26 0.93 0.78 0.75 0.74 0.72 0.74
0.87 0.93 1.02 1.24 1.45 1.55 1.72 1.96 2.27 2.47 2.47 2.68 2.88 2.87 2.80 2.86 2.67 2.49 2.50 2.57 2.63 2.71 2.73 2.58 2.40 2.33 2.29 2.21 2.26 2.25 2.12 2.01 1.81 1.67 1.59 1.57 1.41 1.32 1.08 0.86 0.84 0.80 0.77
0.81 0.91 0.98 1.05 1.21 1.32 1.43 1.63 2.01 2.31 2.40 2.43 2.56 2.70 2.71 2.69 2.75 2.69 2.63 2.55 2.45 2.51 2.64 2.65 2.52 2.29 2.17 2.10 2.14 2.23 2.26 2.14 1.95 1.78 1.68 1.60 1.43 1.34 1.35 1.15 0.96 0.92 0.81
0.76 0.83 0.86 0.92 1.09 1.14 1.17 1.32 1.55 1.97 2.31 2.39 2.40 2.44 2.47 2.43 2.52 2.64 2.61 2.59 2.45 2.33 2.34 2.37 2.34 2.28 2.16 2.05 2.06 2.18 2.25 2.26 2.19 2.00 1.79 1.70 1.59 1.39 1.40 1.35 1.18 1.14 1.02
0.70 0.75 0.81 0.93 1.01 1.07 1.04 1.11 1.22 1.53 1.92 2.13 2.18 2.21 2.24 2.25 2.23 2.36 2.51 2.50 2.38 2.24 2.22 2.27 2.22 2.20 2.12 2.09 2.05 2.07 2.06 2.09 2.14 2.08 1.91 1.71 1.57 1.48 1.55 1.59 1.46 1.33 1.20
0.62 0.67 0.71 0.79 0.84 0.88 0.93 1.01 1.09 1.22 1.43 1.64 1.83 1.96 2.04 2.05 1.97 1.98 2.20 2.31 2.20 2.12 2.10 2.17 2.15 2.12 2.11 2.08 2.05 2.01 1.96 1.95 1.95 1.91 1.84 1.72 1.56 1.47 1.52 1.65 1.78 1.75 1.48
0.49 0.53 0.58 0.64 0.65 0.70 0.77 0.85 0.90 0.99 1.13 1.27 1.47 1.70 1.78 1.86 1.88 1.85 1.94 2.17 2.17 2.02 1.95 1.97 1.97 1.97 1.97 1.98 1.99 1.98 1.87 1.81 1.80 1.74 1.67 1.61 1.49 1.41 1.41 1.49 1.69 1.97 1.92
0.42 0.46 0.52 0.58 0.61 0.63 0.59 0.61 0.73 0.87 0.98 1.03 1.18 1.40 1.57 1.65 1.71 1.77 1.79 1.87 1.95 1.92 1.81 1.78 1.79 1.81 1.81 1.82 1.89 1.85 1.78 1.76 1.69 1.63 1.59 1.53 1.46 1.44 1.45 1.50 1.57 1.71 1.86
0.41 0.44 0.46 0.52 0.61 0.64 0.57 0.53 0.61 0.73 0.82 0.87 0.96 1.09 1.27 1.42 1.52 1.57 1.59 1.62 1.67 1.75 1.78 1.69 1.71 1.73 1.73 1.70 1.74 1.77 1.74 1.68 1.60 1.55 1.52 1.48 1.42 1.43 1.42 1.45 1.52 1.57 1.63
0.44 0.44 0.43 0.47 0.57 0.65 0.64 0.57 0.58 0.63 0.72 0.78 0.84 0.96 1.04 1.17 1.34 1.45 1.45 1.43 1.44 1.49 1.52 1.54 1.56 1.56 1.53 1.51 1.52 1.57 1.60 1.59 1.52 1.48 1.49 1.46 1.46 1.53 1.55 1.56 1.55 1.54 1.51
0.49 0.47 0.46 0.47 0.54 0.63 0.68 0.62 0.60 0.61 0.65 0.74 0.76 0.86 0.95 1.00 1.07 1.20 1.30 1.34 1.37 1.41 1.42 1.40 1.45 1.47 1.42 1.42 1.40 1.38 1.42 1.47 1.46 1.44 1.46 1.45 1.48 1.55 1.57 1.56 1.54 1.48 1.43
0.53 0.52 0.55 0.54 0.57 0.60 0.66 0.63 0.65 0.62 0.60 0.69 0.74 0.74 0.86 0.93 0.95 0.98 1.08 1.16 1.19 1.25 1.25 1.27 1.28 1.33 1.36 1.38 1.40 1.40 1.37 1.40 1.43 1.43 1.41 1.39 1.39 1.38 1.37 1.36 1.36 1.37 1.38
0.49 0.50 0.53 0.57 0.59 0.57 0.63 0.64 0.65 0.65 0.60 0.63 0.70 0.72 0.77 0.82 0.90 0.95 1.00 1.08 1.10 1.14 1.16 1.17 1.18 1.19 1.24 1.34 1.40 1.43 1.44 1.45 1.46 1.48 1.43 1.34 1.30 1.23 1.19 1.18 1.17 1.20 1.31
0.48 0.47 0.45 0.50 0.52 0.58 0.64 0.68 0.68 0.67 0.64 0.61 0.64 0.69 0.74 0.78 0.83 0.89 0.95 0.99 1.06 1.12 1.16 1.21 1.24 1.24 1.28 1.50 1.57 1.52 1.49 1.47 1.42 1.38 1.29 1.23 1.23 1.17 1.19 1.18 1.16 1.21 1.35
0.41 0.42 0.43 0.46 0.48 0.52 0.59 0.66 0.68 0.66 0.66 0.65 0.64 0.67 0.72 0.78 0.83 0.86 0.93 1.04 1.10 1.22 1.29 1.32 1.41 1.41 1.42 1.49 1.39 1.39 1.36 1.38 1.34 1.24 1.15 1.09 1.02 1.01 0.93 1.02 1.09 1.10 1.17
0.37 0.36 0.38 0.39 0.40 0.43 0.50 0.60 0.64 0.65 0.67 0.68 0.71 0.74 0.74 0.83 0.92 0.94 0.97 1.06 1.14 1.25 1.35 1.36 1.39 1.41 1.42 1.43 1.31 1.27 1.14 1.12 1.13 1.09 1.02 0.96 0.93 0.92 0.92 0.96 1.04 0.95 0.90
0.40 0.39 0.39 0.41 0.40 0.42 0.48 0.57 0.64 0.65 0.67 0.69 0.73 0.77 0.80 0.90 1.00 0.99 1.00 1.05 1.10 1.17 1.21 1.24 1.23 1.18 1.19 1.23 1.16 1.14 1.05 1.02 0.99 0.96 0.96 0.97 0.89 0.99 1.12 1.09 1.05 0.91 0.80
0.36 0.41 0.44 0.42 0.45 0.47 0.49 0.58 0.68 0.77 0.81 0.81 0.83 0.86 0.95 1.05 1.08 1.05 1.03 0.99 0.98 0.99 0.97 0.96 0.93 0.90 0.89 0.99 0.97 0.97 0.88 0.91 0.89 0.89 0.93 1.04 0.98 1.05 1.15 1.03 1.00 0.92 0.79
0.39 0.41 0.46 0.48 0.51 0.53 0.54 0.58 0.65 0.81 0.89 0.92 0.94 0.96 1.02 1.06 1.07 1.03 0.96 0.92 0.86 0.86 0.83 0.80 0.78 0.74 0.76 0.82 0.82 0.85 0.79 0.80 0.84 0.84 0.81 0.84 1.05 1.11 1.07 0.97 0.83 0.86 0.89
0.37 0.43 0.50 0.54 0.54 0.59 0.66 0.66 0.70 0.78 0.84 0.88 0.91 0.91 0.92 0.95 0.99 0.98 0.93 0.88 0.86 0.85 0.83 0.82 0.83 0.80 0.78 0.79 0.80 0.85 0.87 0.89 0.84 0.79 0.71 0.77 1.00 0.97 0.91 0.83 0.86 0.98 0.93
0.39 0.45 0.55 0.60 0.61 0.62 0.66 0.71 0.69 0.68 0.72 0.78 0.83 0.82 0.79 0.80 0.83 0.86 0.87 0.88 0.87 0.85 0.84 0.84 0.86 0.85 0.81 0.84 0.91 0.88 0.94 0.95 0.84 0.81 0.91 0.94 0.90 0.82 0.78 0.81 0.85 0.83 0.77
0.39 0.45 0.50 0.55 0.57 0.58 0.59 0.62 0.58 0.56 0.58 0.63 0.70 0.74 0.74 0.74 0.73 0.74 0.80 0.86 0.88 0.85 0.82 0.83 0.86 0.84 0.79 0.80 0.84 0.86 0.89 0.92 0.88 0.90 0.96 0.91 0.81 0.75 0.75 0.79 0.79 0.74 0.75
0.40 0.44 0.49 0.54 0.56 0.53 0.54 0.54 0.53 0.51 0.53 0.54 0.58 0.62 0.68 0.73 0.75 0.75 0.80 0.87 0.88 0.94 0.93 0.85 0.83 0.84 0.83 0.84 0.96 0.96 0.91 0.95 1.00 0.97 0.83 0.75 0.72 0.71 0.67 0.67 0.68 0.71 0.78
0.41 0.42 0.45 0.50 0.56 0.55 0.52 0.52 0.52 0.51 0.56 0.57 0.57 0.60 0.66 0.70 0.73 0.75 0.79 0.88 0.91 0.95 0.96 0.95 0.91 0.84 0.89 0.95 1.00 1.02 1.07 1.10 1.08 0.97 0.82 0.74 0.68 0.65 0.61 0.60 0.63 0.66 0.73

GEFSMW_prec_meanprecacc_288.txt.gz
Total_Precipitation_Accumulation
1.16 1.36 1.57 1.96 2.20 2.50 2.84 2.96 3.23 3.43 3.57 3.68 3.66 3.44 3.16 2.94 2.79 2.74 2.69 2.50 2.32 2.25 2.14 2.00 2.00 1.94 1.78 1.61 1.59 1.58 1.45 1.31 1.29 1.23 1.01 0.86 0.78 0.74 0.69 0.72 0.72 0.63 0.56
1.01 1.16 1.38 1.74 1.94 2.13 2.37 2.59 2.81 3.07 3.26 3.29 3.30 3.37 3.37 3.13 2.86 2.77 2.75 2.73 2.63 2.47 2.30 2.15 2.09 2.07 2.01 1.80 1.67 1.71 1.67 1.55 1.51 1.51 1.44 1.23 1.03 0.81 0.71 0.72 0.72 0.69 0.67
0.89 0.99 1.17 1.53 1.76 1.88 2.06 2.27 2.51 2.67 2.78 3.07 3.30 3.35 3.55 3.47 3.04 2.70 2.53 2.64 2.74 2.75 2.55 2.35 2.31 2.26 2.23 2.12 1.95 1.86 1.83 1.78 1.70 1.69 1.85 1.63 1.30 0.97 0.81 0.78 0.77 0.74 0.76
0.90 0.97 1.06 1.28 1.51 1.61 1.78 2.01 2.32 2.55 2.58 2.83 3.01 2.97 2.89 2.95 2.75 2.56 2.55 2.62 2.70 2.76 2.76 2.62 2.44 2.37 2.33 2.27 2.32 2.32 2.18 2.07 1.88 1.75 1.65 1.60 1.43 1.35 1.12 0.89 0.86 0.83 0.78
0.83 0.95 1.00 1.08 1.25 1.37 1.48 1.69 2.07 2.38 2.51 2.58 2.70 2.82 2.81 2.78 2.83 2.76 2.69 2.60 2.50 2.56 2.68 2.69 2.56 2.32 2.20 2.15 2.19 2.28 2.33 2.21 2.00 1.85 1.73 1.64 1.46 1.36 1.38 1.18 0.99 0.94 0.83
0.78 0.86 0.89 0.94 1.12 1.18 1.20 1.37 1.62 2.06 2.43 2.53 2.54 2.58 2.60 2.55 2.61 2.71 2.67 2.64 2.50 2.38 2.39 2.42 2.39 2.32 2.19 2.08 2.11 2.22 2.31 2.33 2.25 2.05 1.84 1.74 1.63 1.42 1.42 1.38 1.22 1.18 1.04
0.74 0.78 0.84 0.95 1.03 1.10 1.08 1.14 1.27 1.60 2.05 2.30 2.32 2.34 2.39 2.39 2.34 2.44 2.58 2.56 2.44 2.28 2.26 2.33 2.27 2.24 2.16 2.13 2.09 2.11 2.12 2.16 2.21 2.14 1.96 1.76 1.61 1.51 1.57 1.61 1.49 1.38 1.24
0.66 0.70 0.73 0.81 0.86 0.91 0.96 1.04 1.12 1.26 1.52 1.81 1.97 2.10 2.19 2.21 2.09 2.07 2.28 2.38 2.27 2.18 2.15 2.24 2.22 2.18 2.17 2.14 2.10 2.05 2.00 2.00 2.02 1.98 1.90 1.76 1.59 1.50 1.54 1.67 1.81 1.79 1.53
0.53 0.57 0.60 0.66 0.67 0.71 0.79 0.88 0.92 1.01 1.18 1.42 1.62 1.82 1.91 2.00 2.01 1.95 2.03 2.26 2.26 2.10 2.02 2.05 2.07 2.04 2.03 2.05 2.05 2.01 1.90 1.85 1.86 1.81 1.74 1.66 1.53 1.44 1.44 1.52 1.72 2.01 1.97
0.45 0.50 0.54 0.60 0.63 0.64 0.60 0.63 0.74 0.90 1.02 1.12 1.34 1.52 1.68 1.77 1.83 1.88 1.89 1.97 2.04 2.01 1.89 1.85 1.89 1.91 1.88 1.88 1.96 1.91 1.82 1.79 1.73 1.69 1.66 1.60 1.51 1.48 1.48 1.53 1.60 1.74 1.90
0.43 0.47 0.48 0.54 0.63 0.65 0.58 0.54 0.63 0.77 0.87 0.92 1.08 1.23 1.36 1.52 1.62 1.66 1.68 1.71 1.76 1.84 1.86 1.76 1.78 1.84 1.83 1.79 1.82 1.86 1.81 1.74 1.66 1.60 1.58 1.54 1.48 1.49 1.46 1.49 1.56 1.61 1.68
0.45 0.46 0.45 0.49 0.59 0.67 0.66 0.59 0.61 0.67 0.77 0.82 0.91 1.08 1.15 1.27 1.42 1.53 1.52 1.51 1.54 1.58 1.62 1.63 1.65 1.67 1.66 1.62 1.61 1.65 1.69 1.68 1.60 1.56 1.56 1.53 1.53 1.60 1.61 1.61 1.60 1.59 1.56
0.50 0.48 0.48 0.49 0.56 0.65 0.71 0.65 0.63 0.64 0.69 0.79 0.80 0.93 1.05 1.10 1.16 1.27 1.37 1.42 1.45 1.49 1.51 1.49 1.55 1.58 1.54 1.54 1.50 1.47 1.52 1.57 1.56 1.53 1.55 1.53 1.55 1.62 1.63 1.62 1.59 1.52 1.48
0.54 0.53 0.57 0.56 0.59 0.63 0.70 0.67 0.68 0.65 0.63 0.73 0.78 0.79 0.93 1.02 1.05 1.07 1.14 1.22 1.27 1.33 1.35 1.37 1.37 1.42 1.46 1.49 1.51 1.52 1.48 1.49 1.52 1.52 1.50 1.47 1.47 1.45 1.43 1.42 1.40 1.41 1.43
0.50 0.52 0.55 0.59 0.61 0.61 0.67 0.68 0.69 0.69 0.62 0.66 0.74 0.77 0.82 0.90 0.99 1.05 1.08 1.14 1.18 1.23 1.27 1.30 1.31 1.28 1.33 1.42 1.49 1.54 1.56 1.54 1.54 1.55 1.50 1.40 1.36 1.29 1.25 1.23 1.22 1.24 1.36
0.49 0.49 0.47 0.52 0.55 0.62 0.68 0.72 0.72 0.71 0.67 0.64 0.67 0.73 0.80 0.84 0.89 0.97 1.04 1.07 1.14 1.21 1.25 1.33 1.37 1.36 1.38 1.60 1.66 1.60 1.57 1.55 1.50 1.45 1.35 1.29 1.28 1.22 1.24 1.23 1.20 1.25 1.39
0.42 0.43 0.44 0.48 0.51 0.55 0.64 0.72 0.74 0.71 0.70 0.68 0.67 0.70 0.76 0.84 0.88 0.91 1.00 1.12 1.18 1.31 1.39 1.43 1.53 1.52 1.51 1.59 1.48 1.47 1.42 1.44 1.40 1.30 1.21 1.15 1.07 1.06 0.97 1.07 1.14 1.14 1.22
0.39 0.38 0.40 0.41 0.42 0.46 0.54 0.65 0.70 0.71 0.71 0.71 0.75 0.77 0.78 0.87 0.97 0.99 1.02 1.12 1.21 1.32 1.42 1.45 1.49 1.49 1.49 1.50 1.38 1.35 1.20 1.18 1.19 1.14 1.07 1.02 0.99 0.97 0.97 1.01 1.08 0.98 0.93
0.42 0.41 0.41 0.43 0.42 0.45 0.52 0.63 0.69 0.70 0.71 0.73 0.77 0.81 0.84 0.94 1.05 1.05 1.05 1.10 1.16 1.22 1.27 1.30 1.30 1.25 1.25 1.28 1.21 1.20 1.10 1.07 1.04 1.01 1.01 1.02 0.95 1.05 1.17 1.14 1.09 0.95 0.83
0.38 0.43 0.45 0.44 0.48 0.51 0.54 0.63 0.73 0.81 0.85 0.85 0.87 0.91 0.99 1.09 1.13 1.10 1.07 1.04 1.04 1.04 1.02 1.01 0.99 0.95 0.94 1.03 1.01 1.01 0.92 0.94 0.93 0.93 0.97 1.09 1.04 1.12 1.21 1.07 1.04 0.96 0.83
0.40 0.43 0.47 0.50 0.54 0.56 0.58 0.62 0.70 0.85 0.94 0.97 0.98 0.99 1.05 1.11 1.13 1.08 1.00 0.96 0.91 0.91 0.87 0.85 0.83 0.79 0.80 0.86 0.87 0.89 0.82 0.83 0.87 0.88 0.85 0.89 1.12 1.18 1.16 1.03 0.87 0.90 0.93
0.39 0.44 0.52 0.56 0.56 0.61 0.68 0.69 0.74 0.83 0.89 0.94 0.95 0.95 0.96 1.00 1.05 1.05 0.98 0.91 0.90 0.89 0.87 0.85 0.87 0.84 0.83 0.83 0.84 0.90 0.91 0.93 0.87 0.82 0.74 0.81 1.05 1.03 0.98 0.90 0.92 1.03 0.97
0.41 0.47 0.57 0.62 0.63 0.64 0.69 0.74 0.73 0.73 0.77 0.84 0.88 0.87 0.84 0.85 0.89 0.93 0.93 0.93 0.91 0.89 0.88 0.87 0.88 0.88 0.85 0.88 0.94 0.91 0.99 1.01 0.88 0.85 0.95 0.97 0.94 0.87 0.83 0.87 0.91 0.89 0.83
0.40 0.46 0.52 0.57 0.60 0.61 0.62 0.66 0.62 0.61 0.64 0.70 0.77 0.80 0.80 0.79 0.78 0.80 0.86 0.91 0.92 0.90 0.86 0.86 0.89 0.86 0.81 0.82 0.87 0.89 0.92 0.97 0.93 0.95 1.01 0.95 0.85 0.79 0.79 0.85 0.85 0.79 0.80
0.42 0.46 0.52 0.57 0.59 0.57 0.57 0.58 0.57 0.56 0.59 0.61 0.65 0.69 0.74 0.78 0.80 0.81 0.86 0.93 0.94 0.99 0.98 0.89 0.85 0.87 0.85 0.86 0.99 1.00 0.94 0.99 1.04 1.02 0.89 0.81 0.77 0.76 0.73 0.73 0.73 0.77 0.84
0.43 0.44 0.47 0.53 0.60 0.58 0.55 0.55 0.55 0.56 0.60 0.63 0.63 0.67 0.73 0.76 0.78 0.80 0.84 0.94 0.96 1.00 0.99 0.99 0.94 0.87 0.92 0.98 1.02 1.06 1.10 1.13 1.12 1.01 0.87 0.81 0.74 0.70 0.67 0.65 0.69 0.72 0.79

GEFSMW_prec_meanprecacc_294.txt.gz
Total_Precipitation_Accumulation
1.20 1.41 1.62 2.00 2.24 2.54 2.87 2.99 3.27 3.49 3.63 3.75 3.76 3.54 3.26 3.02 2.85 2.80 2.75 2.57 2.40 2.32 2.19 2.03 2.02 1.96 1.80 1.63 1.61 1.62 1.50 1.35 1.32 1.28 1.06 0.90 0.81 0.76 0.71 0.74 0.74 0.66 0.60
1.05 1.21 1.45 1.79 1.98 2.17 2.39 2.62 2.84 3.11 3.32 3.36 3.39 3.47 3.47 3.21 2.92 2.83 2.83 2.79 2.71 2.56 2.36 2.19 2.11 2.09 2.03 1.83 1.70 1.74 1.72 1.59 1.55 1.56 1.50 1.29 1.08 0.85 0.74 0.74 0.74 0.72 0.70
0.93 1.03 1.22 1.59 1.80 1.92 2.09 2.28 2.53 2.69 2.82 3.15 3.41 3.46 3.65 3.56 3.12 2.77 2.61 2.71 2.82 2.82 2.64 2.42 2.35 2.28 2.25 2.15 1.99 1.90 1.87 1.83 1.73 1.73 1.90 1.69 1.35 1.01 0.84 0.81 0.79 0.77 0.79
0.94 1.02 1.10 1.33 1.56 1.65 1.81 2.03 2.34 2.56 2.61 2.87 3.10 3.08 3.00 3.05 2.83 2.64 2.63 2.71 2.77 2.85 2.85 2.70 2.50 2.41 2.36 2.30 2.36 2.36 2.22 2.11 1.92 1.78 1.68 1.64 1.48 1.40 1.16 0.93 0.90 0.86 0.82
0.87 0.99 1.05 1.12 1.31 1.43 1.52 1.72 2.09 2.39 2.53 2.60 2.75 2.91 2.91 2.88 2.92 2.84 2.77 2.69 2.60 2.65 2.77 2.77 2.62 2.38 2.25 2.19 2.24 2.33 2.38 2.25 2.04 1.88 1.77 1.68 1.50 1.40 1.43 1.23 1.03 0.99 0.88
0.83 0.89 0.93 0.98 1.16 1.24 1.25 1.41 1.66 2.09 2.45 2.55 2.57 2.64 2.69 2.65 2.72 2.80 2.77 2.73 2.60 2.48 2.49 2.51 2.45 2.37 2.24 2.13 2.15 2.27 2.36 2.38 2.29 2.08 1.87 1.78 1.67 1.46 1.46 1.42 1.26 1.23 1.10
0.79 0.82 0.87 0.99 1.07 1.15 1.14 1.19 1.32 1.65 2.09 2.34 2.37 2.40 2.46 2.49 2.45 2.55 2.68 2.66 2.53 2.37 2.36 2.43 2.36 2.30 2.21 2.17 2.13 2.15 2.16 2.20 2.25 2.18 2.00 1.79 1.64 1.54 1.61 1.65 1.53 1.42 1.29
0.71 0.74 0.77 0.84 0.89 0.94 1.02 1.11 1.18 1.32 1.58 1.86 2.05 2.18 2.27 2.30 2.20 2.18 2.38 2.48 2.36 2.26 2.24 2.33 2.32 2.26 2.22 2.19 2.14 2.08 2.04 2.04 2.06 2.01 1.93 1.79 1.62 1.53 1.58 1.72 1.86 1.84 1.57
0.58 0.61 0.64 0.68 0.70 0.75 0.84 0.93 0.97 1.06 1.24 1.47 1.68 1.89 2.01 2.12 2.15 2.07 2.14 2.36 2.36 2.20 2.11 2.14 2.17 2.14 2.11 2.11 2.11 2.07 1.94 1.88 1.88 1.83 1.76 1.68 1.56 1.48 1.47 1.56 1.76 2.07 2.02
0.48 0.54 0.58 0.63 0.65 0.67 0.64 0.67 0.79 0.93 1.06 1.17 1.40 1.58 1.75 1.86 1.95 2.02 2.03 2.10 2.18 2.15 2.00 1.95 1.98 2.00 1.98 1.97 2.03 1.97 1.87 1.83 1.76 1.71 1.68 1.61 1.53 1.51 1.52 1.57 1.64 1.79 1.95
0.47 0.51 0.52 0.57 0.65 0.67 0.59 0.56 0.66 0.79 0.89 0.96 1.13 1.28 1.42 1.59 1.71 1.78 1.82 1.86 1.92 2.00 2.00 1.89 1.90 1.95 1.94 1.90 1.92 1.94 1.88 1.79 1.70 1.64 1.60 1.56 1.51 1.52 1.50 1.54 1.61 1.65 1.72
0.51 0.50 0.49 0.51 0.60 0.68 0.67 0.60 0.62 0.69 0.78 0.84 0.94 1.12 1.19 1.32 1.48 1.60 1.62 1.64 1.68 1.73 1.77 1.76 1.77 1.80 1.80 1.77 1.74 1.76 1.78 1.75 1.66 1.61 1.61 1.57 1.57 1.65 1.66 1.66 1.65 1.63 1.60
0.54 0.52 0.52 0.53 0.58 0.67 0.72 0.66 0.64 0.65 0.71 0.81 0.83 0.96 1.08 1.15 1.22 1.34 1.43 1.49 1.55 1.60 1.63 1.61 1.66 1.70 1.66 1.69 1.66 1.62 1.64 1.67 1.65 1.61 1.61 1.59 1.61 1.67 1.69 1.68 1.65 1.57 1.52
0.55 0.55 0.59 0.59 0.62 0.66 0.71 0.68 0.69 0.65 0.64 0.75 0.80 0.81 0.96 1.06 1.10 1.14 1.22 1.28 1.34 1.41 1.43 1.45 1.45 1.51 1.54 1.59 1.65 1.68 1.63 1.62 1.63 1.61 1.57 1.53 1.52 1.51 1.49 1.49 1.47 1.47 1.48
0.51 0.53 0.56 0.61 0.63 0.65 0.70 0.71 0.70 0.70 0.64 0.68 0.77 0.79 0.84 0.93 1.02 1.09 1.15 1.22 1.25 1.29 1.34 1.37 1.37 1.35 1.39 1.49 1.58 1.67 1.72 1.70 1.67 1.65 1.59 1.48 1.43 1.36 1.32 1.30 1.29 1.31 1.43
0.50 0.50 0.48 0.53 0.56 0.64 0.72 0.76 0.76 0.73 0.69 0.66 0.70 0.76 0.82 0.86 0.91 1.00 1.09 1.14 1.22 1.28 1.31 1.39 1.42 1.42 1.44 1.65 1.73 1.69 1.69 1.71 1.67 1.58 1.45 1.37 1.35 1.30 1.32 1.32 1.30 1.35 1.48
0.43 0.44 0.45 0.50 0.52 0.57 0.67 0.75 0.77 0.74 0.73 0.71 0.70 0.73 0.79 0.87 0.92 0.95 1.05 1.18 1.25 1.39 1.48 1.50 1.58 1.57 1.57 1.64 1.54 1.55 1.50 1.55 1.56 1.48 1.35 1.26 1.16 1.15 1.05 1.15 1.24 1.26 1.33
0.40 0.39 0.41 0.43 0.44 0.47 0.56 0.68 0.72 0.73 0.74 0.74 0.77 0.79 0.80 0.90 1.00 1.02 1.06 1.17 1.28 1.40 1.53 1.56 1.59 1.58 1.57 1.56 1.43 1.41 1.27 1.26 1.29 1.29 1.24 1.16 1.12 1.08 1.07 1.11 1.18 1.09 1.04
0.43 0.42 0.42 0.45 0.44 0.47 0.53 0.65 0.71 0.72 0.74 0.77 0.80 0.83 0.85 0.96 1.07 1.07 1.08 1.14 1.21 1.29 1.36 1.41 1.42 1.36 1.35 1.37 1.28 1.26 1.16 1.15 1.12 1.11 1.13 1.16 1.08 1.16 1.28 1.24 1.20 1.05 0.93
0.39 0.45 0.47 0.46 0.49 0.53 0.56 0.65 0.75 0.84 0.88 0.89 0.91 0.93 1.01 1.11 1.15 1.13 1.11 1.08 1.08 1.09 1.08 1.09 1.08 1.05 1.03 1.11 1.08 1.08 0.99 1.02 1.00 1.01 1.05 1.18 1.12 1.20 1.28 1.15 1.12 1.05 0.92
0.41 0.44 0.49 0.51 0.55 0.60 0.61 0.64 0.72 0.88 0.97 1.00 1.01 1.01 1.07 1.13 1.15 1.11 1.04 1.01 0.96 0.95 0.93 0.91 0.90 0.86 0.88 0.94 0.94 0.95 0.89 0.90 0.94 0.95 0.93 0.96 1.19 1.25 1.22 1.09 0.94 0.97 1.00
0.40 0.46 0.53 0.57 0.57 0.63 0.71 0.71 0.76 0.85 0.92 0.97 0.98 0.97 0.98 1.02 1.07 1.08 1.02 0.97 0.95 0.94 0.92 0.91 0.93 0.90 0.90 0.90 0.90 0.95 0.97 1.00 0.94 0.88 0.80 0.87 1.11 1.10 1.05 0.96 0.98 1.10 1.04
0.41 0.48 0.58 0.63 0.64 0.65 0.71 0.76 0.74 0.75 0.80 0.87 0.92 0.90 0.87 0.88 0.92 0.97 0.98 0.98 0.97 0.95 0.93 0.92 0.94 0.94 0.90 0.94 0.99 0.96 1.03 1.05 0.93 0.90 1.00 1.02 0.99 0.92 0.89 0.93 0.97 0.94 0.89
0.41 0.47 0.53 0.58 0.61 0.61 0.64 0.67 0.64 0.63 0.66 0.72 0.80 0.83 0.83 0.83 0.83 0.85 0.92 0.96 0.97 0.95 0.91 0.91 0.93 0.91 0.85 0.86 0.91 0.93 0.96 1.00 0.96 0.99 1.05 0.99 0.89 0.83 0.83 0.90 0.91 0.85 0.86
0.43 0.47 0.54 0.58 0.60 0.58 0.58 0.59 0.58 0.58 0.62 0.63 0.68 0.72 0.78 0.83 0.86 0.87 0.92 0.97 0.98 1.04 1.03 0.94 0.90 0.92 0.90 0.90 1.02 1.03 0.98 1.03 1.08 1.05 0.91 0.83 0.80 0.79 0.76 0.77 0.79 0.83 0.90
0.44 0.46 0.49 0.54 0.61 0.60 0.57 0.56 0.57 0.58 0.64 0.67 0.67 0.71 0.78 0.81 0.84 0.86 0.90 0.99 1.00 1.04 1.04 1.03 0.99 0.93 0.97 1.02 1.06 1.09 1.13 1.17 1.17 1.04 0.90 0.83 0.77 0.74 0.70 0.70 0.73 0.77 0.85

GEFSMW_prec_meanprecacc_300.txt.gz
Total_Precipitation_Accumulation
1.21 1.43 1.64 2.03 2.27 2.56 2.89 3.02 3.30 3.53 3.68 3.82 3.83 3.61 3.34 3.11 2.93 2.88 2.82 2.61 2.42 2.34 2.21 2.07 2.09 2.01 1.85 1.66 1.63 1.63 1.51 1.37 1.33 1.29 1.08 0.92 0.83 0.78 0.72 0.75 0.76 0.68 0.62
1.06 1.22 1.47 1.81 2.01 2.19 2.41 2.64 2.87 3.15 3.36 3.42 3.46 3.53 3.54 3.28 2.99 2.89 2.90 2.85 2.74 2.58 2.38 2.23 2.17 2.16 2.09 1.87 1.72 1.76 1.74 1.61 1.56 1.57 1.52 1.32 1.12 0.88 0.77 0.76 0.76 0.74 0.72
0.95 1.05 1.24 1.62 1.83 1.93 2.10 2.31 2.56 2.73 2.86 3.19 3.46 3.52 3.73 3.65 3.20 2.85 2.67 2.78 2.86 2.85 2.66 2.44 2.39 2.35 2.32 2.21 2.03 1.93 1.89 1.85 1.74 1.74 1.92 1.72 1.38 1.04 0.87 0.84 0.83 0.79 0.82
0.96 1.04 1.13 1.36 1.58 1.67 1.82 2.05 2.37 2.60 2.65 2.91 3.13 3.13 3.06 3.12 2.91 2.73 2.71 2.78 2.84 2.89 2.88 2.72 2.54 2.47 2.43 2.36 2.41 2.40 2.25 2.14 1.95 1.80 1.70 1.66 1.50 1.42 1.19 0.96 0.94 0.90 0.86
0.89 1.01 1.08 1.15 1.33 1.44 1.53 1.74 2.11 2.42 2.56 2.64 2.79 2.95 2.96 2.95 2.99 2.93 2.85 2.77 2.67 2.72 2.82 2.80 2.65 2.42 2.31 2.25 2.30 2.38 2.42 2.28 2.08 1.91 1.80 1.70 1.51 1.42 1.45 1.26 1.07 1.04 0.93
0.86 0.93 0.97 1.02 1.19 1.26 1.27 1.43 1.68 2.11 2.48 2.58 2.60 2.67 2.73 2.72 2.80 2.90 2.86 2.81 2.68 2.56 2.57 2.58 2.49 2.41 2.29 2.19 2.21 2.33 2.40 2.42 2.34 2.13 1.92 1.83 1.69 1.47 1.48 1.44 1.29 1.27 1.15
0.84 0.88 0.93 1.03 1.10 1.17 1.16 1.22 1.35 1.68 2.12 2.37 2.39 2.42 2.49 2.53 2.51 2.64 2.78 2.75 2.61 2.45 2.44 2.51 2.42 2.35 2.25 2.22 2.19 2.21 2.21 2.24 2.29 2.23 2.05 1.85 1.70 1.58 1.64 1.68 1.56 1.46 1.34
0.77 0.80 0.82 0.89 0.92 0.96 1.04 1.13 1.21 1.37 1.63 1.91 2.08 2.21 2.30 2.33 2.24 2.24 2.47 2.58 2.45 2.34 2.32 2.41 2.39 2.32 2.28 2.24 2.19 2.15 2.09 2.08 2.09 2.04 1.97 1.85 1.68 1.59 1.63 1.75 1.90 1.89 1.63
0.65 0.67 0.68 0.72 0.73 0.77 0.86 0.95 1.00 1.10 1.29 1.54 1.75 1.96 2.06 2.17 2.19 2.11 2.19 2.44 2.45 2.28 2.18 2.22 2.25 2.22 2.18 2.18 2.17 2.12 2.00 1.93 1.92 1.86 1.78 1.72 1.61 1.53 1.52 1.60 1.81 2.13 2.09
0.55 0.60 0.62 0.66 0.68 0.69 0.65 0.69 0.81 0.97 1.11 1.23 1.47 1.65 1.82 1.93 2.02 2.08 2.07 2.14 2.23 2.21 2.08 2.02 2.05 2.09 2.06 2.04 2.10 2.03 1.92 1.89 1.80 1.75 1.70 1.63 1.56 1.55 1.56 1.62 1.68 1.84 2.01
0.54 0.57 0.58 0.61 0.68 0.69 0.61 0.57 0.68 0.82 0.93 1.01 1.19 1.35 1.49 1.65 1.77 1.86 1.89 1.92 1.97 2.06 2.08 1.99 1.98 2.04 2.04 1.99 2.00 2.01 1.94 1.85 1.75 1.68 1.64 1.59 1.54 1.56 1.53 1.57 1.65 1.69 1.77
0.57 0.56 0.55 0.57 0.64 0.71 0.69 0.61 0.63 0.70 0.81 0.89 1.00 1.19 1.27 1.39 1.54 1.66 1.69 1.71 1.75 1.80 1.85 1.87 1.88 1.89 1.90 1.88 1.85 1.86 1.86 1.83 1.73 1.66 1.65 1.61 1.60 1.69 1.70 1.70 1.68 1.66 1.63
0.60 0.58 0.57 0.59 0.63 0.70 0.75 0.67 0.65 0.66 0.72 0.84 0.88 1.03 1.15 1.22 1.28 1.39 1.47 1.54 1.60 1.67 1.71 1.71 1.78 1.81 1.77 1.81 1.80 1.76 1.77 1.78 1.73 1.68 1.67 1.65 1.66 1.73 1.74 1.72 1.68 1.61 1.55
0.60 0.60 0.64 0.66 0.68 0.71 0.76 0.71 0.70 0.66 0.65 0.77 0.83 0.86 1.02 1.13 1.16 1.19 1.25 1.32 1.37 1.46 1.49 1.53 1.55 1.62 1.65 1.69 1.75 1.80 1.77 1.76 1.75 1.70 1.65 1.60 1.59 1.57 1.55 1.53 1.51 1.51 1.52
0.54 0.56 0.59 0.65 0.69 0.71 0.77 0.76 0.74 0.72 0.65 0.69 0.79 0.83 0.88 0.97 1.08 1.14 1.18 1.25 1.28 1.33 1.38 1.43 1.45 1.45 1.49 1.58 1.66 1.75 1.82 1.81 1.80 1.77 1.69 1.56 1.50 1.43 1.39 1.36 1.33 1.36 1.47
0.52 0.52 0.50 0.56 0.60 0.69 0.77 0.83 0.82 0.78 0.72 0.68 0.72 0.79 0.86 0.89 0.94 1.03 1.12 1.16 1.24 1.30 1.35 1.44 1.48 1.49 1.53 1.74 1.81 1.78 1.78 1.80 1.76 1.67 1.55 1.46 1.43 1.37 1.39 1.40 1.37 1.41 1.53
0.44 0.45 0.47 0.52 0.55 0.61 0.70 0.80 0.83 0.80 0.78 0.74 0.73 0.76 0.83 0.90 0.95 0.97 1.06 1.20 1.27 1.41 1.50 1.53 1.62 1.63 1.63 1.71 1.61 1.63 1.60 1.64 1.65 1.57 1.45 1.35 1.25 1.23 1.13 1.23 1.31 1.32 1.39
0.41 0.40 0.42 0.44 0.45 0.50 0.59 0.71 0.76 0.78 0.79 0.79 0.81 0.82 0.83 0.94 1.03 1.05 1.09 1.19 1.29 1.42 1.56 1.60 1.64 1.63 1.63 1.63 1.49 1.47 1.34 1.33 1.37 1.38 1.35 1.28 1.23 1.17 1.15 1.18 1.25 1.15 1.09
0.44 0.43 0.43 0.46 0.45 0.48 0.56 0.67 0.74 0.75 0.77 0.81 0.84 0.87 0.89 1.00 1.11 1.11 1.12 1.17 1.23 1.31 1.38 1.45 1.47 1.42 1.41 1.43 1.34 1.33 1.22 1.20 1.17 1.15 1.19 1.25 1.19 1.27 1.37 1.31 1.27 1.12 0.98
0.40 0.45 0.47 0.46 0.50 0.54 0.57 0.67 0.77 0.86 0.91 0.92 0.94 0.97 1.05 1.16 1.20 1.18 1.16 1.12 1.12 1.13 1.11 1.13 1.12 1.10 1.09 1.18 1.15 1.14 1.05 1.08 1.06 1.06 1.10 1.24 1.21 1.30 1.39 1.25 1.20 1.12 0.99
0.42 0.44 0.49 0.52 0.56 0.60 0.61 0.65 0.73 0.90 0.99 1.02 1.03 1.04 1.10 1.16 1.19 1.15 1.09 1.06 1.01 1.00 0.97 0.95 0.94 0.91 0.93 0.99 0.99 1.02 0.95 0.96 1.00 1.02 0.99 1.03 1.26 1.34 1.33 1.20 1.05 1.06 1.08
0.40 0.46 0.53 0.57 0.57 0.64 0.71 0.71 0.77 0.86 0.93 0.98 0.99 0.99 1.00 1.04 1.10 1.11 1.06 1.01 1.00 0.98 0.96 0.96 0.98 0.96 0.95 0.95 0.96 1.01 1.04 1.05 0.99 0.95 0.88 0.96 1.20 1.19 1.14 1.07 1.08 1.20 1.13
0.41 0.48 0.58 0.63 0.64 0.66 0.72 0.77 0.75 0.76 0.80 0.88 0.93 0.91 0.88 0.89 0.94 0.99 1.01 1.01 1.01 0.99 0.97 0.97 0.99 0.99 0.96 1.00 1.06 1.03 1.10 1.12 0.98 0.95 1.06 1.09 1.07 1.00 0.98 1.03 1.08 1.05 0.99
0.41 0.48 0.53 0.59 0.62 0.62 0.64 0.68 0.64 0.63 0.66 0.73 0.81 0.84 0.84 0.84 0.84 0.87 0.94 0.99 1.02 1.00 0.95 0.95 0.98 0.96 0.90 0.92 0.97 1.00 1.03 1.07 1.03 1.05 1.10 1.04 0.95 0.89 0.91 0.99 1.00 0.96 0.98
0.43 0.48 0.54 0.59 0.61 0.59 0.59 0.60 0.59 0.58 0.62 0.64 0.69 0.73 0.79 0.84 0.87 0.88 0.95 1.02 1.03 1.09 1.09 0.99 0.95 0.97 0.95 0.95 1.08 1.09 1.05 1.11 1.15 1.12 0.98 0.89 0.85 0.84 0.83 0.85 0.87 0.91 1.00
0.45 0.47 0.49 0.55 0.62 0.61 0.58 0.57 0.57 0.59 0.64 0.68 0.68 0.72 0.79 0.83 0.85 0.87 0.93 1.02 1.04 1.08 1.09 1.08 1.04 0.97 1.01 1.07 1.11 1.15 1.20 1.25 1.24 1.12 0.98 0.90 0.82 0.79 0.76 0.77 0.82 0.86 0.93